     2              OBSERVATION DATA    GPS                 RINEX VERSION / TYPE
srx v1.3 (5/19/93) STARR 93/10/11 17:38:52                  PGM / RUN BY / DATE
                                                            COMMENT
sig: 9 8 7 6 5 4 1 0                                        COMMENT
sig: 9 8 7 6 5 4 1 0                                        COMMENT
sig: 9 8 7 6 5 4 1 0                                        COMMENT
Original Marker Name: 3182                                  COMMENT
Campaign Name: Baja (Dixon) 1993                            COMMENT
4-Character Station Name: 3182                              COMMENT
6-Character Antenna Code: DMRCHT                            COMMENT
Vertical Measurement Point: BPA                             COMMENT
Vertical Offset to Rinex Ref. Point: 0.0000                 COMMENT
Radial Measurement Point: RRP                               COMMENT
Radial Offset to Rinex Ref. Point: 0.0000                   COMMENT
Antenna Height from Field Measurement: 0.0614 m             COMMENT
Additional Antenna Identification Info.:                    COMMENT
Turborogue and Ashtech Choke Ring                           COMMENT
Original XYZ: -2493309.0382 -4655182.3466 3565500.9443      COMMENT
New XYZ position is based on association with SCEC monument COMMENT
E1C2G8Z4+0011. Position of that monument is believed to be  COMMENT
valid to within 1 m horizontally; vertical accuracy         COMMENT
should be no worse than 3-times this value.                 COMMENT
                                                            COMMENT
Revised Rinex header created by UCSD GPS archive for        COMMENT
GSAC on 09-Nov-2004 (2004:314) 21:56:06 GMT                 COMMENT
For assistance contact dagnew@ucsd.edu                      COMMENT
or anderson@python.ucsd.edu                                 COMMENT
                                                            COMMENT
3182S                                                       MARKER NAME
THE OBSERVER WAS?___JET PROPULSION LABORATORY               OBSERVER / AGENCY
127 TURBOROGUE SNR-8000 100.1                               REC # / TYPE / VERS
127 DORNE-MARGOL. TYPE T                                    ANT # / TYPE
 -2414457.0000 -4904232.0000  3275542.0000                  APPROX POSITION XYZ
        0.0614        0.0000        0.0000                  ANTENNA: DELTA H/E/N
     1     1     0                                          WAVELENGTH FACT L1/2
     4    L1    L2    P1    P2                              # / TYPES OF OBSERV
   120                                                      INTERVAL
  1993     4     8     0     0    0.000000                  TIME OF FIRST OBS
  1993     4     8    23    58    0.000000                  TIME OF LAST OBS
    22                                                      # OF SATELLITES
          01   697   697   697   697                        PRN / # OF OBS
          02   848   848   848   848                        PRN / # OF OBS
          03   667   667   667   667                        PRN / # OF OBS
          11   887   887   887   887                        PRN / # OF OBS
          12   743   743   743   743                        PRN / # OF OBS
          13   614   614   614   614                        PRN / # OF OBS
          14   729   729   729   729                        PRN / # OF OBS
          15   845   845   845   845                        PRN / # OF OBS
          16   805   805   805   805                        PRN / # OF OBS
          17   721   721   721   721                        PRN / # OF OBS
          18   828   828   828   828                        PRN / # OF OBS
          19   924   924   924   924                        PRN / # OF OBS
          20   652   652   652   652                        PRN / # OF OBS
          21   722   722   722   722                        PRN / # OF OBS
          22   817   817   817   817                        PRN / # OF OBS
          23   650   650   650   650                        PRN / # OF OBS
          24   605   605   605   605                        PRN / # OF OBS
          25   748   748   748   748                        PRN / # OF OBS
          26   884   884   884   884                        PRN / # OF OBS
          27   870   870   870   870                        PRN / # OF OBS
          28   906   906   906   906                        PRN / # OF OBS
                                                            END OF HEADER
 93 04 08 00 00 00.0000000  0  6 27 12 26 13 24 02
 -10569319.49808  -8235837.52608  22438467.41408  22438476.12208
  -3509007.64308  -2734283.77508  23303217.92308  23303226.96208
 -12649671.47808  -9856866.34708  22075053.29008  22075059.69408
 -19015339.55409 -14817097.68408  19021884.92809  19021888.75308
  -8124367.61208  -6330628.57008  22489665.50208  22489675.03408
 -20256506.56308 -15784258.14808  20442554.19808  20442557.91608
 93 04 08 00 02 00.0000000  0  6 27 12 26 13 24 02
 -10128629.08008  -7892443.29508  22522328.58408  22522337.55308
  -3899899.76008  -3038874.14908  23228833.00308  23228841.76208
 -12441071.18208  -9694320.89308  22114748.81408  22114755.29908
 -19063648.23109 -14854740.65008  19012692.01509  19012695.75008
  -8549516.93408  -6661912.31708  22408761.22308  22408770.41608
 -20122279.60008 -15679665.69408  20468096.73208  20468100.45108
 93 04 08 00 04 00.0000000  0  6 27 12 13 26 24 02
  -9685097.18508  -7546834.99008  22606730.72908  22606739.78208
  -4290614.81308  -3343326.61508  23154481.80608  23154490.37608
 -19103109.60209 -14885489.62408  19005182.68009  19005186.35508
 -12227734.30608  -9528084.59808  22155345.53808  22155352.16408
  -8973559.41908  -6992333.61408  22328067.54108  22328076.41308
 -19984768.07308 -15572513.85708  20494264.28408  20494268.02908
 93 04 08 00 06 00.0000000  0  6 27 12 13 26 24 02
  -9239022.11508  -7199245.08208  22691616.78508  22691626.00008
  -4681011.38908  -3647530.94808  23080191.31908  23080199.57708
 -19133776.89109 -14909386.08408  18999346.77409  18999350.43208
 -12009682.35308  -9358174.21808  22196839.62108  22196846.37308
  -9396072.89608  -7321563.52108  22247664.87208  22247673.43008
 -19843773.75008 -15462648.17108  20521094.67108  20521098.36308
 93 04 08 00 08 00.0000000  0  6 27 12 26 13 24 02
  -8790667.86108  -6849879.23208  22776936.57508  22776946.08808
  -5070905.54908  -3951343.74808  23005996.30108  23006004.35208
 -11787305.26608  -9184893.60708  22239156.73408  22239163.67908
 -19155671.06309 -14926446.35108  18995180.35209  18995184.02408
  -9816512.24308  -7649177.24108  22167656.93208  22167665.16908
 -19699235.70308 -15350021.15608  20548599.34508  20548603.05908
 93 04 08 00 10 00.0000000  0  6 27 12 26 13 24 02
  -8340000.71608  -6498711.14308  22862696.54408  22862706.25608
  -5460182.43308  -4254675.55108  22931918.78208  22931926.52508
 -11560882.38508  -9008460.44308  22282243.72908  22282250.75108
 -19168889.08109 -14936745.96808  18992664.91909  18992668.58308
 -10235258.87208  -7975471.99808  22087971.07608  22087978.99208
 -19550942.45408 -15234467.99008  20576818.59408  20576822.34908
 93 04 08 00 12 00.0000000  0  6 27 12 26 13 24 02
  -7887176.01908  -6145861.87208  22948867.10208  22948877.17408
  -5848708.37408  -4557422.23008  22857984.10908  22857991.62408
 -11330444.53608  -8828898.74508  22326094.87708  22326101.86208
 -19173516.41109 -14940351.53008  18991784.24409  18991787.90308
 -10651708.84608  -8299977.20508  22008722.32708  22008729.99508
 -19399097.13508 -15116146.96208  20605713.80508  20605717.56208
 93 04 08 00 14 00.0000000  0  6 27 12 26 13 24 02
  -7432472.72708  -5791548.81308  23035395.23908  23035405.54708
  -6236320.83308  -4859457.09708  22784223.29608  22784230.63908
 -11096089.85808  -8646284.98508  22370691.26508  22370698.32908
 -19169617.50009 -14937313.27908  18992526.08709  18992529.68108
 -11065981.00408  -8622785.48508  21929887.99408  21929895.40908
 -19243777.63108 -14995118.80308  20635270.14308  20635273.92208
 93 04 08 00 16 00.0000000  0  6 27 12 26 24 13 02
  -6976071.52908  -5435912.79108  23122246.54308  23122257.10408
  -6622889.05508  -5160678.24308  22710661.15608  22710668.28408
 -10858090.50508  -8460831.25108  22415981.24408  22415988.36008
 -11477690.40908  -8943596.89508  21851541.50708  21851548.59108
 -19157298.97209 -14927714.29908  18994870.15609  18994873.69008
 -19084780.75308 -14871225.17308  20665526.24608  20665530.04808
 93 04 08 00 18 00.0000000  0  6 24 27 12 26 13 02
 -11886829.86908  -9262405.83808  21773684.05208  21773690.94208
  -6517879.94608  -5078881.72608  23209438.43408  23209449.47208
  -7008243.65708  -5460953.71208  22637329.99608  22637336.90808
 -10616622.42608  -8272674.64908  22461931.41008  22461938.49208
 -19136634.49909 -14911611.99608  18998802.38709  18998805.88008
 -18922077.31408 -14744443.28608  20696487.73608  20696491.48008
 93 04 08 00 20 00.0000000  0  6 24 27 12 26 13 02
 -12293073.01108  -9578957.97608  21696377.77508  21696384.50208
  -6058043.37108  -4720568.88108  23296943.51308  23296954.84508
  -7392243.26708  -5760173.43208  22564256.82608  22564263.46308
 -10371820.01508  -8081919.90008  22508516.06908  22508523.24608
 -19107731.71309 -14889090.22708  19004302.29609  19004305.77808
 -18755435.83508 -14614592.77808  20728198.55608  20728202.27108
 93 04 08 00 22 00.0000000  0  6 24 27 12 26 13 02
 -12696318.86608  -9893174.62408  21619641.99808  21619648.52808
  -5597141.08408  -4361425.60908  23384651.28708  23384662.97408
  -7774787.65608  -6058259.30408  22491460.50608  22491467.02508
 -10124045.57808  -7888849.31208  22555666.31908  22555673.57408
 -19070749.15109 -14860272.52908  19011339.73109  19011343.20308
 -18585000.64708 -14481786.15208  20760631.24308  20760634.98308
 93 04 08 00 24 00.0000000  0  6 24 27 12 26 13 02
 -13096317.98808 -10204861.39108  21543524.07408  21543530.30808
  -5134904.59208  -4001242.67408  23472613.04908  23472624.90608
  -8155716.16708  -6355086.07308  22418971.65508  22418978.05608
  -9873362.17608  -7693512.02408  22603370.16608  22603377.42508
 -19025791.33409 -14825240.35108  19019894.84509  19019898.29108
 -18410686.45308 -14345956.93808  20793802.09308  20793805.85508
 93 04 08 00 26 00.0000000  0  6 24 12 27 26 13 02
 -13493248.32808 -10514156.93608  21467990.14308  21467996.09408
  -8534874.93408  -6650533.76308  22346819.48008  22346825.87208
  -4671559.25008  -3640195.75208  23560785.81108  23560797.98208
  -9620134.83508  -7496192.45908  22651557.96308  22651565.39908
 -18972975.60909 -14784085.12408  19029945.25809  19029948.64008
 -18232515.15708 -14207122.16808  20827707.01008  20827710.75008
 93 04 08 00 28 00.0000000  0  6 24 12 26 27 13 02
 -13886641.96608 -10820696.66308  21393129.22308  21393135.01608
  -8912129.78608  -6944497.84608  22275029.68308  22275035.94708
  -9364425.66708  -7296939.01908  22700218.09408  22700225.67308
  -4207680.32808  -3278733.03608  23649060.01408  23649072.58608
 -18912442.20109 -14736916.11808  19041464.28909  19041467.66608
 -18050462.80808 -14065263.17408  20862350.37408  20862354.08608
 93 04 08 00 30 00.0000000  0  6 24 12 26 27 13 02
 -14276255.56908 -11124290.96108  21318987.71208  21318993.22708
  -9287298.84008  -7236836.67108  22203636.88708  22203642.95708
  -9105970.48708  -7095545.86908  22749400.84608  22749408.52408
  -3742952.89108  -2916609.10208  23737495.68208  23737508.50108
 -18844294.89809 -14683814.21808  19054432.21209  19054435.53908
 -17864522.19308 -13920374.36108  20897733.67908  20897737.35008
 93 04 08 00 32 00.0000000  0  6 24 12 26 27 13 02
 -14662188.31608 -11425017.09408  21245546.68808  21245552.04608
  -9660184.27908  -7527396.13808  22132678.75108  22132684.58008
  -8845652.30908  -6892701.07808  22798938.16008  22798945.93408
  -3277586.33608  -2553987.09607  23826052.82708  23826066.21807
 -18768622.60709 -14624848.69208  19068832.06309  19068835.40908
 -17674660.05708 -13772429.85208  20933863.33808  20933867.02508
 93 04 08 00 34 00.0000000  0  6 12 26 27 24 02 13
 -10030705.30308  -7816113.30308  22062170.50408  22062176.21008
  -8583686.75408  -6688572.65808  22848789.03708  22848796.88708
  -2811855.40108  -2191081.06507  23914679.35808  23914693.07607
 -15043725.54308 -11722318.15208  21172942.06708  21172947.27808
 -17480697.78908 -13621290.43608  20970773.02208  20970776.80208
 -18685639.05009 -14560186.08708  19084623.25909  19084626.57108
 93 04 08 00 36 00.0000000  0  6 12 26 24 27 02 13
 -10398661.08808  -8102831.65208  21992150.47408  21992156.02808
  -8319588.17008  -6482782.17408  22899045.69108  22899053.86008
 -15421335.86808 -12016559.28408  21101084.63508  21101089.70408
  -2345887.65807  -1827990.43607  24003351.02107  24003364.95807
 -17282802.58708 -13467086.41908  21008431.21408  21008435.01108
 -18595444.82309 -14489904.79008  19101786.61209  19101789.84108
 93 04 08 00 38 00.0000000  0  6 12 26 24 27 02 13
 -10763897.48508  -8387430.97108  21922647.97808  21922653.38908
  -8054024.67908  -6275850.17908  22949581.20008  22949589.61108
 -15794602.88908 -12307416.01008  21030053.76008  21030058.68908
  -1879996.35107  -1464959.29107  24092007.97907  24092022.02107
 -17081157.42808 -13309960.34408  21046803.09808  21046806.81308
 -18498188.11509 -14414120.22608  19120293.85109  19120297.07008
 93 04 08 00 40 00.0000000  0  6 12 02 26 27 13 24
 -11126277.58008  -8669804.50508  21853688.87708  21853694.24608
 -16875276.89708 -13149534.01008  21085980.90208  21085984.64108
  -7787266.37008  -6067987.20608  23000344.09108  23000352.54608
  -1413899.10007  -1101767.71907  24180704.12307  24180718.53507
 -18394041.36609 -14332966.81408  19140112.24109  19140115.44108
 -16163410.55908 -12594797.96208  20959871.46808  20959876.29508
 93 04 08 00 42 00.0000000  0  6 12 02 26 27 13 24
 -11485659.05708  -8949841.34308  21785300.38508  21785305.57108
 -16665455.63508 -12986036.96508  21125908.63208  21125912.39608
  -7519341.92608  -5859215.60908  23051328.91908  23051337.70908
   -948101.65507   -738809.80407  24269343.10607  24269358.05707
 -18283176.92809 -14246578.84308  19161208.95709  19161212.12608
 -16527732.00308 -12878684.16508  20890542.90508  20890547.56508
 93 04 08 00 44 00.0000000  0  6 12 02 26 27 13 24
 -11841851.85108  -9227393.54508  21717518.66208  21717523.66608
 -16451724.86708 -12819493.60608  21166580.28708  21166584.05808
  -7250659.16808  -5649853.17308  23102458.13908  23102466.90408
   -482978.81307   -376377.78707  24357854.15307  24357869.19507
 -18165718.19209 -14155052.50108  19183560.56609  19183563.69708
 -16887283.87208 -13158853.87008  20822122.01708  20822126.49108
 93 04 08 00 46 00.0000000  0  6 12 02 26 27 13 24
 -12194700.32208  -9502339.83808  21650373.41408  21650378.27108
 -16233777.77708 -12649664.76408  21208054.22208  21208058.05308
  -6981114.43308  -5439819.04008  23153751.27808  23153760.33608
    -17956.60807    -14024.35407  24446346.09707  24446361.47207
 -18041832.99509 -14058518.48808  19207135.06309  19207138.15408
 -17241455.43708 -13434831.12708  20754724.93108  20754729.31008
 93 04 08 00 48 00.0000000  0  6 12 02 26 27 13 24
 -12544025.97608  -9774541.18708  21583898.60908  21583903.36308
 -16011837.62908 -12476724.45708  21250288.08208  21250291.96608
  -6710926.26208  -5229283.53308  23205166.97408  23205176.15208
    446445.85507    347845.73006  24534720.48407  24534736.22306
 -17911664.31109 -13957088.25008  19231905.25109  19231908.31908
 -17590748.03508 -13707006.62208  20688256.30608  20688260.59608
 93 04 08 00 50 00.0000000  0  5 12 02 26 13 24
 -12889662.89608 -10043868.25808  21518125.79908  21518130.40608
 -15785763.31808 -12300562.74708  21293308.64608  21293312.50208
  -6440226.31308  -5018349.24308  23256679.96808  23256689.35308
 -17775374.42609 -13850888.25408  19257840.29309  19257843.32108
 -17935131.86008 -13975357.13308  20622721.87808  20622725.99108
 93 04 08 00 52 00.0000000  0  5 12 02 26 13 24
 -13231459.12908 -10310202.62308  21453083.89308  21453088.33308
 -15555583.62308 -12121202.04108  21337110.55408  21337114.42808
  -6169684.66808  -4807538.34208  23308162.90608  23308172.50008
 -17633138.42909 -13740054.92508  19284906.81209  19284909.84008
 -18273770.01508 -14239230.54408  20558280.83108  20558284.80708
 93 04 08 00 54 00.0000000  0  5 12 02 26 13 24
 -13569270.10708 -10573431.57408  21388800.30308  21388804.61408
 -15321332.86608 -11938669.09108  21381687.05308  21381690.90608
  -5899191.42408  -4596765.13608  23359636.67408  23359646.43508
 -17485143.50409 -13624734.13508  19313069.26009  19313072.28808
 -18606802.44108 -14498735.88008  20494906.47708  20494910.37608
 93 04 08 00 56 00.0000000  0  5 12 02 26 13 24
 -13902982.07808 -10833466.45608  21325296.69108  21325300.92708
 -15083098.51008 -11753032.03208  21427021.63108  21427025.47508
  -5628705.40508  -4385997.55308  23411108.81408  23411118.87508
 -17331608.37709 -13505096.31508  19342285.99609  19342289.00308
 -18934465.89608 -14754057.61308  20432553.89008  20432557.64808
 93 04 08 00 58 00.0000000  0  5 12 02 26 13 24
 -14232384.59508 -11090143.31808  21262613.13908  21262617.28908
 -14840939.47008 -11564336.77608  21473103.07108  21473106.89208
  -5358646.91707  -4175563.09908  23462499.68807  23462510.10608
 -17172659.52309 -13381240.01208  19372532.90109  19372535.89108
 -19256247.79308 -15004796.31408  20371320.51008  20371324.17008
 93 04 08 01 00 00.0000000  0  5 12 02 26 13 24
 -14557292.78908 -11343318.11708  21200784.87608  21200788.84508
 -14594887.84608 -11372608.35708  21519925.24708  21519929.21808
  -5089129.68307  -3965550.38208  23513787.57607  23513798.19708
 -17008446.97409 -13253282.12008  19403781.43409  19403784.41308
 -19572103.27008 -15250917.07708  20311214.91008  20311218.50508
 93 04 08 01 02 00.0000000  0  5 12 02 26 13 24
 -14877514.61408 -11592841.23408  21139848.32708  21139852.31508
 -14344489.20008 -11177492.66808  21567574.56008  21567578.57108
  -4820692.61507  -3756379.29808  23564870.14707  23564880.74108
 -16839114.40209 -13121334.58908  19436004.29509  19436007.26608
 -19882044.45208 -15492429.32408  20252234.76908  20252238.30308
 93 04 08 01 04 00.0000000  0  5 12 02 26 13 24
 -15192962.29308 -11838644.26208  21079820.34008  21079824.30608
 -14090352.25708 -10979464.03008  21615935.34808  21615939.38508
  -4553222.05207  -3547961.27008  23615768.52307  23615779.28908
 -16664910.20609 -12985590.99808  19469154.23409  19469157.16108
 -20185583.89608 -15728953.21408  20194472.84308  20194476.27108
 93 04 08 01 06 00.0000000  0  5 12 02 26 13 24
 -15503470.79308 -12080598.59908  21020732.29008  21020736.14308
 -13832247.59308 -10778343.67308  21665051.12508  21665055.25708
  -4286933.18907  -3340464.00008  23666442.06307  23666452.98808
 -16486006.75009 -12846185.66608  19503198.38109  19503201.30208
 -20482873.70308 -15960607.27308  20137900.23008  20137903.53208
 93 04 08 01 08 00.0000000  0  5 02 26 13 12 24
 -13570041.74108 -10574027.59008  21714947.34208  21714951.49108
  -4021917.13307  -3133958.54408  23716873.35407  23716884.44708
 -16302555.49809 -12703236.60608  19538107.91409  19538110.87908
 -15808853.91308 -12318559.16508  20962619.62408  20962623.36108
 -20773967.15308 -16187433.01408  20082506.68808  20082509.94808
 93 04 08 01 10 00.0000000  0  5 02 26 12 13 24
 -13304211.51408 -10366887.31808  21765533.22208  21765537.36608
  -3758525.07707  -2928718.52907  23766995.66607  23767006.76707
 -16108952.18508 -12552401.69008  20905512.60208  20905516.24808
 -16114733.62909 -12556881.87608  19573849.19309  19573852.17008
 -21058177.44408 -16408895.26608  20028423.07408  20028426.24008
 93 04 08 01 12 00.0000000  0  5 02 26 12 13 24
 -13034197.09408 -10156486.63808  21816915.35308  21816919.57808
  -3497105.77907  -2725015.75907  23816742.49407  23816753.76607
 -16403596.38808 -12781994.31608  20849443.47208  20849447.05708
 -15922706.43809 -12407250.26908  19610390.77509  19610393.67808
 -21335760.88708 -16625193.75008  19975600.46308  19975603.49708
 93 04 08 01 14 00.0000000  0  5 02 26 12 13 24
 -12760441.85208  -9943171.03608  21869009.36308  21869013.58708
  -3237333.59707  -2522596.48507  23866175.89207  23866187.30307
 -16692682.15808 -13007255.71808  20794432.11308  20794435.56908
 -15726703.64909 -12254520.79208  19647688.83409  19647691.73508
 -21607053.23508 -16836590.08808  19923975.03408  19923977.97308
 93 04 08 01 16 00.0000000  0  5 02 26 12 13 24
 -12482918.38808  -9726919.15908  21921820.51308  21921824.76908
  -2979432.71607  -2321635.40607  23915253.28007  23915264.92207
 -16976038.56008 -13228052.70508  20740510.98508  20740514.38808
 -15526885.75108 -12098818.50308  19685712.88708  19685715.79708
 -21871263.67208 -17042468.06808  19873697.22208  19873700.12708
 93 04 08 01 18 00.0000000  0  5 02 26 12 13 24
 -12201444.32308  -9507588.88108  21975383.33408  21975387.60608
  -2724394.98207  -2122905.37907  23963785.85507  23963797.50807
 -17253495.79508 -13444252.95108  20687712.42908  20687715.85108
 -15323415.18708 -11940269.97808  19724432.01408  19724434.94108
 -22128284.99408 -17242744.15508  19824787.48208  19824790.32408
 93 04 08 01 20 00.0000000  0  5 02 26 12 13 24
 -11916321.33208  -9285415.26408  22029640.48608  22029644.91708
  -2471761.84607  -1926049.07307  24011860.87407  24011872.64407
 -17524901.98908 -13655738.09808  20636065.40108  20636068.79608
 -15116465.65808 -11779010.58408  19763813.21008  19763816.07308
 -22378688.26708 -17437863.32808  19777137.14108  19777139.89908
 93 04 08 01 22 00.0000000  0  5 02 26 12 13 24
 -11627569.59308  -9060414.09408  22084588.22508  22084592.69508
  -2221808.13307  -1731280.57007  24059426.00207  24059437.85907
 -17790147.84408 -13862422.98208  20585590.60108  20585594.02008
 -14906254.43808 -11615209.61208  19803815.06308  19803817.88308
 -22622138.67908 -17627564.68808  19730809.81808  19730812.56608
 93 04 08 01 24 00.0000000  0  5 02 26 12 13 24
 -11334922.80608  -8832377.84408  22140277.21608  22140281.65008
  -1974390.41207  -1538488.02107  24106508.28007  24106520.32507
 -18049054.10808 -14064167.94608  20536322.23708  20536325.60808
 -14692924.83608 -11448978.74008  19844410.26608  19844413.16108
 -22857903.99008 -17811277.66508  19685944.98608  19685947.67208
 93 04 08 01 26 00.0000000  0  4 02 12 13 24
 -11038609.33208  -8601484.37808  22196663.82008  22196668.43008
 -18301508.78608 -14260885.72708  20488281.58108  20488284.92908
 -14476682.41308 -11280478.14308  19885559.82708  19885562.71908
 -23086582.82308 -17989468.72508  19642428.66808  19642431.29908
 93 04 08 01 28 00.0000000  0  4 02 12 13 24
 -10738879.86708  -8367929.11608  22253700.58608  22253705.21508
 -18547364.63408 -14452461.55708  20441496.60608  20441499.96708
 -14257694.37408 -11109838.09808  19927231.87308  19927234.72808
 -23308322.39508 -18162252.58208  19600232.85408  19600235.42308
 93 04 08 01 30 00.0000000  0  4 02 12 13 24
 -10435472.47808  -8131507.97108  22311437.35208  22311441.92508
 -18786477.86408 -14638783.38308  20395994.74808  20395998.02808
 -14036127.03708 -10937188.19208  19969394.69608  19969397.54308
 -23522398.45408 -18329064.88108  19559495.38608  19559497.89108
 93 04 08 01 32 00.0000000  0  4 02 12 13 24
 -10128919.98008  -7892636.12908  22369772.53508  22369777.17308
 -19018724.52308 -14819754.62108  20351799.57308  20351802.79008
 -13812163.79308 -10762671.34708  20012013.50308  20012016.26608
 -23729142.13308 -18490163.64508  19520153.18708  19520155.65808
 93 04 08 01 34 00.0000000  0  4 02 12 13 24
  -9819124.30508  -7651237.12808  22428724.87808  22428729.55908
 -19243948.65008 -14995253.75208  20308940.74708  20308943.87408
 -13585949.14108 -10586400.15608  20055060.71708  20055063.44408
 -23928541.25008 -18645539.37908  19482208.66808  19482211.06208
 93 04 08 01 36 00.0000000  0  4 02 24 12 13
  -9505838.14108  -7407118.28008  22488341.39808  22488346.14108
 -24119906.10908 -18794654.65708  19445792.96308  19445795.32108
 -19462022.12508 -15165180.96608  20267442.62308  20267445.71008
 -13357651.27608 -10408505.70408  20098504.29808  20098507.07108
 93 04 08 01 38 00.0000000  0  4 02 24 12 13
  -9189156.54708  -7160353.62408  22548604.21508  22548609.04608
 -24304016.88409 -18938117.41808  19410757.73609  19410760.01708
 -19672822.91509 -15329441.18408  20227328.47009  20227331.51708
 -13127438.84308 -10229119.41508  20142312.27508  20142315.02808
 93 04 08 01 40 00.0000000  0  5 02 20 24 12 13
  -8869252.95508  -6911078.28608  22609479.86508  22609484.75708
         0.16816        -0.18817  23947967.82916  23947974.62017
 -24480661.07809 -19075762.06708  19377143.34609  19377145.59308
 -19876195.04709 -15487912.85008  20188627.94709  20188630.94308
 -12895440.91308 -10048341.81808  20186459.98908  20186462.74008
 93 04 08 01 42 00.0000000  0  4 02 24 12 13
  -8546239.01108  -6659379.30308  22670947.43508  22670952.35208
 -24649445.79909 -19207282.45908  19345024.49409  19345026.72608
 -20072005.83809 -15640492.58708  20151366.24309  20151369.29908
 -12661803.29908  -9866286.54208  20230919.76608  20230922.52208
 93 04 08 01 44 00.0000000  0  4 02 12 13 24
  -8219995.81208  -6405164.01108  22733029.67508  22733034.51408
 -20260137.55809 -15787088.63708  20115565.86309  20115568.92208
 -12426681.74908  -9683074.95108  20275661.90608  20275664.64808
 -24810377.30509 -19332683.45708  19314400.10209  19314402.31008
 93 04 08 01 46 00.0000000  0  4 02 24 12 13
  -7890674.07608  -6148549.91708  22795697.77708  22795702.66908
 -24963606.69209 -19452082.81308  19285241.39109  19285243.56208
 -20440446.99009 -15927589.40008  20081254.03109  20081257.07108
 -12190198.04508  -9498801.94708  20320663.28308  20320666.00208
 93 04 08 01 48 00.0000000  0  6 02 20 16 12 13 24
  -7558369.80008  -5889611.76008  22858933.29808  22858938.36108
         0.14617         0.33317  23649476.97217  23649482.81017
        -0.04918        -0.07217  24023025.07818  24023037.88817
 -20612829.32909 -16061913.20408  20048450.65609  20048453.66008
 -11952506.25208  -9313587.57308  20365894.52808  20365897.28908
 -25109127.33209 -19565475.35908  19257549.61809  19257551.72608
 93 04 08 01 50 00.0000000  0  6 20 16 24 12 13 02
   -396371.35007   -308859.82907  23574049.33707  23574055.07107
   -343138.23408   -267378.11407  23957726.36708  23957738.36207
 -25246589.24909 -19672588.38008  19231391.36709  19231393.39408
 -20777182.22709 -16189980.28908  20017175.28809  20017178.24608
 -11713755.54408  -9127548.06808  20411327.24108  20411330.02608
  -7223149.70208  -5628401.52208  22922723.70908  22922728.83808
 93 04 08 01 52 00.0000000  0  6 20 16 24 12 13 02
   -794268.79007   -618909.09407  23498331.41207  23498336.87707
   -690165.91208   -537787.01707  23891687.46508  23891698.83807
 -25376274.02209 -19773641.30109  19206713.06609  19206715.07509
 -20933348.22309 -16311667.96208  19987457.79309  19987460.72908
 -11474032.80808  -8940751.14308  20456944.92508  20456947.74008
  -6885105.66008  -5364990.83608  22987051.56008  22987056.71808
 93 04 08 01 54 00.0000000  0  6 20 16 24 12 13 02
  -1193622.00407   -930092.83707  23422336.64807  23422341.85207
  -1041018.67108   -811176.56807  23824920.72408  23824931.53907
 -25498104.50809 -19868574.00909  19183529.34309  19183531.35109
 -21081220.67009 -16426893.12308  19959318.50109  19959321.39108
 -11233466.51208  -8753296.91408  20502723.21108  20502725.99908
  -6544232.04308  -5099375.26708  23051917.79208  23051923.12708
 93 04 08 01 56 00.0000000  0  6 20 16 12 13 24 02
  -1594364.90807  -1242359.50607  23346077.40007  23346082.50507
  -1395186.64908  -1087149.39607  23757523.17208  23757533.50807
 -21220706.12009 -16535582.96408  19932775.21409  19932778.06808
 -10992192.73908  -8565291.40508  20548636.07908  20548638.86208
 -25612130.63609 -19957425.40209  19161830.80209  19161832.78809
  -6200277.08508  -4831358.62608  23117370.28408  23117375.74308
 93 04 08 01 58 00.0000000  0  6 20 16 12 13 24 02
  -1996418.88208  -1555647.68707  23269568.58708  23269573.49207
  -1752780.07408  -1365791.51807  23689473.79208  23689483.71207
 -21351706.48309 -16637661.07408  19907846.61109  19907849.44708
 -10750331.98708  -8376828.49408  20594660.73808  20594663.46408
 -25718238.92209 -20040107.05409  19141639.03109  19141640.96409
  -5853691.15208  -4561291.91108  23183323.65308  23183329.07408
 93 04 08 02 00 00.0000000  0  6 20 16 12 13 24 02
  -2399742.62608  -1869925.19607  23192818.03108  23192822.72107
  -2113785.04908  -1647092.04508  23620775.18808  23620784.71008
 -21474168.80709 -16733086.17608  19884542.71309  19884545.57008
 -10508043.09808  -8188031.96308  20640766.79008  20640769.51108
 -25816153.73509 -20116404.18409  19123006.33909  19123008.21909
  -5504587.06508  -4289263.03708  23249756.19908  23249761.66008
 93 04 08 02 02 00.0000000  0  6 20 16 12 13 24 02
  -2804234.34808  -2185112.81507  23115845.27608  23115849.77507
  -2477638.86108  -1930612.34608  23551534.49508  23551543.58608
 -21587990.38109 -16821778.23608  19862883.11509  19862885.97308
 -10265427.02408  -7998980.48008  20686935.10008  20686937.82608
 -25906009.00709 -20186421.15309  19105907.30809  19105909.16409
  -5152872.51008  -4015200.09108  23316685.54508  23316691.15608
 93 04 08 02 04 00.0000000  0  6 20 16 12 24 13 02
  -3209753.64708  -2501101.25107  23038677.01108  23038681.41407
  -2844599.97808  -2216553.97308  23481702.54508  23481710.99208
 -21693035.40309 -16903631.42008  19842893.64909  19842896.45408
 -25988377.98609 -20250604.64609  19090232.93709  19090234.75209
 -10022539.88508  -7809717.78708  20733154.97008  20733157.72508
  -4798687.87208  -3739212.42608  23384084.89508  23384090.44008
 93 04 08 02 06 00.0000000  0  6 20 16 24 12 13 02
  -3616226.71808  -2817833.03608  22961327.36008  22961331.76008
  -3214580.99908  -2504848.86308  23411295.93508  23411303.96208
 -26062881.30609 -20308659.06309  19076055.33009  19076057.12109
 -21789247.09009 -16978601.47208  19824585.10009  19824587.88408
  -9779510.64508  -7620344.35908  20779401.87708  20779404.63108
  -4442229.78808  -3461453.20808  23451916.78908  23451922.49108
 93 04 08 02 08 00.0000000  0  6 20 16 24 12 02 13
  -4023578.20608  -3135249.43608  22883810.71508  22883815.10708
  -3587051.19208  -2795083.50308  23340415.77308  23340423.24808
 -26129488.69609 -20360560.80709  19063380.26209  19063382.00309
 -21876572.21609 -17046646.92608  19807967.61309  19807970.35908
  -4083553.51208  -3181965.54708  23520170.85208  23520176.55108
  -9536460.72808  -7430954.82008  20825652.71008  20825655.44208
 93 04 08 02 10 00.0000000  0  6 20 16 24 12 02 13
  -4431715.08008  -3453277.82808  22806144.55008  22806148.89908
  -3962002.40508  -3087251.51408  23269063.63708  23269070.66708
 -26188108.54609 -20406238.49709  19052225.22909  19052226.91409
 -21954952.25609 -17107722.18508  19793052.33309  19793055.03808
  -3722406.23908  -2900552.43507  23588895.26608  23588901.05707
  -9293494.96608  -7241630.85508  20871887.53808  20871890.30108
 93 04 08 02 12 00.0000000  0  6 20 16 24 12 02 13
  -4840509.34108  -3771818.37408  22728353.25908  22728357.49808
  -4339122.97108  -3381110.08908  23197298.72908  23197305.38608
 -26239034.04309 -20445920.59009  19042534.29409  19042535.99509
 -22024302.88809 -17161761.54908  19779855.22309  19779857.94608
  -3358857.01907  -2617267.65707  23658076.47707  23658082.48507
  -9050688.47208  -7052430.98508  20918092.07608  20918094.85008
 93 04 08 02 14 00.0000000  0  6 13 20 16 02 12 24
  -8808156.90808  -6863445.33308  20964244.29008  20964247.06308
  -5249880.28708  -4090808.17908  22650452.12808  22650456.14708
  -4718549.26008  -3676765.42608  23125095.21508  23125101.43608
  -2993225.13108  -2332360.01707  23727654.32408  23727660.23907
 -22084595.62609 -17208742.82008  19768381.86109  19768384.52608
 -26282181.37809 -20479541.77509  19034323.56009  19034325.21109
 93 04 08 02 16 00.0000000  0  6 13 20 16 02 24 12
  -8566028.74208  -6674774.01708  21010319.72908  21010322.43008
  -5659759.36208  -4410193.93608  22572454.39708  22572458.14908
  -5100001.33108  -3973999.44908  23052506.32208  23052512.19308
  -2625793.48907  -2046049.91107  23797574.24607  23797580.38107
 -26317643.42109 -20507174.43609  19027575.27509  19027576.89909
 -22135822.68009 -17248659.93508  19758633.59709  19758636.26708
 93 04 08 02 18 00.0000000  0  6 13 20 16 02 24 12
  -8324392.46008  -6486485.97908  21056301.62908  21056304.21808
  -6070038.58108  -4729891.55608  22494380.48408  22494384.06108
  -5483463.02008  -4272799.54508  22979535.07408  22979540.78608
  -2256412.13707  -1758220.56507  23867865.45907  23867871.46507
 -26345238.29609 -20528676.83909  19022324.06209  19022325.69609
 -22177948.66509 -17281485.30108  19750617.22009  19750619.90108
 93 04 08 02 20 00.0000000  0  6 13 20 16 02 24 12
  -8083352.40808  -6298662.52308  21102170.02008  21102172.56708
  -6480623.83008  -5049827.69608  22416248.37308  22416251.91108
  -5868507.42908  -4572833.02108  22906262.72608  22906268.10608
  -1885257.19407  -1469009.16907  23938494.16907  23938500.34807
 -26365308.04709 -20544315.50909  19018504.83209  19018506.43909
 -22210959.19109 -17307207.71108  19744335.45909  19744338.14008
 93 04 08 02 22 00.0000000  0  6 13 20 16 02 24 12
  -7842946.87908  -6111333.50008  21147917.61608  21147920.13408
  -6891357.47708  -5369879.50808  22338088.07708  22338091.52708
  -6254998.90708  -4873994.14308  22832714.93308  22832720.08508
  -1512390.17107  -1178463.64007  24009448.58307  24009454.76507
 -26377912.69009 -20554137.21309  19016106.15309  19016107.74909
 -22234788.56209 -17325775.97008  19739800.83109  19739803.45708
 93 04 08 02 24 00.0000000  0  5 13 20 16 24 12
  -7603289.05108  -5924587.08608  21193522.87208  21193525.54908
  -7302156.50608  -5689982.29808  22259915.32808  22259918.70208
  -6642939.76808  -5176284.71108  22758891.38408  22758896.38008
 -26383001.21609 -20558102.20609  19015137.74209  19015139.32609
 -22249455.49009 -17337204.67308  19737009.75809  19737012.37808
 93 04 08 02 26 00.0000000  0  5 13 20 16 24 12
  -7364439.65608  -5738470.63908  21238974.40008  21238977.05808
  -7712887.32408  -6010031.97808  22181755.57908  22181758.87508
  -7031559.96508  -5479104.72308  22684938.67708  22684943.46308
 -26380457.42209 -20556119.95409  19015621.79109  19015623.32109
 -22254935.78509 -17341474.98408  19735966.81209  19735969.46108
 93 04 08 02 28 00.0000000  0  5 13 20 16 24 12
  -7126482.41608  -5553049.37408  21284256.20508  21284258.71508
  -8123435.39608  -6329939.24808  22103630.60308  22103633.84308
  -7421343.37108  -5782831.18608  22610764.82808  22610769.34008
 -26370444.79309 -20548317.81109  19017527.06809  19017528.58209
 -22251235.89409 -17338591.89608  19736670.82909  19736673.46508
 93 04 08 02 30 00.0000000  0  5 20 13 16 24 12
  -8533701.61008  -6649626.85608  22025559.26608  22025562.50408
  -6889508.52008  -5368394.34008  21329350.65208  21329353.34808
  -7812413.71508  -6087560.46108  22536346.01008  22536350.24308
 -26353808.98809 -20535354.75809  19020692.66509  19020694.15609
 -22238386.97309 -17328579.70208  19739115.87609  19739118.48308
 93 04 08 02 32 00.0000000  0  5 20 13 16 24 12
  -8943584.87208  -6969016.02408  21947560.75808  21947563.93508
  -6653610.05708  -5184577.31608  21374240.52208  21374243.24808
  -8203980.31708  -6392676.41008  22461832.73808  22461836.70108
 -26329914.06009 -20516735.25109  19025239.58209  19025241.08609
 -22216426.91209 -17311467.92808  19743294.72009  19743297.30008
 93 04 08 02 34 00.0000000  0  5 20 13 16 24 12
  -9352903.92108  -7287965.56108  21869669.70008  21869672.75608
  -6418800.37508  -5001608.70708  21418923.29008  21418926.06608
  -8595905.54508  -6698071.84208  22387251.08208  22387254.89408
 -26298522.75209 -20492274.41609  19031213.12609  19031214.60609
 -22185325.02409 -17287232.65308  19749213.17109  19749215.74708
 93 04 08 02 36 00.0000000  0  5 20 13 16 24 12
  -9761562.69108  -7606400.62708  21791904.26308  21791907.26008
  -6185174.70408  -4819562.70808  21463380.72008  21463383.51808
  -8988027.15308  -7003620.40308  22312632.25308  22312635.93808
 -26260043.65409 -20462290.62809  19038535.41609  19038536.84109
 -22145145.38609 -17255923.80108  19756859.05809  19756861.63808
 93 04 08 02 38 00.0000000  0  5 20 13 16 24 12
 -10169378.69208  -7924179.00208  21714299.28308  21714302.12408
  -5952741.35708  -4638445.79908  21507611.35608  21507614.06108
  -9380522.88408  -7309460.59108  22237942.43108  22237945.80208
 -26214727.22709 -20426979.04909  19047158.76109  19047160.19209
 -22095873.61709 -17217530.17008  19766235.12209  19766237.67708
 93 04 08 02 40 00.0000000  0  5 20 13 16 24 12
 -10576191.55208  -8241175.69808  21636885.09608  21636887.86608
  -5721529.15008  -4458280.40508  21551609.63408  21551612.24508
  -9772725.73808  -7615072.65308  22163308.24408  22163311.51808
 -26162617.89209 -20386374.29309  19057074.73109  19057076.18309
 -22037527.97609 -17172065.99108  19777337.89209  19777340.44408
 93 04 08 02 42 00.0000000  0  5 20 13 16 24 12
 -10981858.74208  -8557279.65508  21559688.88808  21559691.55808
  -5491586.21808  -4279104.05708  21595366.13108  21595368.91108
 -10164603.78908  -7920431.68408  22088735.95408  22088739.06608
 -26103886.92609 -20340609.83509  19068250.81709  19068252.28109
 -21970155.30609 -17119567.77508  19790158.45709  19790160.99708
 93 04 08 02 44 00.0000000  0  5 20 13 16 24 12
 -11386258.15308  -8872395.73508  21482733.97808  21482736.56208
  -5262980.70608  -4100969.83508  21638868.23808  21638871.04308
 -10555930.28208  -8225360.94608  22014268.64408  22014271.73908
 -26038409.96109 -20289588.75909  19080710.61209  19080712.06309
 -21893830.86909 -17060094.16508  19804682.47409  19804685.02108
 93 04 08 02 46 00.0000000  0  5 20 13 16 24 12
 -11789235.97708  -9186404.12708  21406049.56908  21406052.11508
  -5035743.54408  -3923901.87108  21682110.01108  21682112.71708
 -10946456.17108  -8529666.36408  21939953.64808  21939956.71108
 -25966209.54009 -20233328.62809  19094449.87909  19094451.28509
 -21808606.93708 -16993685.89208  19820900.03308  19820902.57808
 93 04 08 02 48 00.0000000  0  5 20 13 16 24 12
 -12190602.36508  -9499156.89208  21329671.83408  21329674.36508
  -4809872.49008  -3747898.41608  21725091.87508  21725094.54808
 -11335936.04108  -8833156.70608  21865837.77308  21865840.73808
 -25887621.86209 -20172091.41609  19109404.56809  19109405.98309
 -21714510.60308 -16920364.05408  19838805.96708  19838808.47008
 93 04 08 02 50 00.0000000  0  5 20 13 16 24 12
 -12590115.38408  -9810465.48108  21253646.81508  21253649.34508
  -4585309.81908  -3572914.48208  21767824.68908  21767827.38108
 -11724324.77508  -9135796.83108  21791929.53608  21791932.32908
 -25802631.13209 -20105864.81509  19125577.66709  19125579.07609
 -21611522.84908 -16840113.84008  19858403.86708  19858406.37008
 93 04 08 02 52 00.0000000  0  5 20 13 16 24 12
 -12987648.44808 -10120231.21508  21177998.63308  21178001.08708
  -4362113.75608  -3398995.43508  21810297.46208  21810300.13508
 -12111377.93408  -9437396.27608  21718275.48308  21718278.07008
 -25711364.80309 -20034748.14109  19142945.07809  19142946.43309
 -21499751.29708 -16753019.10808  19879673.25708  19879675.74908
 93 04 08 02 54 00.0000000  0  5 20 13 16 24 12
 -13383085.68908 -10428363.83508  21102749.30708  21102751.56508
  -4140352.52308  -3226194.42808  21852497.14008  21852499.89808
 -12496695.10308  -9737643.02608  21644951.73708  21644954.28608
 -25613605.94709 -19958572.35609  19161547.91509  19161549.28209
 -21379322.09008 -16659178.15608  19902590.15808  19902592.67308
 93 04 08 02 56 00.0000000  0  5 20 13 16 24 12
 -13776256.47108 -10734730.41108  21027931.19908  21027933.36008
  -3920036.33508  -3054519.42308  21894421.87108  21894424.56808
 -12880110.61808 -10036408.00508  21571989.87108  21571992.36508
 -25509794.98009 -19877680.64609  19181302.40209  19181303.75409
 -21250314.70808 -16558652.91308  19927139.45108  19927141.98008
 93 04 08 02 58 00.0000000  0  6 13 16 03 24 12 20
  -3701307.37108  -2884081.22508  21936044.53008  21936047.23608
 -13261778.02808 -10333810.83908  21499360.75708  21499363.20508
        -0.34217         0.49517  24271088.62317  24271095.69017
 -25400131.72109 -19792228.71509  19202170.60209  19202171.97009
 -21112947.52708 -16451613.54408  19953279.57508  19953282.06708
 -14167120.69408 -11039299.70908  20953552.07908  20953554.13508
 93 04 08 03 00 00.0000000  0  6 13 16 03 24 12 20
  -3484075.87808  -2714809.90608  21977382.43508  21977385.03008
 -13641235.71408 -10629491.83408  21427152.05908  21427154.34408
   -298454.16907   -232559.83907  24214293.75007  24214300.70807
 -25284714.11109 -19702292.87209  19224133.78709  19224135.13209
 -20967220.27708 -16338059.84308  19981010.56108  19981013.00408
 -14555411.84508 -11341864.04108  20879662.60808  20879664.59408
 93 04 08 03 02 00.0000000  0  6 13 16 03 24 12 20
  -3268281.73508  -2546658.61108  22018446.73908  22018449.34808
 -14018259.56508 -10923276.35008  21355406.55208  21355408.84308
   -595767.70807   -464231.74707  24157716.35607  24157722.91107
 -25163635.48009 -19607945.84009  19247174.25009  19247175.57409
 -20813165.89608 -16218017.47408  20010326.11308  20010328.56108
 -14940889.93708 -11642236.38508  20806308.39408  20806310.30008
 93 04 08 03 04 00.0000000  0  6 16 13 03 24 20 12
 -14392740.07208 -11215079.09908  21284145.14908  21284147.34708
  -3053938.09408  -2379637.57308  22059234.95308  22059237.52708
   -891969.72807   -695037.62807  24101350.37007  24101356.53807
 -25036538.99409 -19508909.57509  19271359.87409  19271361.18309
 -15323392.92808 -11940290.45808  20733520.32708  20733522.18808
 -20650903.70608 -16091579.41608  20041203.60708  20041206.01308
 93 04 08 03 06 00.0000000  0  6 16 13 03 24 20 12
 -14764087.16708 -11504440.21708  21213479.94708  21213482.02408
  -2841017.58008  -2213725.45708  22099752.29008  22099754.84408
  -1187050.73407   -924970.05907  24045197.56307  24045203.61707
 -24904215.11909 -19405800.02509  19296540.24609  19296541.52409
 -15702719.11208 -12235869.08808  20661336.74108  20661338.60908
 -20480519.23408 -15958812.31108  20073626.72008  20073629.12408
 93 04 08 03 08 00.0000000  0  6 16 13 03 24 20 12
 -15132471.32608 -11791492.59508  21143378.58608  21143380.66708
  -2629551.90708  -2048946.97607  22139992.82508  22139995.39007
  -1481066.34407  -1154072.28207  23989247.69307  23989253.50107
 -24766349.92709 -19298372.56808  19322775.10209  19322776.34508
 -16078727.15408 -12528862.17008  20589784.60808  20589786.40908
 -20302167.43508 -15819836.90208  20107565.95408  20107568.34808
 93 04 08 03 10 00.0000000  0  6 16 13 03 24 20 12
 -15497706.06808 -12076090.88208  21073876.57808  21073878.60208
  -2419506.45708  -1885275.16507  22179963.29108  22179965.71807
  -1774006.98707  -1382336.94007  23933502.43107  23933507.97407
 -24623283.07609 -19186891.88008  19349999.79809  19350001.04208
 -16451210.63808 -12819108.86908  20518903.23608  20518904.97108
 -20115941.80808 -15674726.04308  20143003.52808  20143005.89608
 93 04 08 03 12 00.0000000  0  6 13 03 24 20 12 16
  -2210894.47708  -1722720.33008  22219660.69708  22219663.19608
  -2065916.40707  -1609798.08807  23877953.36507  23877958.64407
 -24474878.80808 -19071252.15608  19378240.18108  19378241.43608
 -16820013.43208 -13106487.50608  20448722.25708  20448723.96008
 -19921994.02608 -15523597.92508  20179910.58908  20179912.98708
 -15859376.68508 -12357911.95008  21005052.73408  21005054.75708
 93 04 08 03 14 00.0000000  0  6 13 03 24 20 12 16
  -2003699.17608  -1561269.40908  22259088.57508  22259091.05608
  -2356814.10807  -1836470.85707  23822596.58207  23822601.93807
 -24321147.34008 -18951461.36408  19407494.28008  19407495.50008
 -17184952.73008 -13390855.62008  20379276.48008  20379278.17908
 -19720454.30808 -15366554.01808  20218262.29008  20218264.78108
 -16217211.89308 -12636744.37408  20936958.91308  20936960.88708
 93 04 08 03 16 00.0000000  0  6 13 03 24 20 12 16
  -1797879.66608  -1400890.54908  22298254.70908  22298257.25008
  -2646694.33607  -2062350.87007  23767433.70607  23767438.93407
 -24162765.50108 -18828046.91008  19437633.32408  19437634.50208
 -17545819.77808 -13672050.53808  20310605.67808  20310607.25308
 -19511432.10808 -15203679.60608  20258037.86808  20258040.38908
 -16571147.64708 -12912538.28808  20869607.01108  20869608.94308
 93 04 08 03 18 00.0000000  0  6 13 03 24 20 12 16
  -1593417.96308  -1241569.70508  22337162.48908  22337164.90308
  -2935581.06907  -2287456.78907  23712459.93007  23712465.02307
 -23999416.31408 -18700761.80008  19468717.59608  19468718.79708
 -17902433.72208 -13949931.34408  20242744.18108  20242745.68108
 -19295070.30608 -15035086.02508  20299210.16208  20299212.69008
 -16920875.57508 -13185053.37608  20803055.83108  20803057.74008
 93 04 08 03 20 00.0000000  0  6 13 03 20 12 16 24
  -1390348.91008  -1083334.03008  22375805.18008  22375807.68408
  -3223554.85207  -2511851.34607  23657660.03007  23657664.81707
 -18254669.23108 -14224400.38108  20175715.83008  20175717.34908
 -19071572.02108 -14860931.55808  20341740.49108  20341743.00408
 -17266432.99908 -13454318.70708  20737298.38008  20737300.16808
 -23831431.51408 -18569864.52608  19500684.02708  19500685.26408
 93 04 08 03 22 00.0000000  0  6 13 03 20 12 16 24
  -1188620.30308   -926142.87408  22414192.78808  22414195.34908
  -3510612.16607  -2735531.80707  23603034.50507  23603039.00007
 -18602314.52508 -14495292.63908  20109560.97708  20109562.40608
 -18841059.19508 -14681311.21508  20385605.69008  20385608.13908
 -17607275.73608 -13719910.28108  20672438.01508  20672439.74908
 -23658860.05708 -18435393.23808  19533523.29008  19533524.48908
 93 04 08 03 24 00.0000000  0  5 13 03 12 16 24
   -988200.83408   -769971.81507  22452331.26308  22452333.77007
  -3796772.11108  -2958513.04607  23548579.61808  23548584.02707
 -18603679.88508 -14496340.37108  20430777.57008  20430780.00308
 -17943304.80508 -13981750.97008  20608493.68908  20608495.27508
 -23481708.06208 -18297352.69808  19567234.16708  19567235.33408
 93 04 08 03 26 00.0000000  0  6 13 03 20 12 16 24
   -789060.01008   -614797.10907  22490226.50308  22490228.95907
  -4082059.41508  -3180814.33307  23494290.96608  23494295.10707
        -0.35318        -0.56918  19980014.71418  19980016.15618
 -18359591.43408 -14306141.63408  20477226.11408  20477228.54508
 -18274462.35008 -14239795.67208  20545476.38308  20545477.96408
 -23300300.34908 -18155996.01508  19601754.85308  19601756.06008
 93 04 08 03 28 00.0000000  0  5 13 03 12 16 24
   -591197.90108   -460618.81707  22527878.32408  22527880.88207
  -4366532.94408  -3402481.55207  23440156.92208  23440161.12107
 -18108986.74508 -14110865.32408  20524914.65608  20524917.11608
 -18600460.38608 -14493819.97408  20483440.84808  20483442.46608
 -23114621.68208 -18011311.32108  19637088.36408  19637089.54108
 93 04 08 03 30 00.0000000  0  5 13 03 12 16 24
   -394571.77108   -307403.61707  22565295.01608  22565297.44207
  -4650208.65408  -3623527.13508  23386174.95508  23386178.97908
 -17852019.97208 -13910631.53308  20573813.81808  20573816.29808
 -18921103.66508 -14743671.74708  20422424.31208  20422425.97908
 -22925010.90408 -17863562.64308  19673170.08708  19673171.24208
 93 04 08 03 32 00.0000000  0  5 13 03 12 16 24
   -199210.12008   -155173.69707  22602470.98708  22602473.60007
  -4933180.92608  -3844024.64308  23332326.83508  23332330.81508
 -17588926.77908 -13705623.92008  20623878.81608  20623881.37908
 -19236317.21508 -14989292.56808  20362441.06608  20362442.71808
 -22731244.62208 -17712575.91408  19710042.55008  19710043.71508
 93 04 08 03 34 00.0000000  0  6 13 03 20 12 16 24
     -5110.41808     -3927.11807  22639406.85208  22639409.45107
  -5215510.00608  -4064021.02908  23278601.08608  23278605.15908
         0.32018        -0.06118  19732857.21618  19732858.55018
 -17319910.82908 -13496001.19108  20675070.93408  20675073.51408
 -19545627.11808 -15230313.13808  20303581.23708  20303582.88308
 -22533893.51308 -17558795.82008  19747597.20908  19747598.36208
 93 04 08 03 36 00.0000000  0  6 13 03 20 12 16 24
    187758.67608    146360.51307  22676108.72008  22676111.13907
  -5497236.64208  -4283548.03008  23224990.29108  23224994.18508
   -310751.07608   -242143.88308  19673723.11108  19673724.42108
 -17045158.11708 -13281908.28408  20727354.75708  20727357.34408
 -19849194.15108 -15466858.76008  20245814.28008  20245815.91608
 -22333120.67608 -17402349.44708  19785803.02808  19785804.15008
 93 04 08 03 38 00.0000000  0  6 13 03 20 12 16 24
    379465.75908    295742.64807  22712589.29808  22712591.83507
  -5778359.11508  -4502604.27708  23171494.17008  23171498.23308
   -615556.76008   -479654.68808  19615720.41408  19615721.69008
 -16764815.26708 -13063459.39208  20780702.30508  20780704.85308
 -20146819.71908 -15698774.68308  20189177.92908  20189179.56108
 -22128703.87608 -17243063.63008  19824702.26008  19824703.39208
 93 04 08 03 40 00.0000000  0  6 13 03 20 12 16 24
    570074.84708    444269.17507  22748861.02708  22748863.61407
  -6058884.85408  -4721195.55008  23118111.76208  23118115.62208
   -914217.96908   -712377.59608  19558886.96708  19558888.26908
 -16479040.29208 -12840777.65808  20835083.47608  20835086.10008
 -20438145.59208 -15925781.75708  20133740.32208  20133741.94508
 -21920706.68208 -17080987.89208  19864282.73208  19864283.85708
 93 04 08 03 42 00.0000000  0  6 13 03 20 12 16 24
    759630.95608    591975.20407  22784932.47208  22784934.91607
  -6338850.08908  -4939350.04608  23064835.94108  23064839.64208
  -1206567.06108   -940181.98308  19503254.72708  19503255.97708
 -16188022.45108 -12614010.58208  20890462.43008  20890465.03608
 -20723268.98908 -16147955.72708  20079483.12908  20079484.63208
 -21709336.22608 -16916283.63308  19904505.20708  19904506.28508
 93 04 08 03 44 00.0000000  0  7 13 03 17 20 12 16 24
    948069.06508    738810.08607  22820790.98608  22820793.44807
  -6618393.77708  -5157176.04708  23011640.25708  23011644.00408
         0.45917        -0.09417  23713032.28617  23713037.45817
  -1492539.21508  -1163017.34408  19448835.96208  19448837.20108
 -15892054.67208 -12383386.45008  20946783.34108  20946785.91208
 -21001748.01608 -16364952.27408  20026490.24808  20026491.69508
 -21495053.50308 -16749310.07808  19945281.86308  19945282.97808
 93 04 08 03 46 00.0000000  0  7 12 13 03 17 20 16 24
 -15591231.58708 -12148978.96508  21004028.09408  21004030.77608
   1135528.50007    884882.36207  22856463.29107  22856465.83307
  -6897453.90208  -5374625.22308  22958536.77408  22958540.44308
   -441946.96307   -344373.58207  23628931.64107  23628936.52307
  -1771871.28908  -1380678.61108  19395680.75808  19395681.99008
 -21273539.52108 -16576737.77108  19974769.97808  19974771.46808
 -21277556.58708 -16579831.96008  19986670.14008  19986671.26808
 93 04 08 03 48 00.0000000  0  7 12 13 03 17 20 16 24
 -15285691.08308 -11910895.52808  21062170.56108  21062173.29108
   1322109.78007   1030270.34607  22891968.59607  22891971.09807
  -7176010.10508  -5591681.70008  22905529.12808  22905532.66108
   -881874.31207   -687173.08707  23545215.40907  23545220.12907
  -2044345.21908  -1592995.87208  19343830.64008  19343831.81508
 -21538393.38508 -16783117.31508  19924369.94208  19924371.35708
 -21057427.77408 -16408303.01408  20028559.25308  20028560.41008
 93 04 08 03 50 00.0000000  0  7 12 13 03 17 20 16 24
 -14975610.81508 -11669274.59508  21121176.94308  21121179.65208
   1507878.02407   1175024.78307  22927319.17607  22927321.59407
  -7454080.02608  -5808359.26508  22852613.87308  22852617.40708
  -1319913.56707  -1028501.48107  23461858.72207  23461863.17607
  -2309784.05308  -1799831.23008  19293319.23008  19293320.39508
 -21795863.07908 -16983742.96508  19875374.97508  19875376.42208
 -20834254.65908 -16234401.88708  20071027.66208  20071028.86808
 93 04 08 03 52 00.0000000  0  7 12 13 03 17 20 16 24
 -14661169.88208 -11424255.74708  21181013.10708  21181015.80808
   1692897.78207   1319195.97307  22962527.32807  22962529.73307
  -7731681.06208  -6024671.48808  22799787.95708  22799791.40108
  -1756276.16807  -1368523.52507  23378821.13207  23378825.42307
  -2568011.78608  -2001047.54608  19244180.06208  19244181.20708
 -22046005.88808 -17178659.35608  19827774.33708  19827775.71408
 -20608221.61308 -16058272.24408  20114040.33108  20114041.48608
 93 04 08 03 54 00.0000000  0  7 12 13 03 17 20 16 24
 -14342622.33608 -11176036.94608  21241630.78108  21241633.42308
   1877163.79407   1462779.83707  22997592.03607  22997594.48907
  -8008904.93308  -6240689.84608  22747033.80008  22747037.15808
  -2190395.19307  -1706797.39307  23296210.53307  23296214.49007
  -2818929.17008  -2196567.50708  19196432.02408  19196433.10208
 -22288931.77108 -17367952.16608  19781547.03308  19781548.36108
 -20379562.99208 -15880096.70008  20157552.61608  20157553.78608
 93 04 08 03 56 00.0000000  0  7 12 13 03 17 20 16 24
 -14020185.95808 -10924787.89308  21302988.48108  21302991.15908
   2060706.88107   1605800.36807  23032519.10407  23032521.66107
  -8285804.53008  -6456455.57408  22694341.43208  22694344.75308
  -2622298.67808  -2043344.88607  23214021.56308  23214025.18107
  -3062403.68508  -2386287.84308  19150100.33208  19150101.35308
 -22524085.73208 -17551188.94308  19736798.68508  19736800.00108
 -20148332.20008 -15699916.87608  20201554.35608  20201555.51208
 93 04 08 03 58 00.0000000  0  7 12 13 03 17 20 16 24
 -13694103.69208 -10670697.88908  21365039.84508  21365042.59708
   2243536.03207   1748264.55507  23067310.38807  23067312.86207
  -8562456.94808  -6672028.68608  22641696.01308  22641699.42108
  -3051936.30408  -2378126.80507  23132263.71908  23132267.28007
  -3298329.21409  -2570125.86908  19105205.19709  19105206.16808
 -22751434.62808 -17728343.85808  19693535.56408  19693536.80808
 -19914993.57008 -15518094.58308  20245957.20808  20245958.39108
 93 04 08 04 00 00.0000000  0  7 12 13 03 17 20 16 24
 -13364625.37508 -10413961.61808  21427737.51008  21427740.28108
   2425654.43907   1890174.91507  23101966.48007  23101968.80107
  -8838945.41408  -6887474.03708  22589081.84908  22589085.27308
  -3479445.48207  -2711250.20907  23050910.78807  23050914.30007
  -3526611.34909  -2748007.99408  19061764.48709  19061765.47408
 -22971232.10808 -17899614.55408  19651709.45808  19651710.66708
 -19679314.99608 -15334448.95808  20290805.37708  20290806.59008
 93 04 08 04 02 00.0000000  0  7 12 13 03 17 20 16 24
 -13031886.76808 -10154684.87808  21491055.62308  21491058.40208
   2607183.34907   2031625.93507  23136510.31107  23136512.80807
  -9115237.03108  -7102766.00008  22536505.14408  22536508.54408
  -3904606.21407  -3042543.68307  22970004.94007  22970008.32407
  -3747043.28009  -2919773.08008  19019817.65709  19019818.61808
 -23182970.52008 -18064605.46608  19611416.87908  19611418.16608
 -19441451.70908 -15149100.94708  20336069.30208  20336070.49508
 93 04 08 04 04 00.0000000  0  7 12 13 03 17 20 16 24
 -12695999.15208  -9892954.37008  21554972.95808  21554975.75308
   2788266.55307   2172729.65207  23170969.38207  23170971.90907
  -9391274.19708  -7317859.71508  22483976.94708  22483980.20308
  -4327500.94607  -3372071.49708  22889530.47607  22889533.60908
  -3959396.86309  -3085243.35408  18979408.07309  18979409.02908
 -23386590.09408 -18223270.00908  19572669.34108  19572670.59908
 -19201811.67908 -14962368.45608  20381671.28308  20381672.44408
 93 04 08 04 06 00.0000000  0  7 12 13 03 17 20 16 24
 -12357259.29508  -9629001.33408  21619433.09208  21619435.90308
   2968865.20907   2313455.76107  23205336.33907  23205338.93107
  -9667183.11908  -7532853.51308  22431473.15508  22431476.33808
  -4747924.28608  -3699673.63908  22809526.26808  22809529.23808
  -4163635.08009  -3244389.96508  18940542.78609  18940543.74908
 -23582142.44008 -18375648.40008  19535456.89608  19535458.13408
 -18960381.33008 -14774240.90608  20427613.92708  20427615.08508
 93 04 08 04 08 00.0000000  0  6 12 03 17 20 16 24
 -12015896.09408  -9363004.14708  21684392.45408  21684395.25608
  -9943021.93008  -7747792.67308  22378982.64208  22378985.72308
  -5165653.69308  -4025176.68208  22730034.79108  22730037.60008
  -4359654.67509  -3397132.46508  18903241.44609  18903242.43208
 -23769199.59108 -18521407.15908  19499861.05208  19499862.28108
 -18716834.01308 -14584463.77808  20473959.45808  20473960.58508
 93 04 08 04 10 00.0000000  0  6 12 03 17 20 16 24
 -11672120.29008  -9095127.02208  21749810.91308  21749813.76108
 -10218829.64408  -7962707.56108  22326497.84908  22326501.07908
  -5580759.19108  -4348635.16408  22651042.45008  22651045.32708
  -4547341.60109  -3543381.98308  18867525.80109  18867526.76208
 -23947562.34808 -18660391.06608  19465919.69408  19465920.93908
 -18471629.22708 -14393395.11808  20520620.40008  20520621.50408
 93 04 08 04 12 00.0000000  0  6 12 03 17 20 16 24
 -11326138.03108  -8825530.57308  21815649.24608  21815652.02808
 -10494638.90908  -8177623.60408  22274012.85408  22274016.09208
  -5993469.68108  -4670227.45208  22572506.03608  22572508.89608
  -4726578.35409  -3683046.96108  18833418.16009  18833419.09408
 -24117674.25508 -18792945.73608  19433548.40108  19433549.62808
 -18225118.64708 -14201308.95508  20567529.75508  20567530.91108
 93 04 08 04 14 00.0000000  0  7 12 13 20 16 03 24 17
 -10978134.62108  -8554359.18808  21881872.12108  21881875.02208
        -0.27617        -0.42016  23342043.93117  23342046.64816
  -4897236.92009  -3816027.64008  18800942.89609  18800943.79708
 -24279226.41608 -18918830.48008  19402806.02808  19402807.25908
 -10770462.16308  -8392550.61608  22221525.45008  22221528.45808
 -17977082.60108 -14008034.11308  20614729.48508  20614730.60208
  -6403297.30508  -4989573.40208  22494518.25008  22494520.97208
 93 04 08 04 16 00.0000000  0  7 20 12 13 16 03 24 17
  -5059217.86409  -3942246.52908  18770118.91009  18770119.84808
 -10628321.83508  -8281777.90708  21948439.38208  21948442.35108
    178896.79507    139399.73606  23376087.07107  23376089.66306
 -24431640.41808 -19037594.58008  19373802.56008  19373803.72408
 -11046336.81908  -8607517.71308  22169028.08008  22169031.01008
 -17727494.68908 -13813550.01908  20662224.51208  20662225.55408
  -6809933.67708  -5306432.69308  22417137.74508  22417140.32808
 93 04 08 04 18 00.0000000  0  8 20 12 13 16 03 24 17 25
  -5212357.60609  -4061576.17208  18740977.36309  18740978.29708
 -10276841.88408  -8007897.52508  22015323.90408  22015326.88008
    357689.96407    278718.98606  23410110.39507  23410112.89006
 -24575661.09608 -19149818.42708  19346396.32308  19346397.45608
 -11322230.54508  -8822499.68208  22116527.02808  22116530.01808
 -17476835.32608 -13618231.02508  20709923.43308  20709924.50108
  -7213673.97508  -5621035.30108  22340308.34708  22340310.81108
        -0.03717         0.25116  23299957.78317  23299960.42016
 93 04 08 04 20 00.0000000  0  8 20 12 13 16 03 24 17 25
  -5356615.67809  -4173985.03108  18713525.95209  18713526.86308
  -9923951.65408  -7732918.22208  22082476.80708  22082479.73208
    536383.13607    417960.28606  23444114.69607  23444117.30906
 -24710856.01508 -19255165.06408  19320669.54808  19320670.70508
 -11598223.84408  -9037559.22508  22064007.14008  22064010.05808
 -17225033.16108 -13422021.55308  20757839.76008  20757840.90608
  -7614705.94608  -5933527.54308  22263994.36508  22263996.72608
   -149856.02707   -116770.65907  23271441.04007  23271443.87507
 93 04 08 04 22 00.0000000  0  8 20 12 13 16 03 24 17 25
  -5491894.07309  -4279396.74408  18687783.27809  18687784.20108
  -9569846.24108  -7456992.01608  22149860.90208  22149863.86408
    715042.78007    557175.52206  23478112.55507  23478115.11106
 -24836688.53308 -19353216.32508  19296724.35008  19296725.51408
 -11874335.95208  -9252711.32608  22011464.58508  22011467.50408
 -16971809.44308 -13224704.37708  20806026.55708  20806027.77508
  -8012537.46108  -6243525.90908  22188289.42208  22188291.79808
   -291867.43107   -227428.80207  23244416.96807  23244420.09307
 93 04 08 04 24 00.0000000  0  7 12 03 20 16 17 25 24
  -9214645.30308  -7180212.17708  22217453.47508  22217456.44108
 -12150509.54308  -9467911.31008  21958910.42208  21958913.25608
  -5618027.51909  -4377682.51708  18663780.84209  18663781.76908
 -24953593.04908 -19444310.71008  19274478.12608  19274479.22308
  -8407212.67408  -6551064.82308  22113185.02208  22113187.34708
   -426051.03407   -331987.44707  23218882.58307  23218885.62007
 -16717440.81508 -13026495.08208  20854431.31308  20854432.58108
 93 04 08 04 26 00.0000000  0  7 12 03 20 16 17 25 24
  -8858586.45908  -6902763.83508  22285209.18408  22285212.28108
 -12426806.14408  -9683207.11008  21906332.79908  21906335.50208
  -5734974.24409  -4468809.81108  18641526.62709  18641527.56308
 -25061537.69608 -19528423.38208  19253936.92708  19253938.02308
  -8798859.17808  -6856243.68708  22038656.94708  22038659.37808
   -552654.53906   -430639.39807  23194790.65506  23194793.69407
 -16462442.98408 -12827795.49608  20902955.73408  20902957.03408
 93 04 08 04 28 00.0000000  0  7 12 03 20 16 17 25 24
  -8501870.97008  -6624803.81108  22353089.90508  22353093.05908
 -12703248.52208  -9898616.46508  21853727.22408  21853729.90008
  -5842665.08109  -4552724.73008  18621033.74609  18621034.65908
 -25160157.50108 -19605269.93408  19235170.16708  19235171.23308
  -9186912.49108  -7158622.65608  21964812.61808  21964815.04808
   -671395.41507   -523164.57907  23172195.03907  23172197.89507
 -16206505.97808 -12628364.08508  20951658.97908  20951660.24708
 93 04 08 04 30 00.0000000  0  7 24 12 20 16 03 17 25
 -15950077.47408 -12428549.68508  21000455.76208  21000456.95608
  -8144811.82208  -6346576.01408  22421036.02908  22421039.27508
  -5941148.72209  -4629465.21408  18602292.93009  18602293.82108
 -25249532.00308 -19674912.36608  19218162.68508  19218163.72508
 -12979971.78608 -10114244.70808  21801068.43208  21801070.92108
  -9572045.16708  -7458725.81608  21891524.20508  21891526.57908
   -782509.42507   -609746.75007  23151050.72707  23151053.32207
 93 04 08 04 32 00.0000000  0  7 12 03 20 16 24 17 25
  -7787576.52408  -6068210.94308  22489015.72508  22489018.99608
 -13256964.77208 -10330083.17108  21748358.29008  21748360.65108
  -6030334.71209  -4698960.78108  18585321.41409  18585322.25908
 -25329779.54208 -19737442.87908  19202892.05608  19202893.09308
 -15692896.99408 -12228149.32408  21049395.62408  21049396.72808
  -9953913.85008  -7756285.62608  21818856.75308  21818859.20208
   -885917.62607   -690324.40607  23131372.60707  23131375.30907
 93 04 08 04 34 00.0000000  0  7 12 03 20 16 24 17 25
  -7430353.06908  -5789855.12708  22556993.23708  22556996.49008
 -13534236.58308 -10546138.92108  21695595.05808  21695597.47208
  -6110162.23109  -4761164.04108  18570130.73809  18570131.59308
 -25400669.44308 -19792681.72808  19189402.19008  19189403.24908
 -15435030.41408 -12027214.33808  21098465.97108  21098467.11008
 -10332420.98408  -8051226.07808  21746829.10108  21746831.53308
   -981717.64207   -764973.63307  23113142.24607  23113145.12307
 93 04 08 04 36 00.0000000  0  7 12 20 16 03 24 17 25
  -7073274.11908  -5511611.91708  22624943.14908  22624946.45808
  -6180523.16709  -4815990.74608  18556741.47609  18556742.35608
 -25462301.76508 -19840706.88208  19177673.93908  19177674.99508
 -13811740.93808 -10762375.91508  21642787.60708  21642789.98508
 -15176912.74808 -11826083.70608  21147584.09608  21147585.32808
 -10707611.59708  -8343582.23008  21675432.62308  21675434.92208
  -1069901.13107   -833687.87107  23096361.32407  23096364.08507
 93 04 08 04 38 00.0000000  0  7 12 20 16 03 24 17 25
  -6716627.80708  -5233705.84508  22692810.85008  22692814.23208
  -6241471.79009  -4863483.18908  18545143.34209  18545144.21008
 -25514769.85708 -19881591.06308  19167689.58108  19167690.59908
 -14089585.52008 -10978877.99108  21589915.46508  21589917.65708
 -14918408.98608 -11624652.21508  21196775.77508  21196777.03608
 -11079306.32608  -8633214.31908  21604701.48308  21604703.50708
  -1150479.50807   -896476.03707  23081027.81107  23081030.47207
 93 04 08 04 40 00.0000000  0  7 12 03 20 16 24 17 25
  -6360655.62708  -4956325.11408  22760550.32108  22760553.60808
 -14367832.48208 -11195693.60108  21536966.65308  21536968.75008
  -6293026.34809  -4903655.58108  18535332.84009  18535333.70308
 -25557972.70308 -19915255.57108  19159468.33208  19159469.35808
 -14659376.76508 -11422808.94308  21246067.97308  21246069.24808
 -11447670.65708  -8920251.30708  21534603.92108  21534605.92408
  -1223644.72307   -953487.75907  23067104.79707  23067107.14607
 93 04 08 04 42 00.0000000  0  7 12 20 16 03 24 17 25
  -6005509.21208  -4679587.82008  22828132.57108  22828135.95108
  -6335122.69209  -4936457.93808  18527322.18109  18527323.05308
 -25592161.69708 -19941896.29908  19152962.31408  19152963.29008
 -14646452.12108 -11412799.61208  21483946.89208  21483949.04908
 -14400269.24408 -11220907.00508  21295374.54908  21295375.78008
 -11812614.02908  -9204622.60608  21465157.30908  21465159.35508
  -1289610.51207  -1004889.53307  23054551.87107  23054554.16507
 93 04 08 04 44 00.0000000  0  7 12 20 16 03 24 17 25
  -5651390.58208  -4403651.44708  22895519.22308  22895522.72408
  -6367753.69309  -4961884.70508  18521112.70909  18521113.59008
 -25616888.37708 -19961163.78308  19148256.96508  19148257.92208
 -14925466.04608 -11630212.86708  21430852.15308  21430854.31008
 -14141332.85308 -11019138.41008  21344648.55608  21344649.74508
 -12174203.30608  -9486380.30408  21396349.00708  21396351.02208
  -1347732.88407  -1050179.59707  23043491.46207  23043493.76307
 93 04 08 04 46 00.0000000  0  7 20 12 16 03 24 17 25
  -6390905.72009  -4979925.25608  18516707.05209  18516707.93008
  -5298484.53508  -4128659.92607  22962675.15808  22962678.66807
 -25632233.13408 -19973120.69008  19145336.95108  19145337.87208
 -15204877.58808 -11847935.97708  21377681.78508  21377683.91308
 -13882277.37208 -10817277.03008  21393945.17108  21393946.40808
 -12532233.93608  -9765365.01408  21328217.83308  21328219.89808
  -1398512.20007  -1089747.85207  23033828.17007  23033830.92307
 93 04 08 04 48 00.0000000  0  8 20 12 26 16 03 24 17 25
  -6404629.28609  -4990618.95809  18514095.56409  18514096.43409
  -4947030.43108  -3854799.80507  23029554.83808  23029558.33007
        -0.35317        -0.84617  23191013.48117  23191015.94417
 -25638690.17108 -19978152.10108  19144108.18508  19144109.07408
 -15484745.25408 -12066014.53108  21324424.53608  21324426.70108
 -13622937.65108 -10615194.16808  21443295.96408  21443297.13708
 -12886725.81608 -10041592.25908  21260760.13708  21260762.14608
  -1442138.70807  -1123742.54707  23025526.40307  23025528.89907
 93 04 08 04 50 00.0000000  0  8 20 12 26 16 03 24 17 25
  -6408857.98009  -4993914.05909  18513290.86909  18513291.74909
  -4597145.28307  -3582162.27207  23096135.80207  23096139.47207
   -327462.72707   -255165.82008  23128699.21607  23128701.37308
 -25635773.22208 -19975879.12408  19144663.21108  19144664.10208
 -15765003.31908 -12284397.28908  21271093.16908  21271095.15408
 -13363740.65508 -10413222.52108  21492619.56408  21492620.76308
 -13237499.34508 -10314922.08508  21194010.05308  21194011.95608
  -1478656.21407  -1152197.77107  23018577.50807  23018579.94407
 93 04 08 04 52 00.0000000  0  8 03 20 12 26 16 24 17 25
 -16045625.83708 -12503064.04008  21217692.31208  21217694.38808
  -6403575.36909  -4989797.75109  18514296.10709  18514297.04109
  -4248984.84907  -3310868.74207  23162388.76107  23162392.55007
   -657078.37508   -512008.71708  23065975.03908  23065977.21908
 -25623676.29808 -19966452.93308  19146965.17008  19146966.05308
 -13104791.83008 -10211444.25908  21541895.87608  21541897.11408
 -13584850.47408 -10585585.12308  21127911.24708  21127913.10208
  -1507812.78807  -1174917.15507  23013029.07007  23013031.62107
 93 04 08 04 54 00.0000000  0  8 20 12 26 16 03 24 17 25
  -6388806.29609  -4978289.40009  18517106.54909  18517107.54809
  -3902737.64307  -3041066.06607  23228277.58207  23228281.45807
   -988943.99607   -770604.91808  23002822.80907  23002824.88708
 -25602612.55808 -19950039.61308  19150973.41508  19150974.33208
 -16326618.61708 -12722019.31708  21164220.94008  21164223.06108
 -12846128.61308 -10009888.52808  21591117.84908  21591119.16508
 -13928327.77008 -10853229.59108  21062549.49208  21062551.35308
  -1529706.37907  -1191977.03207  23008862.88207  23008865.25007
 93 04 08 04 56 00.0000000  0  8 03 24 20 12 26 16 25 17
 -16607948.69008 -12941237.43108  21110685.56108  21110687.59908
 -12587406.31608  -9808286.73508  21640351.05108  21640352.29908
  -6364546.58409  -4959385.75008  18521723.06809  18521723.99908
  -3558553.58207  -2772871.05807  23293773.91607  23293777.99507
  -1323087.48507  -1030976.12708  22939237.02307  22939239.02608
 -25572383.72008 -19926484.66808  19156725.71408  19156726.67108
  -1544544.56207  -1203539.22607  23006039.06907  23006041.59307
 -14268163.07408 -11118036.16908  20997880.90408  20997882.66908
 93 04 08 04 58 00.0000000  0  8 03 24 20 12 26 16 25 17
 -16889621.55408 -13160722.66708  21057084.95408  21057086.92208
 -12329125.55008  -9607028.99508  21689500.32108  21689501.51408
  -6330839.38609  -4933120.42008  18528137.36009  18528138.24708
  -3216621.24607  -2506430.68807  23358841.86507  23358845.99907
  -1658798.23907  -1292568.61908  22875353.17607  22875355.06708
 -25532917.74308 -19895731.94808  19164235.87908  19164236.81008
  -1552342.92507  -1209615.80607  23004555.19207  23004557.60207
 -14604463.45908 -11380088.28308  20933884.97008  20933886.74308
 93 04 08 05 00 00.0000000  0  8 24 20 12 26 16 25 03 17
 -12071132.87208  -9405995.74908  21738594.70208  21738595.80208
  -6287751.56209  -4899545.52608  18536336.73109  18536337.61508
  -2877144.26607  -2241903.64607  23423442.63307  23423446.64707
  -1996188.36107  -1555469.74108  22811149.69907  22811151.49708
 -25484440.14608 -19857957.17108  19173460.89908  19173461.78808
  -1553457.71307  -1210484.41307  23004343.12507  23004345.46707
 -17171657.01008 -13380490.43808  21003415.32408  21003417.31108
 -14937026.40208 -11639228.11808  20870600.28808  20870601.99608
 93 04 08 05 02 00.0000000  0  8 24 20 12 26 16 03 17 25
 -11813443.97408  -9205199.21008  21787631.28208  21787632.48108
  -6235350.78509  -4858713.78008  18546308.30009  18546309.17708
  -2540316.50007  -1979440.95107  23487539.23807  23487543.45107
  -2334952.62307  -1819441.65508  22746684.55607  22746686.53008
 -25427067.88308 -19813251.48508  19184378.51008  19184379.38208
 -17454065.41608 -13600548.80608  20949674.67708  20949676.67908
 -15266027.85508 -11895592.76608  20807993.24708  20807994.93908
  -1547736.30907  -1206026.13207  23005431.59207  23005433.99707
 93 04 08 05 04 00.0000000  0  8 24 20 12 26 16 03 17 25
 -11556123.23708  -9004689.57808  21836597.69808  21836599.03108
  -6173653.24009  -4810637.79608  18558048.96409  18558049.85408
  -2206272.61107  -1719147.63507  23551106.08107  23551110.53807
  -2675308.64307  -2084653.88608  22681916.87507  22681918.85808
 -25361020.11608 -19761785.67208  19196946.87708  19196947.81208
 -17736797.12508 -13820859.10408  20895872.59808  20895874.53908
 -15591166.75308 -12148947.62708  20746121.28608  20746122.94408
  -1534931.81907  -1196048.58007  23007868.19407  23007870.45707
 93 04 08 05 06 00.0000000  0  8 24 20 12 26 16 03 17 25
 -11299246.75508  -8804526.11808  21885479.69408  21885481.11708
  -6102755.59709  -4755392.90508  18571540.33109  18571541.28308
  -1875217.67107  -1461183.55707  23614104.31507  23614109.04207
  -3016699.58707  -2350672.56508  22616952.20107  22616953.99908
 -25286083.50308 -19703393.48108  19211206.75808  19211207.73408
 -18019872.90708 -14041437.50408  20842004.99308  20842006.88008
 -15912529.87408 -12399360.30808  20684967.79808  20684969.37108
  -1515756.04407  -1181106.35907  23011517.23007  23011519.45307
 93 04 08 05 08 00.0000000  0  7 26 20 16 24 03 17 25
  -3359015.59507  -2617412.04808  22551811.60107  22551813.07008
  -6022713.66009  -4693022.60208  18586771.83009  18586772.80708
 -25202210.38108 -19638037.77508  19227167.27708  19227168.22308
 -11043078.70908  -8604914.68008  21934226.92708  21934228.26208
 -18303264.34508 -14262261.87108  20788077.23608  20788079.17608
 -16230147.18908 -12646854.15808  20624527.15108  20624528.67008
  -1490366.90507  -1161322.57507  23016348.94407  23016350.91507
 93 04 08 05 10 00.0000000  0  8 23 20 26 16 03 24 17 25
        -0.71717        -0.50817  23122023.12317  23122026.11917
  -5933621.43409  -4623600.12608  18603725.53709  18603726.52008
  -3702337.57307  -2884935.44708  22486479.42307  22486480.98908
 -25109951.26408 -19566147.53208  19244723.58208  19244724.51908
 -18586971.22308 -14483332.03608  20734089.50408  20734091.39508
 -10787766.71108  -8405970.27108  21982811.25508  21982812.42908
 -16543947.12908 -12891373.43708  20564812.85808  20564814.41108
  -1458619.33607  -1136584.12607  23022390.06507  23022392.36307
 93 04 08 05 12 00.0000000  0  8 23 20 26 16 03 24 17 25
   -485065.49707   -377972.57607  23029718.00307  23029720.85807
  -5835575.62409  -4547200.82908  18622383.07309  18622384.05108
  -4046346.56807  -3152994.15708  22421016.38707  22421017.98408
 -25009332.61508 -19487743.38208  19263870.70708  19263871.58708
 -18870988.08908 -14704643.75608  20680042.91108  20680044.64508
 -10532606.09808  -8207143.82408  22031366.69208  22031367.92408
 -16854205.31208 -13133132.89908  20505772.64708  20505774.14408
  -1420322.16507  -1106742.11507  23029677.44907  23029680.12207
 93 04 08 05 14 00.0000000  0  8 23 20 26 16 03 24 17 25
   -970162.83507   -755970.10007  22937406.80307  22937409.50907
  -5728699.97209  -4463921.13108  18642720.85609  18642721.82108
  -4390925.54607  -3421497.06708  22355444.97907  22355446.60208
 -24900094.02608 -19402622.40008  19284658.15308  19284658.95708
 -19155326.02508 -14926205.66808  20625935.11208  20625936.78608
 -10278075.29808  -8008808.14808  22079802.26008  22079803.56308
 -17160954.04408 -13372157.73608  20447400.27208  20447401.66708
  -1376090.09307  -1072275.51107  23038094.75607  23038097.17907
 93 04 08 05 16 00.0000000  0  8 23 20 26 16 03 24 17 25
  -1454943.65907  -1133721.00407  22845155.57007  22845158.37907
  -5613031.64909  -4373790.01608  18664731.86909  18664732.83808
  -4735879.74207  -3690292.30908  22289802.19707  22289803.69308
 -24782512.25808 -19311000.23408  19307033.19808  19307034.05508
 -19439899.26708 -15147950.93508  20571782.48908  20571784.12708
 -10024517.91008  -7811231.00308  22128052.66708  22128054.00308
 -17464001.37508 -13608298.33708  20389732.10908  20389733.48808
  -1325952.60607  -1033207.24607  23047635.33407  23047637.90107
 93 04 08 05 18 00.0000000  0  8 23 20 26 16 03 24 17 25
  -1939321.48907  -1511157.88908  22752981.25007  22752983.99708
  -5488614.95009  -4276841.98308  18688407.60209  18688408.59508
  -5080891.79008  -3959132.69908  22224148.91008  22224150.03808
 -24656749.27708 -19213003.09408  19330965.10308  19330965.93808
 -19724622.67308 -15369813.21108  20517601.37308  20517602.92308
  -9771827.38008  -7614329.33708  22176138.05408  22176139.36608
 -17763259.95108 -13841486.68908  20332784.97108  20332786.31708
  -1270032.63607   -989633.13707  23058276.54007  23058278.90107
 93 04 08 05 20 00.0000000  0  8 23 26 20 16 03 24 17 25
  -2423293.65408  -1888278.72208  22660884.20308  22660886.80908
  -5425821.11908  -4227908.60508  22158510.98808  22158511.80208
  -5355621.18709  -4173210.51408  18713715.51209  18713716.51308
 -24522956.53208 -19108749.00108  19356425.00008  19356425.88808
 -20009528.11408 -15591817.34408  20463385.63908  20463387.11508
  -9519787.50508  -7417934.65508  22224099.59508  22224100.90908
 -18058651.94708 -14071662.13508  20276573.54908  20276574.87108
  -1208063.95407   -941345.79207  23070069.09807  23070070.92407
 93 04 08 05 22 00.0000000  0  8 23 26 20 16 03 24 17 25
  -2906290.40408  -2264639.51708  22568972.79308  22568975.32608
  -5770426.88608  -4496432.38108  22092934.42608  22092935.34308
  -5214160.58009  -4062981.52808  18740634.59909  18740635.60608
 -24381432.82508 -18998470.79308  19383356.04808  19383356.97308
 -20294578.79908 -15813934.66908  20409142.18208  20409143.64608
  -9268409.35108  -7222055.58608  22271935.31708  22271936.68808
 -18350353.15508 -14298961.63008  20221064.58308  20221065.87308
  -1140695.19407   -888850.56307  23082888.70807  23082890.73507
 93 04 08 05 24 00.0000000  0  8 23 26 20 16 03 24 17 25
  -3388582.01008  -2640450.85508  22477195.61008  22477198.09508
  -6114684.98008  -4764685.27108  22027424.06208  22027425.02008
  -5064337.68309  -3946236.47308  18769145.03009  18769146.02508
 -24231822.64808 -18881891.44008  19411825.94108  19411826.82408
 -20579720.96708 -16036123.30008  20354881.35408  20354882.91808
  -9018076.32908  -7026990.89608  22319572.02808  22319573.47708
 -18638361.01408 -14523383.19308  20166258.32308  20166259.57408
  -1068335.11507   -832465.99707  23096658.14307  23096660.27907
 93 04 08 05 26 00.0000000  0  8 23 26 20 16 03 24 17 25
  -3870043.07708  -3015615.04508  22385576.40308  22385578.77008
  -6458409.02608  -5032521.97508  21962015.32908  21962016.35608
  -4906231.84209  -3823037.15208  18799231.62309  18799232.63108
 -24074475.77208 -18759283.49508  19441768.02308  19441768.90408
 -20864868.32708 -16258315.98708  20300619.55708  20300621.13008
  -8768461.88508  -6832486.12608  22367072.21108  22367073.53108
 -18922692.62108 -14744940.13008  20112151.71408  20112152.92008
   -990582.77807   -771879.72707  23111453.96607  23111456.03607
 93 04 08 05 28 00.0000000  0  7 23 26 24 20 16 03 17
  -4350367.78508  -3389893.79208  22294173.41808  22294175.80908
  -6801346.69408  -5299745.95108  21896756.45508  21896757.47808
  -8519706.28508  -6638650.59308  22414408.75208  22414410.11208
  -4740024.99708  -3693525.37608  18830859.77408  18830860.79008
 -23909660.18308 -18630855.77608  19473131.42108  19473132.28008
 -21150029.44308 -16480519.40008  20246355.15608  20246356.66408
 -19203392.31908 -14963666.98708  20058736.21708  20058737.39608
 93 04 08 05 30 00.0000000  0  7 23 26 24 20 16 03 17
  -4829344.59508  -3763122.21308  22203027.00308  22203029.29808
  -7143172.02508  -5566103.21608  21831709.13908  21831710.15808
  -8271805.98808  -6445481.49908  22461582.53608  22461583.95508
  -4565826.57408  -3557786.40208  18864008.66508  18864009.70108
 -23737333.26008 -18496575.07308  19505924.12408  19505925.00108
 -21435132.12408 -16702677.29408  20192101.86808  20192103.32608
 -19480509.13708 -15179602.03308  20006002.52808  20006003.62108
 93 04 08 05 32 00.0000000  0  7 23 26 24 20 16 03 17
  -5307124.60208  -4135418.08808  22112108.29108  22112110.60108
  -7483962.38208  -5831654.03208  21766858.80608  21766859.83108
  -8024800.88908  -6253009.96108  22508586.03908  22508587.42608
  -4383823.26508  -3415965.70608  18898642.78408  18898643.83608
 -23557740.25808 -18356632.48908  19540099.56208  19540100.44108
 -21720172.78508 -16924786.85008  20137860.40608  20137861.83508
 -19754058.57708 -15392757.32608  19953947.65108  19953948.70508
 93 04 08 05 34 00.0000000  0  7 23 26 24 20 16 03 17
  -5783161.17408  -4506355.43408  22021521.41708  22021523.51908
  -7823329.07508  -6096095.48508  21702279.13308  21702280.31908
  -7778814.34708  -6061332.14208  22555395.71908  22555397.08008
  -4194136.89808  -3268158.21308  18934738.93508  18934739.99708
 -23370937.51508 -18211071.92508  19575646.93808  19575647.83708
 -22005075.81308 -17146789.15308  20083645.12808  20083646.56408
 -20023728.67008 -15602889.77108  19902631.14308  19902632.18108
 93 04 08 05 36 00.0000000  0  7 23 26 24 20 16 03 17
  -6257473.15608  -4875948.98408  21931262.71708  21931264.78608
  -8161213.62008  -6359382.02408  21637981.72408  21637982.79908
  -7533895.47708  -5870486.26508  22602002.28608  22602003.62008
  -3996911.15008  -3114475.87108  18972269.80708  18972270.85208
 -23177090.17708 -18060022.06108  19612534.88508  19612535.77208
 -22289778.25508 -17368635.16208  20029468.02508  20029469.49608
 -20289925.99708 -15810316.18108  19851975.40708  19851976.42608
 93 04 08 05 38 00.0000000  0  7 23 26 24 20 16 03 17
  -6730143.22008  -5244263.13208  21841316.51208  21841318.38308
  -8497564.74108  -6621473.72308  21573976.31408  21573977.28008
  -7290013.19308  -5680448.12408  22648411.45708  22648412.91808
  -3792305.73008  -2955043.13308  19011204.96608  19011206.00508
 -22976340.11808 -17903593.44808  19650736.35008  19650737.24508
 -22574226.11408 -17590282.79608  19975339.39208  19975340.76008
 -20552646.68208 -16015033.52808  19801981.33108  19801982.31208
 93 04 08 05 40 00.0000000  0  7 23 26 24 20 16 03 17
  -7201034.51408  -5611191.25008  21751708.72608  21751710.54908
  -8831834.12108  -6881943.27108  21510366.94208  21510367.91208
  -7046857.58508  -5490976.24308  22694682.47608  22694683.80108
  -3580520.51508  -2790015.77908  19051506.40708  19051507.49308
 -22768846.38508 -17741910.03008  19690221.11908  19690222.01508
 -22858399.70708 -17811716.71408  19921262.90108  19921264.23308
 -20811994.64008 -16217122.78308  19752628.99108  19752629.92308
 93 04 08 05 42 00.0000000  0  7 23 26 24 20 16 03 17
  -7669781.46508  -5976448.45808  21662508.95008  21662510.79608
  -9163887.96608  -7140686.41208  21447179.09908  21447180.05608
  -6804716.97408  -5302295.28308  22740760.52008  22740761.62908
  -3361722.22608  -2619523.68808  19093142.40608  19093143.50908
 -22555062.19008 -17575324.96008  19730902.85908  19730903.81108
 -23142236.40608 -18032888.11208  19867250.51508  19867251.92308
 -21067578.04508 -16416278.59908  19703993.02108  19703993.96408
 93 04 08 05 44 00.0000000  0  7 23 26 24 20 16 03 17
  -8136290.47708  -6339961.82008  21573735.11308  21573736.95708
  -9493708.62508  -7397689.42208  21384416.10408  21384417.00208
  -6563963.48708  -5114695.21408  22786574.35808  22786575.63708
  -3136013.41308  -2443646.78408  19136093.45108  19136094.55108
 -22335177.99408 -17403986.64408  19772745.47508  19772746.42908
 -23425605.20808 -18253694.91208  19813327.23108  19813328.60508
 -21319547.17808 -16612618.11308  19656044.91008  19656045.81908
 93 04 08 05 46 00.0000000  0  7 23 26 24 20 16 03 17
  -8600351.85108  -6701567.94208  21485426.96208  21485428.87608
  -9821355.05808  -7652998.21308  21322067.11008  21322067.89008
  -6323938.36907  -4927662.70807  22832249.56107  22832251.04507
  -2903584.06908  -2262533.09908  19180323.31008  19180324.48208
 -22108511.96408 -17227363.78408  19815878.58408  19815879.57408
 -23708454.00208 -18474096.51708  19759502.89008  19759504.22308
 -21568354.22608 -16806493.67008  19608698.42308  19608699.31008
 93 04 08 05 48 00.0000000  0  7 23 26 24 20 16 03 17
  -9061996.98308  -7061291.27208  21397578.69008  21397580.53008
 -10146263.40608  -7906173.41008  21260238.97508  21260239.85508
  -6084890.16907  -4741391.44207  22877738.97607  22877740.37307
  -2664519.20808  -2076248.87708  19225815.91608  19225817.12808
 -21875635.75008 -17045901.81608  19860193.45308  19860194.44608
 -23990618.71708 -18693965.07808  19705808.61108  19705809.97408
 -21813712.75808 -16997682.07008  19562008.10208  19562009.01508
 93 04 08 05 50 00.0000000  0  7 23 26 24 20 16 03 17
  -9520958.67308  -7418923.61908  21310241.12708  21310242.89008
 -10468242.46808  -8157066.06408  21198968.18308  21198969.02508
  -5846985.09207  -4556010.92607  22923010.85407  22923012.32107
  -2419043.50708  -1884969.20908  19272528.47108  19272529.69808
 -21636924.99608 -16859893.45608  19905618.60308  19905619.60608
 -24272067.61608 -18913275.86608  19652250.60108  19652251.94408
 -22055513.59708 -17186098.26908  19515994.89308  19515995.82608
 93 04 08 05 52 00.0000000  0  8 23 26 24 22 20 16 03 17
  -9977169.09308  -7774412.13008  21223427.22108  21223428.86108
 -10786991.22308  -8405441.61208  21138312.28608  21138313.00008
  -5610275.29207  -4371561.79707  22968055.37407  22968056.68107
        -0.33517        -0.19017  23084178.66017  23084180.28417
  -2167355.15708  -1688848.51808  19320423.21408  19320424.48508
 -21392526.09608 -16669452.77508  19952126.23108  19952127.17008
 -24552737.83608 -19131979.90008  19598840.84708  19598842.17608
 -22293753.04608 -17371739.33308  19470659.36008  19470660.34208
 93 04 08 05 54 00.0000000  0  8 23 26 24 22 20 16 03 17
 -10430410.28408  -8127586.96908  21137178.15208  21137179.78008
 -11102363.24908  -8651185.95508  21078298.90908  21078299.68308
  -5374341.64707  -4187717.45107  23012952.02307  23012953.40707
   -401237.90407   -312652.60307  23007825.57507  23007827.06007
  -1909579.91208  -1487984.79008  19369476.25908  19369477.55408
 -21142598.13608 -16474703.72808  19999685.95408  19999686.92508
 -24832490.65708 -19349969.10108  19545605.72508  19545607.02108
 -22528384.64408 -17554569.08408  19426010.43408  19426011.37408
 93 04 08 05 56 00.0000000  0  8 23 26 24 22 20 16 03 17
 -10880707.67608  -8478467.95708  21051489.35608  21051490.93008
 -11414516.59008  -8894422.24108  21018898.07308  21018898.83508
  -5139397.32807  -4004644.02207  23057660.57807  23057661.91107
   -798300.29307   -622051.70407  22932267.00007  22932268.41607
  -1645934.18508  -1282546.65508  19419646.46008  19419647.78608
 -20887096.54508 -16275611.58708  20048306.30108  20048307.30708
 -25111268.22308 -19567198.37508  19492556.11208  19492557.37108
 -22759717.65808 -17734828.51908  19381989.19108  19381990.08608
 93 04 08 05 58 00.0000000  0  8 24 22 20 23 26 16 03 17
  -4905430.75607  -3822332.47306  23102182.89907  23102184.31106
  -1190994.58207   -928047.13507  22857539.74607  22857541.08207
  -1376559.68708  -1072644.56108  19470906.80008  19470908.12208
 -11327955.09908  -8826972.35808  20966380.97008  20966382.54308
 -11723079.63608  -9134860.88408  20960180.36508  20960181.02308
 -20626356.40208 -16072437.46008  20097923.45408  20097924.47608
 -25388932.44508 -19783560.11308  19439718.31908  19439719.62308
 -22987886.37908 -17912622.24508  19338570.03508  19338570.93408
 93 04 08 06 00 00.0000000  0  8 24 22 20 23 26 16 03 17
  -4672699.61207  -3640983.60406  23146470.32507  23146471.77006
  -1579221.89807  -1230561.77907  22783662.45607  22783663.68807
  -1101692.56808   -858462.47808  19523212.31408  19523213.67708
 -11771891.42908  -9172896.69608  20881902.58708  20881904.18308
 -12027693.33708  -9372222.10308  20902214.23008  20902214.89008
 -20360303.66508 -15865123.64808  20148551.59408  20148552.59408
 -25665435.10808 -19999016.73108  19387101.59508  19387102.94208
 -23212779.69608 -18087863.72808  19295774.25908  19295775.13808
 93 04 08 06 02 00.0000000  0  8 24 22 20 23 26 16 03 17
  -4440743.89507  -3460238.99106  23190610.04907  23190611.53306
  -1962794.91208  -1529449.67507  22710670.69308  22710671.94207
   -821481.23008   -640116.06208  19576534.88008  19576536.24608
 -12212028.33208  -9515860.43808  20798147.20708  20798148.87208
 -12328191.28108  -9606376.27408  20845031.34808  20845032.04408
 -20089176.51808 -15653855.74908  20200145.44608  20200146.43408
 -25940636.61108 -20213459.43408  19334732.50708  19334733.80708
 -23434312.38308 -18260486.53108  19253617.89608  19253618.76808
 93 04 08 06 04 00.0000000  0  7 22 20 23 26 16 03 17
  -2341545.26608  -1824579.64907  22638596.83408  22638598.08607
   -536091.68908   -417734.67508  19630842.80608  19630844.15508
 -12648381.12208  -9855875.50708  20715111.98108  20715113.60408
 -12624544.08708  -9837300.46508  20788637.18408  20788637.85708
 -19813490.77208 -15439035.68708  20252606.65908  20252607.66508
 -26214408.45308 -20426788.11408  19282635.44508  19282636.70208
 -23652362.10708 -18430395.34708  19212124.39108  19212125.21008
 93 04 08 06 06 00.0000000  0  7 22 20 23 26 16 03 17
  -2715383.02008  -2115881.62407  22567457.70808  22567458.89707
   -245768.89608   -191509.23208  19686089.46908  19686090.88008
 -13081572.35008 -10193427.00408  20632678.36408  20632679.96708
 -12916490.94508 -10064791.43008  20733081.54308  20733082.19508
 -19533128.77508 -15220571.78808  20305957.79708  20305958.79108
 -26486697.96608 -20638961.71708  19230820.39208  19230821.70108
 -23867197.28308 -18597799.32908  19171242.58508  19171243.34208
 93 04 08 06 08 00.0000000  0  7 22 20 23 26 16 03 17
  -3084171.86408  -2403249.39708  22497279.32708  22497280.62108
     49284.00808     38402.00608  19742236.20808  19742237.67908
 -13511073.93908 -10528103.44408  20550946.88208  20550948.43308
 -13204061.19908 -10288872.06908  20678358.69108  20678359.26708
 -19248359.76008 -14998673.85608  20360147.51408  20360148.54708
 -26757402.86208 -20849900.55208  19179306.88008  19179308.22908
 -24079031.65608 -18762865.04308  19130931.81808  19130932.61208
 93 04 08 06 10 00.0000000  0  7 22 20 23 26 16 03 17
  -3447752.52008  -2686558.85308  22428092.19308  22428093.45308
    348891.31208    271862.16908  19799249.65508  19799251.14508
 -13936474.77908 -10859584.49908  20469995.71308  20469997.25008
 -13487038.95008 -10509374.10508  20624509.86208  20624510.35208
 -18959017.68108 -14773212.50008  20415207.46508  20415208.48108
 -27026391.14008 -21059501.77508  19128120.13508  19128121.39608
 -24287637.62508 -18925415.08508  19091235.34608  19091236.16808
 93 04 08 06 12 00.0000000  0  7 22 20 23 26 16 03 17
  -3806059.77408  -2965759.15008  22359908.48308  22359909.64208
    652783.87808    508661.47808  19857078.60308  19857080.06008
 -14357587.70008 -11187724.31708  20389860.48008  20389861.93108
 -13764902.97308 -10725891.42008  20571633.95808  20571634.48808
 -18665617.77408 -14544589.19908  20471039.63308  20471040.62108
 -27293622.16208 -21267733.71108  19077267.77208  19077268.95608
 -24492979.28008 -19085421.52208  19052160.06908  19052160.90208
 93 04 08 06 14 00.0000000  0  7 22 20 23 26 16 03 17
  -4158883.82308  -3240686.79408  22292768.20708  22292769.24208
    960835.90808    748701.92008  19915699.02008  19915700.50108
 -14774696.54608 -11512744.07508  20310487.24708  20310488.63508
 -14037690.99208 -10938453.41508  20519723.97508  20519724.54008
 -18368525.21608 -14313088.51908  20527574.47208  20527575.46208
 -27558903.87908 -21474446.71008  19026786.29008  19026787.52108
 -24695346.13508 -19243109.92408  19013651.00508  19013651.74608
 93 04 08 06 16 00.0000000  0  7 22 20 23 26 16 03 17
  -4506104.21008  -3511247.94108  22226694.18908  22226695.22208
   1272836.33008    991819.02008  19975070.73408  19975072.28008
 -15187607.87608 -11834493.02508  20231912.70308  20231914.09208
 -14305183.80908 -11146889.26508  20468821.72808  20468822.30008
 -18067629.88308 -14078624.63408  20584832.95708  20584833.96108
 -27822128.72508 -21679556.94808  18976696.18208  18976697.43708
 -24894521.07308 -19398311.10908  18975749.19508  18975749.91908
 93 04 08 06 18 00.0000000  0  7 22 20 23 26 16 03 17
  -4847520.15208  -3777286.16908  22161724.75508  22161725.67608
   1588654.86108   1237911.28108  20035168.98308  20035170.64408
 -15596074.06608 -12152778.24008  20154184.11508  20154185.41608
 -14567293.89808 -11351130.78908  20418943.72208  20418944.22008
 -17762850.23108 -13841134.02308  20642830.54408  20642831.62208
 -28083104.44508 -21882914.61308  18927034.18008  18927035.39908
 -25090530.23908 -19551045.44408  18938449.76708  18938450.55208
 93 04 08 06 20 00.0000000  0  7 22 03 20 23 26 16 17
  -5183042.70708  -4038732.19908  22097876.84508  22097877.77008
 -28341745.93308 -22084453.40008  18877816.36608  18877817.54208
   1908051.71208   1486791.85008  20095948.28608  20095949.98308
 -16000018.98708 -12467540.39608  20077315.82608  20077317.13208
 -14823755.71608 -11550971.06408  20370140.59008  20370141.02508
 -17454578.26708 -13600922.12208  20701492.76608  20701493.84508
 -25283735.89408 -19701595.22308  18901683.91908  18901684.68008
 93 04 08 06 22 00.0000000  0  7 22 20 23 26 16 03 17
  -5512506.00708  -4295456.79108  22035182.06808  22035182.93808
   2230868.07108   1738336.96808  20157378.31608  20157379.99508
 -16399230.82908 -12778614.43408  20001348.26408  20001349.62708
 -15074311.78108 -11746209.44808  20322461.26408  20322461.72808
 -17142892.24908 -13358049.92508  20760804.64508  20760805.77308
 -28597883.32908 -22284040.94308  18829075.01708  18829076.16808
 -25473831.93808 -19849721.95408  18865509.86508  18865510.54508
 93 04 08 06 24 00.0000000  0  7 22 20 23 26 16 03 17
  -5835821.15408  -4547390.64808  21973657.06308  21973658.09308
   2556867.98508   1992362.78208  20219414.11608  20219415.75608
 -16793625.53508 -13085934.86908  19926297.34508  19926298.67908
 -15318803.99308 -11936722.75208  20275935.79208  20275936.21108
 -16828274.64608 -13112893.36808  20820674.40108  20820675.48008
 -28851421.20808 -22481602.88508  18780828.33108  18780829.41508
 -25660962.95208 -19995538.25508  18829899.91608  18829900.56408
 93 04 08 06 26 00.0000000  0  7 22 20 23 26 16 03 17
  -6152914.46908  -4794476.35308  21913316.22108  21913317.30008
   2885803.75808   2248676.28308  20282008.53208  20282010.24208
 -17183548.25608 -13389770.64208  19852097.44608  19852098.77208
 -15557500.27208 -12122719.74408  20230513.41808  20230513.79808
 -16510640.97308 -12865386.63508  20881118.10608  20881119.18208
 -29102274.14708 -22677072.67308  18733092.55308  18733093.67408
 -25844814.18308 -20138798.89608  18794914.12408  18794914.81208
 93 04 08 06 28 00.0000000  0  7 22 20 23 26 16 03 17
  -6463649.42408  -5036607.48908  21854185.31208  21854186.39108
   3217493.45108   2507135.69608  20345127.05808  20345128.76908
 -17568388.32008 -13689645.89508  19778864.71808  19778865.96908
 -15789972.65708 -12303866.96508  20186275.30308  20186275.72008
 -16190161.81808 -12615662.64908  20942103.24208  20942104.35608
 -29350286.26108 -22870328.83608  18685897.34308  18685898.51208
 -26025846.75808 -20279863.18808  18760464.72808  18760465.43408
 93 04 08 06 30 00.0000000  0  8 16 22 21 20 23 26 03 17
 -15867146.58808 -12363962.50508  21003571.13308  21003572.16608
  -6767912.62408  -5273695.70308  21796285.99008  21796287.04908
         0.43817         0.33917  23061499.45617  23061502.87317
   3551737.42708   2767585.44608  20408731.67908  20408733.41408
 -17948170.70708 -13985580.09608  19706594.48108  19706595.67408
 -16015995.42908 -12479988.53508  20143264.54608  20143264.95808
 -29595322.21308 -23061265.91208  18639268.52608  18639269.69708
 -26204172.32308 -20418818.12108  18726530.42908  18726531.12408
 93 04 08 06 32 00.0000000  0  8 16 22 21 20 23 26 03 17
 -15541694.59308 -12110363.58608  21065502.62508  21065503.70708
  -7065554.23308  -5505624.22708  21739646.59708  21739647.73308
   -465802.71007   -362962.69707  22972859.72207  22972862.96607
   3888376.67508   3029901.64808  20472792.07708  20472793.78108
 -18322691.97608 -14277414.70708  19635325.31108  19635326.48508
 -16235385.28608 -12650941.58408  20101515.96208  20101516.29408
 -29837201.22408 -23249743.04108  18593240.45308  18593241.62808
 -26379648.81008 -20555552.99508  18693138.38008  18693139.05008
 93 04 08 06 34 00.0000000  0  8 16 22 21 20 23 26 03 17
 -15213492.32108 -11854621.60808  21127957.39708  21127958.54208
  -7356403.24008  -5732259.80108  21684299.88008  21684300.97208
   -930919.15107   -725390.66807  22884350.61507  22884353.85907
   4227272.71808   3293976.38808  20537281.90208  20537283.68408
 -18691859.38608 -14565077.43208  19565074.95108  19565076.09708
 -16448223.97508 -12816789.83508  20061013.99408  20061014.32108
 -30075720.10708 -23435601.89008  18547851.80608  18547852.97508
 -26552256.95608 -20690052.81408  18660292.06908  18660292.69708
 93 04 08 06 36 00.0000000  0  8 16 21 22 20 23 26 03 17
 -14883349.58908 -11597367.55408  21190781.48108  21190782.64108
  -1394904.83407  -1086937.53907  22796056.81307  22796059.91307
  -7640440.51608  -5953587.53208  21630249.46008  21630250.34508
   4568144.06608   3559590.33108  20602147.58508  20602149.36108
 -19056044.01308 -14848857.53708  19495772.81908  19495773.92608
 -16654169.24108 -12977266.59008  20021823.97408  20021824.22008
 -30310818.00908 -23618795.04008  18503114.18108  18503115.31908
 -26721900.19208 -20822242.31208  18628009.99908  18628010.65908
 93 04 08 06 38 00.0000000  0  8 16 21 22 20 23 26 03 17
 -14551083.83808 -11338459.19408  21254009.58208  21254010.68508
  -1857758.01907  -1447602.01007  22707978.62707  22707981.49407
  -7917526.57608  -6169498.73808  21577521.67808  21577522.61508
   4910831.93108   3826619.73808  20667358.93008  20667360.77508
 -19414881.11508 -15128470.78308  19427488.26308  19427489.39108
 -16852964.03508 -13132171.57408  19983994.56608  19983994.79508
 -30542311.49808 -23799179.56108  18459062.42008  18459063.51308
 -26888637.46808 -20952167.43708  18596280.98608  18596281.63308
 93 04 08 06 40 00.0000000  0  8 16 21 22 20 23 26 03 17
 -14216861.03308 -11078025.84908  21317610.13708  21317611.22208
  -2319148.25607  -1807126.60007  22620178.76307  22620181.61107
  -8187601.59908  -6379946.77808  21526128.07108  21526129.04508
   5255103.52908   4094883.24408  20732871.76508  20732873.52108
 -19767831.91408 -15403497.26708  19360323.88208  19360324.99508
 -17044893.99608 -13281727.32408  19947471.44508  19947471.60708
 -30770088.57508 -23976668.17008  18415717.87208  18415718.95708
 -27052701.16908 -21080009.26908  18565060.67908  18565061.34108
 93 04 08 06 42 00.0000000  0  8 16 21 22 23 20 26 03 17
 -13880958.97408 -10816283.99208  21381530.11108  21381531.31208
  -2779018.83107  -2165467.07208  22532668.02307  22532670.98708
  -8450549.14908  -6584840.93108  21476090.74308  21476091.77808
 -20115404.57008 -15674332.99508  19294182.93508  19294183.96308
   5600787.94308   4364247.65008  20798653.36608  20798655.12408
 -17229586.46608 -13425643.47608  19912325.60908  19912325.78408
 -30993978.42808 -24151127.77708  18373113.04408  18373114.12008
 -27214194.55408 -21205848.26508  18534329.50208  18534330.17008
 93 04 08 06 44 00.0000000  0  8 16 21 22 23 20 26 03 17
 -13543343.06408 -10553206.67708  21445776.29908  21445777.43108
  -3237452.43607  -2522687.86707  22445430.76807  22445433.66107
  -8706231.67708  -6784074.03708  21427436.02908  21427436.97508
 -20457471.16108 -15940878.29108  19229089.81908  19229090.75608
   5947740.39908   4634600.14808  20864676.34008  20864678.07408
 -17406742.87608 -13563687.37408  19878613.81308  19878614.02508
 -31213780.51308 -24322402.11708  18331286.10508  18331287.15108
 -27372432.01408 -21329150.15508  18504217.89908  18504218.51408
 93 04 08 06 46 00.0000000  0  8 16 21 22 23 26 20 03 17
 -13204187.99308 -10288930.02208  21510315.34808  21510316.48808
  -3694331.54507  -2878697.36807  22358489.31707  22358492.20107
  -8954635.41508  -6977635.35608  21380166.27708  21380167.28608
 -20793710.78108 -16202883.10308  19165105.37208  19165106.38508
 -17576198.61408 -13695730.75608  19846367.42608  19846367.59208
   6295697.58108   4905735.54208  20930890.45908  20930892.21608
 -31429413.54708 -24490427.84308  18290252.44508  18290253.53608
 -27528014.98308 -21450383.59808  18474611.39508  18474612.00508
 93 04 08 06 48 00.0000000  0  8 20 16 21 23 26 03 17 22
   6644499.72208   5177529.34208  20997265.41408  20997267.05708
 -12864036.40808 -10023876.85208  21575044.10108  21575045.30408
  -4149381.32107  -3233281.38507  22271896.11507  22271898.87107
 -21124138.62108 -16460359.25408  19102227.00908  19102227.98108
 -17738065.20008 -13821860.53108  19815565.12008  19815565.35408
 -31640693.23008 -24655061.34608  18250047.22708  18250048.33908
 -27681005.37408 -21569596.85008  18445498.27308  18445498.85308
  -9195648.30808  -7165437.56408  21334303.01908  21334303.99708
 93 04 08 06 50 00.0000000  0  8 20 16 21 23 26 03 17 22
   6994000.23408   5449867.32608  21063773.19308  21063774.85408
 -12522601.01308  -9757823.32308  21640017.11608  21640018.31308
  -4602425.99407  -3586302.96808  22185684.58207  22185687.17108
 -21448560.57208 -16713155.49608  19040491.52608  19040492.46508
 -17892488.71208 -13942190.50508  19786179.30208  19786179.48508
 -31847421.76308 -24816148.49308  18210708.10708  18210709.20408
 -27831349.66708 -21686748.20508  18416888.67308  18416889.26308
  -9429150.58708  -7347387.35308  21289869.10508  21289869.92808
 93 04 08 06 52 00.0000000  0  8 20 16 21 23 26 03 17 22
   7344031.47208   5722618.85408  21130381.91308  21130383.75008
 -12179925.14107  -9490803.18408  21705226.11107  21705227.41508
  -5053584.04908  -3937854.46308  22099831.98508  22099834.45208
 -21766905.43408 -16961216.35108  18979912.40908  18979913.39208
 -18039169.51408 -14056487.19108  19758266.84008  19758266.96708
 -32049424.95308 -24973553.55708  18172268.18108  18172269.26508
 -27978811.55408 -21801653.53308  18388827.60808  18388828.16908
  -9655049.96808  -7523412.80508  21246881.86708  21246882.60208
 93 04 08 06 54 00.0000000  0  8 20 16 23 26 03 21 17 22
   7694357.94108   5995600.43608  21197046.83908  21197048.80108
 -11836484.92907  -9223187.47508  21770580.53707  21770581.92708
 -22079406.28508 -17204723.43408  18920445.41308  18920446.40508
 -18177726.14708 -14164453.35608  19731900.46608  19731900.50708
 -32246596.41108 -25127193.63408  18134747.69208  18134748.73508
  -5502674.65508  -4287794.98108  22014372.73108  22014375.21008
 -28123805.23208 -21914635.58308  18361236.17608  18361236.78108
  -9873330.21808  -7693501.29108  21205344.56108  21205345.23308
 93 04 08 06 56 00.0000000  0  8 20 16 23 26 03 21 17 22
   8044846.40908   6268708.25008  21263742.63008  21263744.65308
 -11492067.66307  -8954810.40707  21836120.98307  21836122.39007
 -22385726.75808 -17443414.63508  18862154.55808  18862155.48808
 -18308203.91308 -14266124.30408  19707071.29108  19707071.38908
 -32438729.88308 -25276908.02008  18098185.89108  18098186.94008
  -5949635.75608  -4636076.15708  21929318.63608  21929321.03408
 -28265756.97708 -22025247.29808  18334223.57508  18334224.19208
 -10083877.63508  -7857564.21408  21165278.72908  21165279.41008
 93 04 08 06 58 00.0000000  0  8 20 16 23 26 03 21 17 22
   8395278.86408   6541772.41208  21330427.77008  21330429.82408
 -11146929.66707  -8685871.71907  21901798.45907  21901799.94507
 -22686151.17408 -17677511.51208  18804985.59708  18804986.51108
 -18430592.34908 -14361491.87108  19683781.47008  19683781.57708
 -32625704.39208 -25422602.43408  18062605.78108  18062606.89008
  -6394151.42508  -4982451.83208  21844730.01608  21844732.38208
 -28405082.17408 -22133812.36708  18307710.81808  18307711.47108
 -10286669.40208  -8015583.79308  21126688.73908  21126689.47708
 93 04 08 07 00 00.0000000  0  8 20 16 23 26 03 21 17 22
   8745526.40508   6814692.49408  21397077.72808  21397079.77208
 -10801330.85207  -8416573.93007  21967563.83107  21967565.16107
 -22980307.36008 -17906724.05308  18749009.57108  18749010.40308
 -18544614.01608 -14450339.87708  19662083.77208  19662083.91408
 -32807311.58408 -25564114.52708  18028047.14008  18028048.17508
  -6836399.44708  -5327060.52108  21760573.00808  21760575.24808
 -28541811.28808 -22240354.53208  18281692.23408  18281692.79808
 -10481600.39408  -8167478.09508  21089594.68308  21089595.32408
 93 04 08 07 02 00.0000000  0  8 20 16 21 23 26 03 17 22
   9095354.06608   7087285.36508  21463647.95208  21463649.85008
 -10455467.39707  -8147069.97307  22033379.66607  22033380.82507
  -7276366.75008  -5669892.01608  21676849.92208  21676852.11408
 -23268074.68808 -18130958.26308  18694249.21608  18694250.01308
 -18650338.62108 -14532722.64708  19641965.12108  19641965.19808
 -32983453.57608 -25701368.02908  17994528.43308  17994529.43408
 -28675763.28508 -22344732.70208  18256202.05808  18256202.54308
 -10668681.83208  -8313255.84308  21053994.22408  21053994.83208
 93 04 08 07 04 00.0000000  0  8 20 16 23 26 03 21 17 22
   9444599.51308   7359424.55408  21530107.29208  21530109.09608
 -10109061.77707  -7877143.55707  22099298.58907  22099299.66007
 -23549564.12508 -18350300.61108  18640683.50108  18640684.27108
 -18747841.02708 -14608698.51008  19623410.91708  19623410.95208
 -33153959.00608 -25834229.40408  17962082.31908  17962083.31308
  -7713691.89308  -6010664.68608  21593629.59208  21593631.68908
 -28806891.97108 -22446910.88908  18231249.07108  18231249.59508
 -10847855.40608  -8452871.61408  21019898.62008  21019899.30408
 93 04 08 07 06 00.0000000  0  8 20 16 21 23 26 03 17 22
   9793090.51408   7630975.84608  21596423.10508  21596424.96808
  -9762540.32307  -7607126.86307  22165239.60307  22165240.57907
  -8148381.55208  -6349383.72108  21510910.72908  21510912.79108
 -23824571.22808 -18564591.79008  18588351.32608  18588352.05208
 -18836930.26808 -14678118.66408  19606457.73808  19606457.75908
 -33318670.74808 -25962576.21508  17930738.71308  17930739.71908
 -28935451.66308 -22547087.24708  18206784.97008  18206785.50208
 -11019080.81208  -8586294.00308  20987315.51108  20987316.09008
 93 04 08 07 08 00.0000000  0  8 20 16 21 23 26 03 17 22
  10140652.68508   7901803.36508  21662562.00108  21662563.96808
  -9415969.94207  -7337072.02907  22231189.81307  22231190.69807
  -8580551.51408  -6686139.34408  21428671.33408  21428673.40008
 -24093272.15908 -18773969.07408  18537219.18908  18537219.89008
 -18917408.36208 -14740828.83808  19591143.28808  19591143.29008
 -33477436.26808 -26086289.61608  17900526.60408  17900527.65108
 -29061476.92608 -22645288.73208  18182803.12808  18182803.65108
 -11182327.53908  -8713499.24808  20956250.62708  20956251.27808
 93 04 08 07 10 00.0000000  0  8 20 16 21 23 26 03 17 22
  10487172.90908   8171818.98507  21728502.66308  21728504.68007
  -9069320.05107  -7066955.31407  22297155.01307  22297156.04707
  -9009680.52508  -7020525.41708  21347010.72508  21347012.74908
 -24355747.71708 -18978495.42508  18487271.68808  18487272.39908
 -18989259.49908 -14796816.68908  19577470.41708  19577470.48908
 -33630045.09608 -26205205.58908  17871486.13508  17871487.17608
 -29184726.21308 -22741327.11208  18159349.54508  18159350.04608
 -11337511.36508  -8834421.70608  20926719.98808  20926720.86008
 93 04 08 07 12 00.0000000  0  7 20 21 23 26 03 17 22
  10832440.60908   8440858.59607  21794205.02208  21794207.04707
  -9435840.76808  -7352598.17008  21265915.01008  21265917.01008
 -24611722.93408 -19177956.57708  18438561.24508  18438561.95508
 -19052763.09308 -14846299.98508  19565386.11308  19565386.14608
 -33776387.89508 -26319238.94508  17843638.03808  17843639.03808
 -29305247.84108 -22835240.05408  18136415.04608  18136415.54808
 -11484654.27408  -8949078.52708  20898719.68308  20898720.51508
 93 04 08 07 14 00.0000000  0  7 21 20 23 26 03 17 22
  -9859344.88208  -7682601.21508  21185324.73208  21185326.69508
  11176276.02508   8708782.11807  21859634.95608  21859637.03207
 -24861112.92408 -19372286.38208  18391103.80608  18391104.53608
 -19107420.21908 -14888889.92208  19554985.16508  19554985.21808
 -33916327.14708 -26428282.52608  17817008.48108  17817009.49008
 -29423362.36508 -22927277.32908  18113938.56308  18113939.04308
 -11623752.98508  -9057467.14408  20872250.14208  20872251.00808
 93 04 08 07 16 00.0000000  0  7 21 20 23 26 03 17 22
 -10279476.00608  -8009975.97508  21105376.27608  21105378.26108
  11518516.08408   8975462.50507  21924761.16708  21924763.22007
 -25103938.32808 -19561500.92808  18344895.65208  18344896.36208
 -19153278.39808 -14924623.53808  19546258.73808  19546258.73908
 -34049713.37508 -26532219.84508  17791625.89608  17791626.95808
 -29538452.59508 -23016958.01608  18092037.60708  18092038.11308
 -11754795.62308  -9159578.30808  20847313.57008  20847314.44408
 93 04 08 07 18 00.0000000  0  7 21 20 23 26 03 17 22
 -10696588.56608  -8334998.60908  21026002.26108  21026004.23208
  11858946.13608   9240732.47207  21989542.95008  21989545.10207
 -25340524.05008 -19745853.37908  18299874.81608  18299875.56208
 -19190827.33308 -14953882.41508  19539113.34908  19539113.31908
 -34176454.11109 -26630978.86808  17767507.98209  17767508.99708
 -29651050.54208 -23104696.67808  18070610.90308  18070611.43208
 -11877831.59808  -9255450.53708  20823900.61308  20823901.44808
 93 04 08 07 20 00.0000000  0  7 20 23 26 03 21 17 22
  12197439.68908   9504493.43607  22053956.37808  22053958.58407
 -25570546.60608 -19925091.68408  18256102.92608  18256103.65808
 -19219793.70508 -14976453.58908  19533601.19108  19533601.23608
 -34296372.20909 -26724421.54708  17744688.33109  17744689.36308
 -11110492.49708  -8657521.02608  20947238.85808  20947240.82608
 -29761100.96708 -23190450.25608  18049669.05208  18049669.52508
 -11992829.13308  -9345059.04308  20802017.35108  20802018.16808
 93 04 08 07 22 00.0000000  0  7 20 23 26 03 21 17 22
  12533791.96308   9766585.80707  22117962.26008  22117964.59907
 -25794092.56608 -20099283.29408  18213563.48108  18213564.17808
 -19239708.33708 -14991971.45108  19529811.52408  19529811.56908
 -34409372.15709 -26812473.46208  17723185.13709  17723186.18408
 -11521391.03708  -8977701.60708  20869047.46608  20869049.31008
 -29868637.74508 -23274245.14408  18029205.49508  18029205.92808
 -12099841.75208  -9428445.55208  20781653.48608  20781654.37508
 93 04 08 07 24 00.0000000  0  7 20 23 26 03 21 17 22
  12867854.48907  10026893.91107  22181532.34407  22181534.89607
 -26011354.26008 -20268578.07608  18172219.94808  18172220.59608
 -19251109.49508 -15000855.43908  19527641.96108  19527642.00108
 -34515308.19009 -26895021.03508  17703026.21109  17703027.22608
 -11929080.91208  -9295381.93108  20791466.67308  20791468.46808
 -29973299.87708 -23355800.04408  18009288.88408  18009289.37208
 -12198874.08708  -9505613.65308  20762808.33108  20762809.28908
 93 04 08 07 26 00.0000000  0  7 20 23 26 03 21 17 22
  13199474.67107  10285298.86307  22244637.86107  22244640.62207
 -26222115.04408 -20432807.21708  18132113.53408  18132114.17408
 -19253798.21208 -15002950.52408  19527130.25108  19527130.27708
 -34614044.36109 -26971958.31508  17684237.35709  17684238.39108
 -12333135.32208  -9610229.43408  20714577.61608  20714579.23108
 -30075457.53108 -23435403.39708  17989848.92608  17989849.44008
 -12289944.23908  -9576577.44508  20745478.34708  20745479.28608
 93 04 08 07 28 00.0000000  0  7 20 23 26 03 21 17 22
  13528520.08607  10541697.51407  22307253.56607  22307256.18607
 -26426337.35309 -20591941.44008  18093251.25609  18093251.87008
 -19247603.42208 -14998123.39908  19528309.11008  19528309.06508
 -34705430.91309 -27043168.62608  17666847.06909  17666848.14608
 -12733812.96108  -9922445.69308  20638331.11408  20638332.69908
 -30174768.74908 -23512788.74608  17970950.61508  17970951.13608
 -12373060.56608  -9641343.47408  20729661.86008  20729662.87608
 93 04 08 07 30 00.0000000  0  7 20 23 26 03 21 17 22
  13854813.41307  10795951.66007  22369345.51807  22369348.05207
 -26624227.42509 -20746141.45608  18055594.02909  18055594.59608
 -19233072.75008 -14986800.77908  19531074.22808  19531074.16608
 -34789366.58909 -27108573.06908  17650874.66809  17650875.72408
 -13131049.15708 -10231980.30408  20562739.52108  20562741.03908
 -30271387.36908 -23588075.97508  17952564.70108  17952565.25608
 -12448278.86008  -9699955.19308  20715348.36108  20715349.37708
 93 04 08 07 32 00.0000000  0  7 20 23 26 03 21 17 22
  14178144.86107  11047897.84507  22430873.66407  22430876.38407
 -26815398.78509 -20895106.10908  18019215.25409  18019215.87908
 -19209906.60108 -14968749.21708  19535482.52108  19535482.55708
 -34865788.69209 -27168122.76008  17636332.03809  17636333.07308
 -13524933.63608 -10538903.19008  20487785.67108  20487787.33508
 -30365619.18608 -23661503.36008  17934632.95208  17934633.50608
 -12515699.06708  -9752490.49308  20702518.71008  20702519.74808
 93 04 08 07 34 00.0000000  0  7 20 23 26 03 21 17 22
  14498369.26307  11297422.96907  22491810.64607  22491813.45907
 -27000208.69709 -21039113.78408  17984047.05709  17984047.63408
 -19178003.07808 -14943889.32508  19541553.57208  19541553.59308
 -34934579.69309 -27221726.16108  17623241.56809  17623242.58008
 -13915601.98008 -10843320.00608  20413443.88608  20413445.57108
 -30457222.40708 -23732882.48408  17917201.49108  17917202.01008
 -12575366.18908  -9798984.43708  20691164.53808  20691165.58508
 93 04 08 07 36 00.0000000  0  8 20 23 26 28 03 21 17 22
  14815353.77507  11544423.45607  22552131.08107  22552134.07807
 -27178894.89009 -21178349.73408  17950044.17909  17950044.73108
 -19137843.46408 -14912596.09808  19549195.64308  19549195.66608
        -0.01517        -0.67417  22424857.51917  22424858.14617
 -34995612.44209 -27269284.16308  17611627.42009  17611628.46508
 -14302283.67508 -11144630.32708  20339860.65608  20339862.49108
 -30546054.12308 -23802101.99608  17900297.36508  17900297.87608
 -12627316.93908  -9839465.63208  20681278.71108  20681279.73308
 93 04 08 07 38 00.0000000  0  8 20 23 26 28 03 21 17 22
  15129001.73007  11788823.93007  22611816.70207  22611819.80007
 -27351165.51009 -21312586.52708  17917262.12209  17917262.70308
 -19089077.26208 -14874596.46008  19558475.40908  19558475.49308
   -497397.61107   -387583.09507  22330205.73107  22330206.30607
 -35048731.47709 -27310675.64408  17601519.23009  17601520.24308
 -14685301.26408 -11443085.48008  20266974.72208  20266976.53908
 -30632072.99408 -23869129.67708  17883928.44808  17883929.03408
 -12671560.47408  -9873941.25208  20672859.60308  20672860.53608
 93 04 08 07 40 00.0000000  0  8 20 23 26 28 03 21 17 22
  15439171.62807  12030514.11007  22670840.50207  22670843.82307
 -27517267.95509 -21442016.96208  17885653.84709  17885654.42108
 -19031654.42708 -14829851.38108  19569402.71708  19569402.75608
   -994642.45407   -775046.41007  22235582.78407  22235583.41507
 -35093834.25709 -27345820.70108  17592936.49009  17592937.49008
 -15064573.16208 -11738621.93408  20194801.64008  20194803.38608
 -30715543.33908 -23934171.49708  17868044.52408  17868045.12408
 -12708163.19608  -9902463.00608  20665894.46708  20665895.54008
 93 04 08 07 42 00.0000000  0  8 28 20 23 26 03 21 17 22
  -1491531.43807  -1162232.42507  22141027.99407  22141028.55907
  15745800.05707  12269444.64307  22729190.49407  22729193.90007
 -27676984.86409 -21566471.65508  17855260.71309  17855261.21808
 -18965818.47608 -14778550.63908  19581930.88108  19581930.84908
 -35130748.07209 -27374584.74608  17585912.01909  17585913.06908
 -15440024.09008 -12031181.00808  20123355.69508  20123357.38708
 -30796278.14808 -23997081.73808  17852681.22708  17852681.78508
 -12737119.40808  -9925026.38308  20660384.31108  20660385.41808
 93 04 08 07 44 00.0000000  0  7 28 23 03 26 21 17 22
  -1987947.73107  -1549050.16307  22046563.11807  22046563.69507
 -27830083.41609 -21685769.18908  17826126.98809  17826127.49508
 -35159392.45509 -27396905.07308  17580461.19409  17580462.25208
 -18891546.30808 -14720676.22408  19596064.41808  19596064.47908
 -15811557.69508 -12320687.61808  20052655.13708  20052656.75208
 -30873955.65608 -24057609.65908  17837899.72408  17837900.24308
 -12758516.22408  -9941699.27408  20656312.68208  20656313.75708
 93 04 08 07 46 00.0000000  0  7 28 23 03 26 21 17 22
  -2483535.40508  -1935222.27607  21952255.69308  21952256.33107
 -27976849.77209 -21800132.53808  17798198.22709  17798198.71808
 -35179692.78009 -27412723.54908  17576598.21109  17576599.23208
 -18808987.92708 -14656345.01808  19611774.68108  19611774.81808
 -16179220.06408 -12607177.66908  19982691.22908  19982692.77108
 -30948908.78908 -24116014.69208  17823636.60408  17823637.14608
 -12772447.63608  -9952554.98808  20653661.62608  20653662.74608
 93 04 08 07 48 00.0000000  0  7 28 23 26 03 21 17 22
  -2978408.50608  -2320837.58907  21858084.37508  21858084.94807
 -28117626.34909 -21909828.52708  17771409.31109  17771409.77608
 -18717970.01608 -14585421.97308  19629094.85008  19629094.90108
 -35191526.55509 -27421944.71208  17574346.34709  17574347.40708
 -16542828.92808 -12890509.14408  19913498.68708  19913500.19008
 -31021192.21408 -24172339.43508  17809881.55308  17809882.11708
 -12778960.33808  -9957629.90808  20652422.40708  20652423.51708
 93 04 08 07 50 00.0000000  0  7 28 23 03 26 21 17 22
  -3472434.43808  -2705792.78208  21764074.37108  21764074.94708
 -28252232.47109 -22014716.37208  17745794.57009  17745795.02408
 -35194851.89209 -27424535.92708  17573713.58309  17573714.66908
 -18618469.10408 -14507888.79008  19648029.26408  19648029.26108
 -16902429.40908 -13170717.19808  19845068.93308  19845070.37108
 -31090368.76608 -24226243.23408  17796717.68608  17796718.19808
 -12778180.17908  -9957022.05008  20652570.83708  20652571.97908
 93 04 08 07 54 00.0000000  0  7 28 23 17 21 03 22 26
        -0.42818        -0.44618  21576769.17918  21576769.69118
        -0.80719        -0.06318  17698054.38719  17698054.83718
         0.37618        -0.21818  17772033.59018  17772034.11818
        -0.06118        -0.25518  19710549.04018  19710550.42818
        -0.18818        -0.43318  17577368.55918  17577369.66218
        -0.76518        -0.14718  20656966.33918  20656967.65718
        -0.24818        -0.55118  19690457.16618  19690457.09118
 93 04 08 07 56 00.0000000  0  7 28 23 17 21 03 22 26
   -490249.92008   -382012.96208  21483477.65408  21483478.17608
   -116399.16009    -90700.05408  17675904.43809  17675904.89208
    -60837.11808    -47406.05708  17760456.58208  17760457.13508
   -347616.96208   -270870.47508  19644399.65008  19644401.11908
     22561.21108     17579.83608  17581661.89108  17581662.98408
     22013.53208     17153.70408  20661155.78608  20661157.03808
    123241.19008     96031.72808  19713909.24208  19713909.24608
 93 04 08 07 58 00.0000000  0  7 28 23 21 17 03 22 26
   -979029.07008   -762879.74208  21390465.92508  21390466.34508
   -226719.71409   -176664.11508  17654911.17709  17654911.65308
   -691155.61908   -538562.82608  19579026.33908  19579027.80908
   -118495.35808    -92334.55608  17749484.63708  17749485.13008
     53817.17008     41935.10008  17587609.66308  17587610.80308
     50840.76908     39616.34808  20666641.51908  20666642.81208
    254473.21008    198290.44308  19738881.85008  19738881.94108
 93 04 08 08 00 00.0000000  0  7 28 23 21 17 03 22 26
  -1465987.82308  -1142328.02308  21297800.88708  21297801.29308
   -331273.94709   -258134.93408  17635015.16609  17635015.61408
  -1030504.21508   -802990.19408  19514450.37708  19514451.82008
   -173294.99608   -135035.56308  17739056.59108  17739057.11608
     93820.00908     73106.10008  17595222.02408  17595223.14608
     86368.26808     67300.00808  20673402.27908  20673403.51308
    393444.88108    306580.05108  19765327.33308  19765327.35508
 93 04 08 08 02 00.0000000  0  7 28 23 21 17 03 22 26
  -1951268.69008  -1520468.85908  21205454.81008  21205455.20108
   -429967.74709   -335039.17608  17616234.31309  17616234.73008
  -1365530.95808  -1064049.90708  19450696.88808  19450698.26708
   -224935.89508   -175275.22008  17729229.64808  17729230.16008
    142679.59708    111178.47608  17604519.72808  17604520.83108
    128544.93908    100164.86308  20681428.35108  20681429.43508
    540021.15708    420795.33608  19793219.93008  19793219.94008
 93 04 08 08 04 00.0000000  0  7 28 23 21 17 03 22 26
  -2434478.96308  -1896996.24008  21113502.85808  21113503.25008
   -523081.50009   -407595.33208  17598515.38509  17598515.82708
  -1696516.80708  -1321960.88008  19387712.31008  19387713.67808
   -273819.05008   -213365.99208  17719927.48908  17719928.00908
    200365.84108    156128.74408  17615497.07908  17615498.25308
    177180.29608    138062.45008  20690683.39108  20690684.52108
    694127.93608    540878.55208  19822545.39208  19822545.44408
 93 04 08 08 06 00.0000000  0  7 23 21 28 17 03 22 26
   -610246.59409   -475516.15508  17581928.40709  17581928.82008
  -2023359.65408  -1576643.52708  19325516.13808  19325517.46308
  -2915235.12708  -2271611.36108  21022017.90208  21022018.33708
   -319674.30108   -249097.35908  17711201.48208  17711201.99708
    267043.69608    208085.48708  17628185.45008  17628186.67708
    232280.84308    180997.87008  20701168.71108  20701169.85808
    855967.84408    666987.58608  19853342.45308  19853342.42908
 93 04 08 08 08 00.0000000  0  7 21 23 28 17 03 22 26
  -2345806.08708  -1827900.41208  19264156.52008  19264157.82708
   -691629.48809   -538931.37008  17566441.72009  17566442.10708
  -3393679.79308  -2644425.33008  20930972.86208  20930973.30208
   -362091.97308   -282150.07908  17703129.70908  17703130.20808
    342729.40908    267061.34908  17642587.97608  17642589.18508
    293709.57508    228864.33308  20712858.27608  20712859.53608
   1025070.50608    798755.90408  19885521.62608  19885521.68608
 93 04 08 08 10 00.0000000  0  7 21 28 23 17 03 22 26
  -2663872.06708  -2075743.95008  19203630.57108  19203631.73908
  -3869624.23308  -3015291.09008  20840403.59908  20840403.92508
   -767591.24609   -598122.32908  17551986.67109  17551987.06908
   -401198.74008   -312622.87908  17695687.94608  17695688.40508
    427487.71608    333106.72808  17658716.98808  17658718.19808
    361376.84908    281592.01008  20725734.97508  20725736.34808
   1201325.14708    936097.19908  19919061.67008  19919061.70108
 93 04 08 08 12 00.0000000  0  7 21 28 23 17 03 22 26
  -2977751.22808  -2320324.99008  19143901.26008  19143902.43308
  -4342639.91808  -3383874.68708  20750391.80008  20750392.08308
   -837962.70509   -652957.20109  17538595.39209  17538595.82409
   -437388.42308   -340822.62108  17688801.23208  17688801.74208
    521292.39308    406201.23608  17676567.46608  17676568.68808
    435105.22608    339042.61408  20739765.05808  20739766.50908
   1384850.01708   1079103.60808  19953985.19008  19953985.21808
 93 04 08 08 14 00.0000000  0  7 21 28 23 17 03 22 26
  -3287160.02208  -2561422.62908  19085022.67708  19085023.80308
  -4812671.70208  -3750133.13808  20660947.63008  20660948.05608
   -902586.88509   -703313.69209  17526297.82909  17526298.24109
   -470263.37808   -366439.46308  17682545.35308  17682545.85008
    624139.82108    486342.03708  17696138.74008  17696139.95908
    514745.01408    401099.51808  20754920.08908  20754921.53608
   1575294.31108   1227501.76508  19990225.67108  19990225.70608
 93 04 08 08 16 00.0000000  0  8 01 21 28 23 17 03 22 26
        -0.45917         0.38517  22049990.73317  22049993.92317
  -3592106.54908  -2799043.22608  19026993.20008  19026994.33008
  -5279384.31008  -4113805.21408  20572135.02408  20572135.41808
   -962057.35309   -749654.29209  17514980.90209  17514981.35509
   -499730.94408   -389401.19608  17676937.89208  17676938.38808
    736041.55008    573538.14208  17717432.95208  17717434.16508
    600163.97508    467659.68608  20771174.75108  20771176.31008
   1772449.34408   1381129.06908  20027743.03408  20027743.06608
 93 04 08 08 18 00.0000000  0  8 01 21 23 28 17 03 22 26
   -506261.12107   -394487.73307  21953651.98207  21953654.97307
  -3892736.99208  -3033300.64208  18969784.98708  18969786.20708
  -1016129.70509   -791788.56509  17504691.28509  17504691.69309
  -5743087.84708  -4475132.57608  20483895.19708  20483895.49908
   -525774.42208   -409694.81708  17671981.92408  17671982.42208
    857001.30408    667792.46108  17740450.84308  17740452.09708
    691224.18708    538615.63908  20788502.96608  20788504.42508
   1976693.99108   1540280.73908  20066609.45908  20066609.60208
 93 04 08 08 20 00.0000000  0  8 01 21 23 28 17 03 22 26
  -1013153.62807   -789468.26807  21857193.12207  21857195.98307
  -4188943.50608  -3264110.82608  18913418.63608  18913419.86008
  -1064891.93909   -829785.08009  17495412.12709  17495412.54809
  -6203373.00808  -4833796.27808  20396305.81308  20396306.11608
   -548366.78908   -427299.24808  17667682.75608  17667683.20008
    987039.94608    769121.21408  17765196.40608  17765197.65408
    787810.11208    613877.33908  20806882.82608  20806884.13008
   2187824.84208   1704798.28708  20106786.34408  20106786.43908
 93 04 08 08 22 00.0000000  0  8 01 21 23 28 17 03 22 26
  -1520771.43107  -1185014.01907  21760596.23107  21760598.94807
  -4480978.36208  -3491670.38108  18857846.24608  18857847.41308
  -1108674.76609   -863901.53409  17487080.46809  17487080.90609
  -6659914.21808  -5189542.61308  20309428.82408  20309429.07808
   -567530.81408   -442232.25108  17664035.96808  17664036.41608
   1126140.82808    877511.46408  17791666.51408  17791667.70908
    889770.18908    693326.68508  20826285.18108  20826286.63608
   2405342.14008   1874292.28108  20148178.45108  20148178.50808
 93 04 08 08 24 00.0000000  0  8 01 21 28 23 17 03 22 26
  -2029062.37807  -1581084.36807  21663871.36207  21663873.93407
  -4768623.39008  -3715809.26108  18803109.13408  18803110.26808
  -7112116.15708  -5541907.71008  20223377.70508  20223377.92808
  -1147228.15709   -893943.10609  17479744.03809  17479744.43209
   -583221.04508   -454458.41208  17661050.21308  17661050.66808
   1274292.53708    992954.30708  17819858.92508  17819860.11608
    996963.66708    776853.99908  20846683.53308  20846685.02708
   2629073.92008   2048628.73008  20190753.29108  20190753.33308
 93 04 08 08 26 00.0000000  0  8 01 21 28 23 17 03 22 26
  -2537864.75607  -1977553.30708  21567049.14307  21567051.72508
  -5051366.60108  -3936128.56208  18749304.91208  18749305.98808
  -7560613.01108  -5891385.72908  20138031.59508  20138031.80408
  -1180520.92109   -919885.49108  17473408.58609  17473408.96108
   -595291.97708   -463864.31908  17658753.12208  17658753.58208
   1431502.12808   1115455.23108  17849774.91708  17849776.18108
   1109270.41108    864365.68908  20868054.84808  20868056.30608
   2859283.05208   2228012.46308  20234560.61208  20234560.66408
 93 04 08 08 28 00.0000000  0  8 01 21 28 23 17 03 22 26
  -3046682.12507  -2374033.96608  21470224.06407  21470226.62308
  -5329947.91608  -4153204.83008  18696292.58608  18696293.60408
  -8004780.37208  -6237490.13908  20053509.31608  20053509.55408
  -1208822.24709   -941938.45708  17468023.02209  17468023.38208
   -603686.99708   -470405.88808  17657155.63608  17657156.12408
   1597677.89208   1244942.78508  17881397.15708  17881398.43008
   1226477.94808    955696.20108  20890358.65708  20890360.13408
   3095657.59508   2412200.39408  20279541.15608  20279541.22208
 93 04 08 08 30 00.0000000  0  8 01 21 28 23 17 03 22 26
  -3555299.68908  -2770358.97308  21373437.13208  21373439.51108
  -5604365.41808  -4367036.56308  18644072.59708  18644073.65208
  -8444377.24808  -6580033.12808  19969856.66408  19969856.90808
  -1232445.73209   -960346.35008  17463527.62609  17463527.97708
   -608622.85208   -474252.01408  17656216.39108  17656216.84708
   1772771.64208   1381379.41708  17914716.41508  17914717.71208
   1348419.67208   1050715.67108  20913563.37308  20913564.90708
   3337743.91308   2600839.06008  20325608.73808  20325608.75608
 93 04 08 08 32 00.0000000  0  8 01 21 28 23 17 03 22 26
  -4063906.15308  -3166675.33508  21276652.35808  21276654.61208
  -5874111.42508  -4577228.16608  18592741.52108  18592742.56708
  -8879346.09408  -6918969.85608  19887084.97608  19887085.17708
  -1251014.25909   -974815.32608  17459994.11009  17459994.44108
   -609873.18208   -475226.30608  17655978.46008  17655978.92408
   1956746.86708   1524736.68008  17949725.77708  17949727.08608
   1474944.67808   1149306.49408  20937640.28408  20937641.92808
   3585800.72208   2794130.07108  20372812.45308  20372812.47708
 93 04 08 08 34 00.0000000  0  8 01 21 28 23 17 03 22 26
  -4572510.24008  -3562989.88708  21179868.00008  21179870.11708
  -6139540.36408  -4784055.83708  18542232.01108  18542233.00808
  -9309730.30608  -7254334.14208  19805185.38408  19805185.59208
  -1265217.23009   -985882.56508  17457291.39609  17457291.70208
   -607230.45408   -473167.04408  17656481.36108  17656481.77108
   2149504.39208   1674937.29608  17986406.33808  17986407.65308
   1605843.94308   1251305.84608  20962549.72608  20962551.33108
   3839445.82208   2991775.57208  20421079.43108  20421079.50108
 93 04 08 08 36 00.0000000  0  8 22 01 21 28 23 17 03 26
   1740985.24708   1356610.68408  20988266.36908  20988268.01008
  -5080539.96608  -3958856.94408  21083192.94308  21083194.98008
  -6400666.78808  -4987530.88408  18492541.25708  18492542.23908
  -9735103.67808  -7585793.88808  19724239.63808  19724239.87508
  -1274742.51609   -993304.85708  17455478.78509  17455479.14308
   -600745.21608   -468113.61608  17657715.44208  17657715.87308
   2351016.63808   1831959.77608  18024752.89608  18024754.20508
   4098767.57908   3193844.41308  20470426.71708  20470426.89008
 93 04 08 08 38 00.0000000  0  8 22 21 28 23 17 03 26 01
   1880251.25508   1465129.57008  21014767.84008  21014769.50608
  -6657187.70808  -5187417.22008  18443726.85608  18443727.82208
 -10155190.02508  -7913133.87608  19644299.89508  19644300.11608
  -1279478.01809   -996994.85308  17454577.60809  17454577.99108
   -590499.13008   -460129.66608  17659665.21908  17659665.65008
   2561266.54408   1995790.82908  18064762.17908  18064763.48408
   4363353.04108   3400014.86108  20520775.68108  20520775.90208
  -5587975.72608  -4354261.21908  20986630.85908  20986632.91508
 93 04 08 08 40 00.0000000  0  8 22 21 28 23 17 03 26 01
   2023418.84508   1576688.66308  21042011.74308  21042013.35708
  -6909621.47008  -5384118.77108  18395690.27708  18395691.26008
 -10569918.72408  -8236299.07708  19565379.48008  19565379.73808
  -1279727.83909   -997189.51308  17454530.11309  17454530.45208
   -576163.89208   -448959.36408  17662393.20608  17662393.59708
   2780128.32508   2166332.41608  18106410.23008  18106411.54308
   4632886.69308   3610041.05508  20572066.26708  20572066.44108
  -6094524.22608  -4748974.12908  20890237.78408  20890239.85708
 93 04 08 08 42 00.0000000  0  8 22 21 28 23 17 03 26 01
   2170347.20808   1691178.18208  21069971.33408  21069972.99008
  -7157390.31208  -5577185.31308  18348541.34908  18348542.31508
 -10979013.25908  -8555074.00408  19487531.32208  19487531.59308
  -1275881.28509   -994192.19208  17455262.09309  17455262.41608
   -558070.89308   -434860.94308  17665836.17708  17665836.57308
   3007551.86008   2343545.50208  18149687.51008  18149688.85808
   4907655.26708   3824146.42108  20624353.00408  20624353.08008
  -6600402.25908  -5143164.63508  20793972.09808  20793974.15308
 93 04 08 08 44 00.0000000  0  8 22 21 28 23 17 03 26 01
   2320827.44508   1808435.46808  21098606.82808  21098608.49308
  -7400729.28708  -5766800.02708  18302235.45308  18302236.36008
 -11382620.53108  -8869573.14708  19410727.44208  19410727.62708
  -1267787.59609   -987885.40608  17456802.24809  17456802.59008
   -536193.15208   -417813.36208  17669999.35408  17669999.78008
   3243416.20508   2527335.82408  18194571.00108  18194572.42708
   5187595.90308   4042281.98408  20677623.96208  20677623.99308
  -7104857.90008  -5536246.79008  20697977.19608  20697979.29908
 93 04 08 08 46 00.0000000  0  8 22 21 28 23 17 03 26 01
   2474707.52608   1928341.93008  21127889.31808  21127891.00808
  -7640014.86608  -5953256.24008  18256700.87508  18256701.74608
 -11780176.20208  -9179356.73408  19335075.16508  19335075.22808
  -1255473.21809   -978289.77608  17459145.57109  17459145.88308
   -510248.25508   -397596.57208  17674936.47408  17674936.91108
   3487649.70708   2717647.56408  18241047.19108  18241048.63408
   5472165.19408   4264024.26308  20731775.59208  20731775.74008
  -7607959.05808  -5928273.52408  20602240.13508  20602242.14408
 93 04 08 08 48 00.0000000  0  8 22 21 28 23 17 03 26 01
   2631818.94608   2050766.33608  21157786.79808  21157788.33608
  -7874964.67108  -6136333.93308  18211991.37208  18211992.21208
 -12171638.14008  -9484391.96308  19260582.33208  19260582.36708
  -1239149.64009   -965570.09508  17462251.83609  17462252.16708
   -480140.89308   -374136.28808  17680665.74708  17680666.13408
   3740161.99808   2914410.34108  18289098.70908  18289100.17008
   5761271.74408   4489302.09708  20786790.87508  20786790.97008
  -8109772.69208  -6319296.99008  20506748.08108  20506750.05108
 93 04 08 08 50 00.0000000  0  8 22 21 28 23 17 03 26 01
   2791960.55808   2175551.96308  21188260.84308  21188262.50308
  -8105520.94708  -6315988.11508  18168117.92608  18168118.76108
 -12556945.11108  -9784631.13208  19187260.78808  19187260.83208
  -1218621.19709   -949573.88508  17466158.24209  17466158.57808
   -445986.36608   -347522.40508  17687165.16308  17687165.63608
   4000827.86808   3117526.56808  18338701.79308  18338703.23508
   6054608.65108   4717876.30408  20842610.95608  20842611.08708
  -8610058.71308  -6709130.08608  20411546.70108  20411548.64808
 93 04 08 08 52 00.0000000  0  8 22 21 28 23 17 03 26 01
   2954906.75108   2302522.95208  21219268.39108  21219270.09808
  -8331702.41808  -6492233.35908  18125076.98308  18125077.81208
 -12935713.40308 -10079775.23808  19115183.64808  19115183.70208
  -1194001.54709   -930389.72708  17470843.20109  17470843.55508
   -407773.99808   -317746.51408  17694436.70508  17694437.21808
   4269485.70308   3326870.26708  18389825.73608  18389827.18508
   6352257.54408   4949810.46308  20899251.63908  20899251.83108
  -9108482.09008  -7097511.78008  20316699.81708  20316701.71708
 93 04 08 08 54 00.0000000  0  7 22 26 28 23 17 03 01
   3120465.96908   2431530.01008  21250773.34608  21250775.00408
   6654075.46308   5184993.20108  20956685.78008  20956685.91808
 -13307984.02008 -10369856.21308  19044342.89108  19044342.93208
  -1165771.23809   -908392.07008  17476215.24509  17476215.62208
   -365397.77408   -284726.10408  17702500.66808  17702501.19308
   4546012.72608   3542345.78808  18442447.14008  18442448.63508
  -9605093.42208  -7484481.50508  20222197.75208  20222199.56308
 93 04 08 08 56 00.0000000  0  8 22 26 21 28 23 17 03 01
   3288498.20708   2562464.12208  21282748.85908  21282750.68908
   6959555.89108   5423029.90008  21014816.64808  21014816.90708
         0.36318        -0.40218  18041270.79618  18041271.60118
 -13673697.41008 -10654827.65308  18974749.88408  18974749.99308
  -1133949.12609   -883595.61008  17482270.72809  17482271.11908
   -318729.46808   -248361.22808  17711381.37708  17711381.87008
   4830324.77808   3763887.59108  18496550.06408  18496551.49208
 -10099388.26808  -7869646.17208  20128136.45508  20128138.27308
 93 04 08 08 58 00.0000000  0  8 22 26 21 28 23 17 03 01
   3458789.27708   2695158.35508  21315154.29508  21315156.09308
   7268926.98208   5664098.24208  21073688.12408  21073688.35108
   -213665.81808   -166493.49708  18000611.42408  18000612.23708
 -14032553.01908 -10934455.37308  18906461.72308  18906461.89108
  -1098591.75809   -856044.40308  17488999.06809  17488999.43008
   -267772.44308   -208654.50208  17721078.25308  17721078.71908
   5122264.38808   3991372.97308  18552104.37608  18552105.78308
 -10591523.44408  -8253127.99308  20034486.16608  20034487.92408
 93 04 08 09 00 00.0000000  0  8 22 26 21 28 23 17 03 01
   3631180.14108   2829488.75408  21347959.28308  21347961.11608
   7581875.51708   5907954.24708  21133240.27408  21133240.55508
   -423461.53908   -329970.64408  17960688.66808  17960689.43408
 -14384234.99508 -11208493.25408  18839538.87008  18839539.01708
  -1059671.81909   -825717.16908  17496405.29809  17496405.62708
   -212804.56408   -165822.40408  17731538.28608  17731538.77208
   5421721.89008   4224716.41908  18609089.30008  18609090.71708
 -11081611.40308  -8635014.57508  19941225.40308  19941227.11008
 93 04 08 09 02 00.0000000  0  8 22 26 21 28 23 17 03 01
   3805503.80807   2965325.24608  21381132.05507  21381133.87508
   7898103.62907   6154365.71708  21193416.39807  21193416.78708
   -629045.11108   -490165.61908  17921567.37508  17921568.10708
 -14728698.85608 -11476906.64008  18773989.64808  18773989.79308
  -1017090.92909   -792537.24608  17504508.11409  17504508.49008
   -153462.15808   -119581.59608  17742830.79408  17742831.28408
   5728576.09108   4463823.49508  18667481.75308  18667483.21408
 -11568875.27008  -9014700.55408  19848502.08608  19848503.73108
 93 04 08 09 04 00.0000000  0  8 22 26 21 28 23 17 03 01
   3981572.96607   3102521.90807  21414636.93107  21414638.76007
   8217725.17807   6403421.38307  21254238.44307  21254238.82307
   -830621.26908   -647237.90708  17883208.68508  17883209.44808
 -15065639.71508 -11739457.94408  18709872.00708  18709872.11908
   -971421.95609   -756951.02108  17513198.62509  17513199.00608
    -89517.13008    -69754.34308  17754999.14208  17754999.72008
   6042680.04008   4708579.74008  18727253.76608  18727255.25908
 -12053219.49808  -9392111.50408  19756334.27608  19756335.96308
 93 04 08 09 06 00.0000000  0  8 22 26 21 28 23 17 03 01
   4159169.08508   3240908.39007  21448432.40708  21448434.40807
   8540403.90507   6654859.29007  21315642.29707  21315642.56407
  -1028154.58908   -801159.93508  17845619.29008  17845620.06608
 -15395113.97508 -11996191.12708  18647174.90808  18647175.04508
   -922448.57609   -718789.93308  17522517.95909  17522518.32008
    -21410.67708    -16684.38408  17767959.42508  17767959.99608
   6363852.02408   4958843.54308  18788370.79308  18788372.30508
 -12534719.87708  -9767306.45108  19664707.62408  19664709.23908
 93 04 08 09 08 00.0000000  0  8 22 26 21 28 23 17 03 01
   4338119.46707   3380350.13207  21482485.58307  21482487.64207
   8865595.59207   6908255.40407  21377524.21507  21377524.43307
  -1221824.46208   -952071.48108  17808765.11908  17808765.85008
 -15716962.37108 -12246982.07008  18585929.31408  18585929.45108
   -870056.03309   -677964.54108  17532487.95109  17532488.30708
     50969.67808     39715.85308  17781732.91008  17781733.50108
   6691951.58308   5214505.47608  18850806.18908  18850807.63508
 -13013164.27708 -10140120.13108  19573662.64608  19573664.12908
 93 04 08 09 10 00.0000000  0  8 22 26 21 28 23 17 03 01
   4518271.77807   3520728.42707  21516767.63507  21516769.65607
   9193913.91907   7164087.79007  21440001.20707  21440001.43107
  -1411593.97008  -1099943.78508  17772653.18508  17772653.86308
 -16031043.70208 -12491720.77108  18526161.72108  18526161.84508
   -814779.37008   -634891.79908  17543006.75608  17543007.11508
    127920.42008     99677.44908  17796376.16108  17796376.76108
   7026853.70508   5475468.08508  18914536.01508  18914537.48908
 -13488203.48408 -10510280.41308  19483265.59108  19483267.03508
 93 04 08 09 12 00.0000000  0  8 22 26 21 28 23 17 03 01
   4699387.99307   3661857.87507  21551232.92307  21551235.06007
   9524873.73007   7421978.42307  21502980.99007  21502981.11607
  -1597217.31508  -1244585.31708  17737330.17708  17737330.89408
 -16337183.29608 -12730271.10108  18467905.28008  18467905.45908
   -756416.10608   -589413.92208  17554112.82508  17554113.23808
    209324.54908    163109.22108  17811866.89508  17811867.50208
   7368344.55708   5741564.73308  18979519.61708  18979521.16308
 -13960082.06308 -10877977.86108  19393469.95008  19393471.38508
 93 04 08 09 14 00.0000000  0  8 22 26 21 28 23 17 03 01
   4881301.17507   3803608.35407  21585849.74507  21585851.98507
   9858004.62307   7681560.91707  21566373.67307  21566373.72707
  -1778695.05008  -1385996.52508  17702796.07408  17702796.83008
 -16635085.73608 -12962402.86608  18411216.28108  18411216.49708
   -695275.76908   -541772.09708  17565747.46108  17565747.84508
    294927.43308    229812.73408  17828156.60008  17828157.19208
   7716276.56908   6012680.51108  19045728.91408  19045730.48108
 -14428192.97608 -11242739.48208  19304391.28708  19304392.78208
 93 04 08 09 16 00.0000000  0  8 22 26 21 28 23 17 03 01
   5063828.94707   3945837.68507  21620583.76607  21620585.78607
  10193456.82807   7942952.15007  21630208.33107  21630208.19707
  -1956567.28008  -1524598.21908  17668948.06808  17668948.85808
 -16924857.68608 -13188199.18308  18356074.59108  18356074.75408
   -631494.57808   -492072.46008  17577884.67808  17577885.03208
    385393.21308    300305.52408  17845371.61008  17845372.20608
   8070483.25708   6288685.65908  19113132.21308  19113133.86108
 -14892806.99608 -11604776.23508  19215978.11908  19215979.56208
 93 04 08 09 18 00.0000000  0  7 22 21 28 23 17 03 01
   5246812.39107   4088422.04107  21655404.51507  21655406.59907
  -2130946.90608  -1660478.40708  17635764.71508  17635765.47708
 -17206201.12108 -13407427.83208  18302536.73308  18302536.85308
   -564777.25508   -440084.93308  17590580.52208  17590580.89808
    480249.70208    374219.63808  17863422.29808  17863422.91308
   8430815.99108   6569464.34708  19181701.31208  19181702.95608
 -15353726.79008 -11963934.38808  19128267.97308  19128269.29908
 93 04 08 09 20 00.0000000  0  8 22 11 21 28 23 17 03 01
   5430028.96607   4231188.08907  21690269.61307  21690271.58007
        -0.66917        -0.69717  22137737.33017  22137739.12317
  -2301505.00208  -1793380.78808  17603308.55408  17603309.32008
 -17479115.06308 -13620088.03508  18250603.04808  18250603.13108
   -495649.01908   -386218.78808  17603735.17708  17603735.56308
    579655.92208    451679.00008  17882338.70008  17882339.30608
   8797060.66208   6854849.73308  19251395.44808  19251397.05508
 -15810602.16708 -12319941.00908  19041327.34508  19041328.63908
 93 04 08 09 22 00.0000000  0  8 22 11 21 28 23 17 03 01
   5613339.70907   4374027.51807  21725152.53707  21725154.65807
   -516129.80607   -402179.21507  22039521.17807  22039523.00807
  -2468069.14208  -1923170.99608  17571612.40008  17571613.18408
 -17743399.35408 -13826023.84708  18200311.42308  18200311.53708
   -423832.28408   -330257.69908  17617401.44008  17617401.80908
    683633.69308    532700.61308  17902125.04408  17902125.61308
   9169079.51508   7144734.48208  19322188.32308  19322189.90308
 -16263108.96008 -12672543.55508  18955218.01708  18955219.30408
 93 04 08 09 24 00.0000000  0  8 22 11 21 28 23 17 03 01
   5796555.10507   4516792.68507  21760017.42707  21760019.53107
  -1032553.88007   -804587.55207  21941248.92607  21941250.69307
  -2631104.86208  -2050211.79008  17540587.70108  17540588.48408
 -17998837.51508 -14025066.57008  18151702.93708  18151703.02008
   -349287.90808   -272171.16408  17631586.75808  17631587.13508
    792193.29408    617292.48908  17922783.32108  17922783.81708
   9546684.13908   7438971.74108  19394044.17708  19394045.89308
 -16711117.95508 -13021641.31908  18869964.60008  18869965.84308
 93 04 08 09 26 00.0000000  0  8 22 11 21 28 23 17 03 01
   5979577.17807   4659407.18507  21794845.41207  21794847.57207
  -1549033.37107  -1207039.03207  21842966.07707  21842967.91207
  -2790526.59008  -2174436.47608  17510250.72808  17510251.47208
 -18245548.99808 -14217309.26508  18104755.39108  18104755.50908
   -272469.05008   -212312.31908  17646204.92508  17646205.26408
    905672.56508    705717.86608  17944377.63308  17944378.25208
   9929771.95608   7737481.62808  19466943.36008  19466945.23308
 -17154723.79708 -13367308.09108  18785549.11108  18785550.41308
 93 04 08 09 28 00.0000000  0  8 22 11 21 28 23 17 03 01
   6162187.74407   4801701.03407  21829595.08807  21829597.31607
  -2065448.23307  -1609440.13907  21744695.54107  21744697.41707
  -2946495.33908  -2295970.53308  17480570.84208  17480571.56408
 -18483204.15108 -14402495.09708  18059531.05208  18059531.12408
   -192962.36208   -150359.06108  17661334.56808  17661334.87908
   1023870.18808    797819.91308  17966869.82208  17966870.47508
  10318116.40408   8040087.59708  19540842.95808  19540844.79508
 -17593790.01708 -13709437.47308  18701997.53608  18701998.78908
 93 04 08 09 30 00.0000000  0  8 22 11 21 28 23 17 03 01
   6344191.38907   4943521.95607  21864229.21407  21864231.59207
  -2581652.46107  -2011677.12007  21646465.08707  21646466.87407
  -3098724.06608  -2414590.28408  17451602.64808  17451603.33108
 -18711924.80208 -14580718.99508  18016006.98308  18016007.07908
   -111408.20808    -86810.38508  17676853.79308  17676854.13408
   1146739.29508    893562.06008  17990251.10108  17990251.72608
  10711510.94408   8346628.68208  19615703.57908  19615705.39708
 -18027940.95508 -14047736.75608  18619381.23408  18619382.40508
 93 04 08 09 32 00.0000000  0  8 22 11 21 28 23 17 03 01
   6525417.57307   5084737.07207  21898715.44007  21898717.81107
  -3097474.43208  -2413616.28407  21548307.38408  21548309.17407
  -3246944.13808  -2530086.41708  17423397.34308  17423398.01908
 -18931297.84508 -14751659.04608  17974261.63008  17974261.82208
    -27895.39608    -21735.46408  17692745.72708  17692746.08308
   1274120.20008    992819.87008  18014490.97108  18014491.57008
  11109769.88008   8656960.21308  19691489.76008  19691491.64308
 -18457103.03008 -14382148.63108  18537714.34008  18537715.46908
 93 04 08 09 34 00.0000000  0  8 22 11 21 28 23 17 03 01
   6705670.92107   5225194.12407  21933016.60907  21933018.74407
  -3612765.09708  -2815141.45208  21450250.85208  21450252.57508
  -3392192.34708  -2643266.80308  17395757.47308  17395758.16908
 -19141091.21108 -14915134.41408  17934339.33008  17934339.47708
     57970.08908     45172.71808  17709085.36108  17709085.72108
   1406112.50608   1095670.98408  18039608.30908  18039608.92308
  11512680.36408   8970916.34808  19768161.15608  19768163.03608
 -18881287.82408 -14712682.13008  18456994.51708  18456995.67908
 93 04 08 09 36 00.0000000  0  8 22 11 21 28 23 17 03 01
   6884821.41907   5364791.82206  21967108.02207  21967110.23006
  -4127309.59708  -3216085.17008  21352336.26308  21352337.99208
  -3534071.25708  -2753821.77508  17368758.76008  17368759.46608
 -19341790.03508 -15071523.12008  17896147.62508  17896147.72708
    146040.71408    113799.17208  17725844.68908  17725845.06008
   1543140.76108   1202446.21708  18065683.90308  18065684.59308
  11920089.47008   9288377.86108  19845688.60208  19845690.50608
 -19300094.00408 -15039024.49908  18377298.32308  18377299.40808
 93 04 08 09 38 00.0000000  0  8 11 22 21 28 23 17 03 01
  -4640904.49808  -3616288.94408  21254602.39608  21254604.06908
   7062726.30607   5503418.89206  22000962.24907  22000964.31406
  -3672057.82908  -2861343.75008  17342500.77208  17342501.48108
 -19533183.06908 -15220660.55208  17859726.90008  17859726.96508
    236173.97008    184032.87608  17742996.51308  17742996.85708
   1684648.00608   1312711.56708  18092611.81408  18092612.54408
  12331830.37408   9609214.83108  19924040.30608  19924042.26408
 -19713379.75908 -15361065.23608  18298652.55608  18298653.60408
 93 04 08 09 40 00.0000000  0  7 11 21 28 23 17 03 01
  -5153372.37808  -4015614.54208  21157082.96608  21157084.68408
  -3806917.90608  -2966429.48908  17316837.74808  17316838.46408
 -19715087.20308 -15362404.03708  17825111.61708  17825111.65908
    328326.48108    255840.00208  17760532.55708  17760532.90508
   1830930.90108   1426698.17808  18120448.51408  18120449.27608
  12747704.87308   9933272.77908  20003178.73808  20003180.65808
 -20121184.83708 -15678835.33008  18221049.82408  18221050.81908
 93 04 08 09 42 00.0000000  0  8 12 11 21 28 23 17 03 01
        -0.48918        -0.32417  21306855.96618  21306858.51717
  -5664583.09008  -4413960.53508  21059802.77508  21059804.49108
  -3938233.73308  -3068753.48008  17291849.17308  17291849.87008
 -19887335.46208 -15496623.47608  17792333.86508  17792333.89808
    421911.63808    328763.50208  17778341.19508  17778341.57608
   1982239.23708   1544600.73308  18149241.62708  18149242.31208
  13167464.36808  10260358.01308  20083056.44808  20083058.35808
 -20523451.60108 -15992289.87008  18144500.90508  18144501.89308
 93 04 08 09 44 00.0000000  0  8 12 21 28 23 17 03 11 01
   -339349.05408   -264427.73308  21242280.05908  21242282.54408
  -4066359.12308  -3168591.41308  17267467.68608  17267468.37508
 -20049922.10208 -15623314.38208  17761394.65508  17761394.74508
    517388.99808    403161.46008  17796509.94208  17796510.32408
   2138267.62908   1666181.26308  18178932.87508  18178933.54108
  13590955.65108  10590351.11808  20163644.22908  20163646.18308
  -6174307.15708  -4811148.09708  20962805.54108  20962807.22908
 -20919817.98808 -16301146.71108  18069074.85908  18069075.76908
 93 04 08 09 46 00.0000000  0  8 12 21 28 23 17 03 11 01
   -674819.84408   -525833.42508  21178442.03208  21178444.40708
  -4191297.39208  -3265945.86908  17243692.73808  17243693.35808
 -20203001.52708 -15742597.06508  17732264.65208  17732264.81308
    614918.03208    479158.11108  17815069.08008  17815069.44908
   2298979.33108   1791411.10908  18209515.26308  18209516.00708
  14017986.09508  10923102.02008  20244905.46708  20244907.48308
  -6682351.80408  -5207027.02108  20866127.82708  20866129.42208
 -21310397.47508 -16605494.27908  17994749.95808  17994750.84608
 93 04 08 09 48 00.0000000  0  8 12 21 28 23 17 03 11 01
  -1006240.67108   -784083.31508  21115374.62108  21115376.97308
  -4312939.31508  -3360731.74708  17220545.04308  17220545.61108
 -20346225.44208 -15854200.12908  17705010.09408  17705010.20408
    714203.25408    556523.20908  17833962.43708  17833962.80908
   2464382.88408   1920296.91008  18240990.56108  18240991.34708
  14448302.75708  11258413.63708  20326791.90508  20326794.03008
  -7188580.15408  -5601490.64708  20769795.80308  20769797.36808
 -21694945.11208 -16905141.70408  17921572.87908  17921573.80308
 93 04 08 09 50 00.0000000  0  8 12 21 28 23 17 03 11 01
  -1333266.86908  -1038908.82208  21053143.55708  21053145.94508
  -4431250.36708  -3452922.13108  17198031.17008  17198031.72808
 -20479692.59908 -15958200.52308  17679612.06808  17679612.19308
    815093.05708    635138.63708  17853161.09808  17853161.42508
   2634584.55308   2052921.54208  18273378.98908  18273379.81508
  14881826.29508  11596224.13008  20409288.67908  20409290.86308
  -7692679.57208  -5994295.34908  20673868.82808  20673870.35708
 -22072844.09208 -17199608.33308  17849661.03908  17849661.89408
 93 04 08 09 52 00.0000000  0  8 21 28 23 17 03 12 11 01
  -4546349.13008  -3542609.43608  17176128.51008  17176129.09808
 -20603541.06908 -16054705.83708  17656044.45808  17656044.57508
    917860.44808    715217.12208  17872717.09208  17872717.40908
   2809528.91508   2189241.77508  18306669.75708  18306670.61208
  15318292.52608  11936327.62308  20492345.61508  20492347.64108
  -1655739.14308  -1290185.79408  20991779.05208  20991781.37908
  -8194519.65108  -6385339.50308  20578371.75108  20578373.34508
 -22444764.63508 -17489416.45608  17778886.83408  17778887.68108
 93 04 08 09 54 00.0000000  0  8 21 28 23 17 03 12 11 01
  -4658339.03308  -3629874.25908  17154817.49808  17154818.12008
 -20717133.65808 -16143219.56408  17634428.58908  17634428.73108
   1022041.52008    796397.17008  17892542.12508  17892542.46508
   2989094.75408   2329163.17208  18340840.10008  18340840.88008
  15757539.69708  12278598.07508  20575931.70608  20575933.69208
  -1973396.94908  -1537711.21708  20931330.71208  20931332.91508
  -8693865.35108  -6774439.98108  20483349.34008  20483350.94608
 -22810342.44408 -17774282.18808  17709319.61808  17709320.44008
 93 04 08 09 56 00.0000000  0  8 21 28 23 17 03 12 11 01
  -4767275.99708  -3714760.15808  17134087.46708  17134088.06208
 -20820739.22908 -16223951.19008  17614713.17308  17614713.31508
   1127538.49108    878602.59908  17912617.58608  17912617.93308
   3173806.35208   2473094.21808  18375989.55108  18375990.43108
  16199399.47908  12622904.30408  20660014.84308  20660016.92608
  -2285987.80208  -1781288.35908  20871846.50908  20871848.73708
  -9190485.22008  -7161416.44108  20388845.69608  20388847.20308
 -23169220.56008 -18053927.38408  17641027.34808  17641028.12108
 93 04 08 09 58 00.0000000  0  8 21 28 23 17 03 12 11 01
  -4873137.41508  -3797249.52008  17113942.64008  17113943.22908
 -20914897.74008 -16297321.47808  17596795.33008  17596795.45708
   1235020.73908    962354.97808  17933070.75808  17933071.16808
   3363340.53308   2620783.13008  18412056.74008  18412057.61508
  16643673.85408  12969092.04808  20744557.41908  20744559.64708
  -2593290.84008  -2020745.13808  20813368.46008  20813370.71308
  -9684176.20008  -7546110.63908  20294899.36508  20294900.88308
 -23521193.44908 -18328191.86708  17574049.07608  17574049.83408
 93 04 08 10 00 00.0000000  0  8 21 28 23 17 03 12 11 01
  -4975660.35908  -3877137.51008  17094433.20408  17094433.76108
 -20998918.62608 -16362792.31808  17580806.70308  17580806.85408
   1344009.97308   1047281.64508  17953810.70008  17953811.16108
   3557441.41608   2772030.52208  18448993.02308  18448993.85608
  17090133.72008  13316982.76208  20829515.97408  20829518.29508
  -2895117.85708  -2255934.88208  20755932.58208  20755934.87208
 -10174764.48608  -7928387.14708  20201543.42908  20201544.93708
 -23866269.27208 -18597082.04408  17508383.24708  17508384.04108
 93 04 08 10 02 00.0000000  0  8 21 28 23 17 03 12 11 01
  -5075104.33808  -3954626.31208  17075509.67608  17075510.20108
 -21072953.51308 -16420481.85608  17566718.45308  17566718.56708
   1454083.51408   1133053.22108  17974756.99408  17974757.43508
   3756585.91808   2927207.99808  18486889.02308  18486889.86408
  17538610.08608  13666444.78608  20914858.29908  20914860.52808
  -3191224.32408  -2486667.08508  20699585.34608  20699587.66408
 -10662014.77108  -8308062.62308  20108822.73308  20108824.18108
 -24204556.00108 -18860682.01808  17444009.39908  17444010.12608
 93 04 08 10 04 00.0000000  0  8 03 21 28 23 17 12 11 01
  17988888.54908  14017311.05308  21000543.48408  21000545.71908
  -5171497.57808  -4029737.90008  17057166.63108  17057167.13308
 -21137176.18708 -16470525.52808  17554497.26408  17554497.32808
   1565643.72108   1219983.22008  17995986.26708  17995986.63608
   3960277.05008   3085928.32508  18525650.14108  18525651.05808
  -3481413.22508  -2712788.17608  20644364.18208  20644366.36208
 -11145735.94908  -8684988.14108  20016773.50708  20016775.08008
 -24535959.62808 -19118918.54808  17380945.33608  17380946.02708
 93 04 08 10 06 00.0000000  0  8 03 21 28 23 17 12 11 01
  18440759.65708  14369418.35607  21086531.75108  21086533.89207
  -5264891.24308  -4102512.15108  17039394.36208  17039394.85908
 -21191630.91208 -16512957.80608  17544134.94008  17544135.00508
   1678724.57308   1308098.17208  18017504.77208  18017505.19108
   4168597.02008   3248255.49208  18565292.14408  18565293.10308
  -3765485.36708  -2934142.94108  20590306.90808  20590309.07808
 -11625730.76108  -9059010.00108  19925433.52108  19925435.08708
 -24860173.74608 -19371552.85008  17319249.36108  17319250.05608
 93 04 08 10 08 00.0000000  0  8 03 21 28 23 17 12 11 01
  18893967.30908  14722567.14007  21172774.31508  21172776.50307
  -5355434.96608  -4173065.68108  17022164.44208  17022164.91408
 -21236179.08008 -16547670.69908  17535657.70708  17535657.84508
   1793283.63208   1397364.96908  18039304.56808  18039305.08508
   4381803.75808   3414390.53808  18605864.08808  18605865.09208
  -4043292.47208  -3150615.86308  20537441.83808  20537443.91008
 -12101848.16608  -9430010.50908  19834831.26608  19834832.92808
 -25177209.69508 -19618593.79808  17258919.36808  17258920.06408
 93 04 08 10 10 00.0000000  0  8 03 21 28 23 17 12 11 01
  19348311.52707  15076601.55007  21259233.08907  21259235.42407
  -5443057.05608  -4241342.63808  17005490.51208  17005491.00208
 -21271245.25408 -16574995.02308  17528984.76608  17528984.93808
   1909025.87008   1487553.70808  18061329.64108  18061330.11408
   4599231.53008   3583814.71408  18647239.20508  18647240.21308
  -4314634.69308  -3362051.23408  20485807.06508  20485809.04608
 -12573881.27208  -9797828.47208  19745006.31508  19745007.97308
 -25487047.38209 -19860025.71308  17199959.16309  17199959.88308
 93 04 08 10 12 00.0000000  0  8 03 21 28 23 17 12 11 01
  19803600.25707  15431371.96707  21345871.67807  21345873.90707
  -5527650.06608  -4307259.24008  16989392.97208  16989393.50008
 -21296614.24708 -16594763.09908  17524157.12008  17524157.30808
   2025653.78108   1578432.60408  18083523.20508  18083523.66008
   4821290.79208   3756847.81308  18689495.82608  18689496.77708
  -4579307.84608  -3568289.91908  20435441.25108  20435443.31708
 -13041614.10708 -10162295.58608  19655999.79408  19656001.29208
 -25789394.93209 -20095621.13908  17142424.29609  17142425.01908
 93 04 08 10 14 00.0000000  0  8 03 21 28 23 17 12 11 01
  20259673.07607  15786753.38407  21432659.52907  21432661.71107
  -5609758.32008  -4371239.68508  16973768.28708  16973768.77308
 -21311921.66108 -16606690.97908  17521244.35608  17521244.48108
   2143494.94608   1670256.87108  18105947.62008  18105948.07008
   5047882.36908   3933412.60408  18732614.85108  18732615.82108
  -4837080.54308  -3769151.64408  20386388.69408  20386390.67408
 -13504800.16608 -10523219.75808  19567858.37308  19567859.92408
 -26084346.87909 -20325453.75608  17086296.67009  17086297.34308
 93 04 08 10 16 00.0000000  0  8 03 21 28 23 17 12 11 01
  20716415.59507  16142656.65507  21519574.75607  21519576.92807
  -5688802.51608  -4432832.55108  16958726.61508  16958727.14808
 -21317462.14508 -16611008.26808  17520190.15808  17520190.23708
   2263025.29008   1763397.40908  18128693.51008  18128693.87508
   5279342.12208   4113770.77108  18776660.25408  18776661.26108
  -5087681.57908  -3964425.04408  20338700.84408  20338702.81708
 -13963147.30208 -10880373.33708  19480637.80208  19480639.30908
 -26371845.98609 -20549478.96908  17031587.48509  17031588.10308
 93 04 08 10 18 00.0000000  0  8 03 21 28 23 17 12 11 01
  21173634.29707  16498930.99607  21606580.62707  21606582.71307
  -5764735.12608  -4492000.80808  16944277.14608  16944277.64908
 -21313762.20508 -16608125.23108  17520894.20908  17520894.32608
   2383543.69308   1857307.84308  18151627.37108  18151627.81408
   5515454.29408   4297754.17408  18821591.03908  18821592.03508
  -5330923.60608  -4153964.16508  20292413.36808  20292415.35308
 -14416443.61308 -11233591.20608  19394378.28908  19394379.78608
 -26651810.28609 -20767632.90508  16978311.98209  16978312.59608
 93 04 08 10 20 00.0000000  0  8 03 21 28 23 17 12 11 01
  21631146.17507  16855433.76707  21693642.13007  21693644.22907
  -5837870.85208  -4548989.66808  16930359.86208  16930360.38208
 -21300388.12208 -16597703.89108  17523439.28008  17523439.43908
   2505335.79108   1952210.77208  18174803.67008  18174804.08408
   5755803.14008   4485038.91508  18867327.97108  18867328.95908
  -5566614.98608  -4337619.67608  20247562.62008  20247564.60908
 -14864468.10008 -11582701.16108  19309122.08308  19309123.62408
 -26924134.20109 -20979833.29408  16926490.42409  16926491.04508
 93 04 08 10 22 00.0000000  0  8 03 21 28 23 17 12 11 01
  22088769.19107  17212023.12107  21780724.94407  21780726.99107
  -5907960.19208  -4603604.72008  16917022.30808  16917022.85408
 -21277427.38808 -16579812.43408  17527808.56608  17527808.80408
   2628517.52308   2048196.52908  18198244.33808  18198244.78008
   6000583.01608   4675776.40508  18913907.99308  18913909.03508
  -5794571.15908  -4515247.75908  20204183.80208  20204185.89508
 -15307001.33108 -11927532.21208  19224910.81508  19224912.23708
 -27188510.56509 -21185840.80008  16876181.21309  16876181.81908
 93 04 08 10 24 00.0000000  0  8 03 21 28 23 17 12 11 01
  22546256.30207  17568506.53607  21867781.98807  21867784.04007
  -5975534.79908  -4656260.24108  16904163.26008  16904163.80508
 -21245201.60608 -16554701.45808  17533940.74808  17533941.01608
   2752527.23408   2144827.47208  18221842.66008  18221843.07308
   6250021.32408   4870143.81308  18961374.63708  18961375.72908
  -6014679.73108  -4686760.83908  20162298.55008  20162300.52908
 -15743892.56508 -12267966.89908  19141773.11408  19141774.58908
 -27444953.93509 -21385666.75108  16827381.62409  16827382.20708
 93 04 08 10 26 00.0000000  0  7 21 28 23 17 12 11 01
  -6040275.98408  -4706707.89308  16891843.40708  16891843.96008
 -21203678.74908 -16522346.01508  17541842.42108  17541842.69508
   2877851.68208   2242482.87908  18245691.10208  18245691.55008
   6503785.95408   5067882.47108  19009664.45008  19009665.57708
  -6226761.75308  -4852019.45808  20121940.66608  20121942.62108
 -16174919.87708 -12603832.29208  19059751.22308  19059752.74008
 -27693867.65809 -21579625.45308  16780014.88209  16780015.48408
 93 04 08 10 28 00.0000000  0  8 25 21 28 23 17 12 11 01
        -0.06017        -0.25717  21470881.73217  21470883.16317
  -6102156.97708  -4754926.81608  16880067.80908  16880068.38308
 -21152822.91908 -16482718.12008  17551519.95808  17551520.19708
   3004389.74508   2341083.97508  18269770.55208  18269770.94908
   6761913.49008   5269020.77608  19058784.51708  19058785.60108
  -6430592.10008  -5010848.20308  20083152.91608  20083154.91408
 -16599809.70808 -12934915.24208  18978897.42908  18978898.84908
 -27934871.34309 -21767420.47409  16734153.33109  16734153.92809
 93 04 08 10 30 00.0000000  0  8 25 21 28 23 17 12 11 01
   -434064.95207   -338232.32507  21388281.65007  21388282.94507
  -6161306.78108  -4801017.56208  16868811.92108  16868812.49208
 -21092828.25808 -16435969.06708  17562936.72608  17562936.97708
   3131941.75608   2440475.16308  18294042.95508  18294043.32808
   7024303.30608   5473480.33108  19108715.64208  19108716.80608
  -6626079.28908  -5163175.79008  20045952.77208  20045954.82308
 -17018417.51108 -13261103.11508  18899239.08808  18899240.40908
 -28167750.60609 -21948884.78909  16689837.83209  16689838.42709
 93 04 08 10 32 00.0000000  0  8 25 21 28 23 17 12 11 01
   -871410.87607   -679021.07707  21305057.25207  21305058.50107
  -6217701.83208  -4844961.75308  16858080.28308  16858080.88908
 -21023909.06708 -16382265.84908  17576051.50908  17576051.79308
   3260650.27208   2540767.49108  18318535.28608  18318535.68108
   7290837.67908   5681169.39908  19159435.53508  19159436.63508
  -6813095.83508  -5308902.87908  20010364.56608  20010366.64508
 -17430558.94808 -13582252.26508  18820811.14208  18820812.52208
 -28392842.31309 -22124280.88209  16647004.30209  16647004.89109
 93 04 08 10 34 00.0000000  0  8 25 21 28 23 17 12 11 01
  -1311678.73807  -1022086.68307  21221276.89207  21221278.11107
  -6271303.18908  -4886729.02608  16847880.27808  16847880.87008
 -20946074.54508 -16321615.62408  17590862.88908  17590863.15408
   3390103.91408   2641640.45008  18343169.48608  18343169.92708
   7561660.56708   5892200.15808  19210971.41308  19210972.43708
  -6991456.48208  -5447885.11208  19976423.70808  19976425.69908
 -17835986.51808 -13898169.83108  18743660.82708  18743662.15608
 -28609773.18409 -22293317.87609  16605723.71309  16605724.29409
 93 04 08 10 36 00.0000000  0  8 25 21 28 23 17 12 11 01
  -1754360.17208  -1367033.03907  21137037.31008  21137038.47907
  -6322271.51808  -4926444.59608  16838181.36308  16838181.91108
 -20859632.38808 -16254258.15508  17607312.31608  17607312.64808
   3520940.85508   2743591.31608  18368066.92008  18368067.35908
   7836770.03808   6106571.12808  19263322.96608  19263324.12508
  -7160982.35508  -5579983.11708  19944164.04608  19944165.89908
 -18234454.93208 -14208664.68208  18667834.81908  18667836.10808
 -28818988.84609 -22456343.02309  16565911.24109  16565911.83209
 93 04 08 10 38 00.0000000  0  8 25 21 28 23 17 12 11 01
  -2199803.77908  -1714131.76007  21052272.06208  21052273.15707
  -6370495.80008  -4964021.96908  16829004.61608  16829005.15508
 -20764531.60408 -16180153.71008  17625409.41808  17625409.80608
   3653135.80308   2846600.37008  18393222.68008  18393223.18708
   8115622.73308   6323858.90408  19316386.84208  19316388.08508
  -7321558.96608  -5705107.68408  19913607.19608  19913609.17108
 -18625778.81008 -14513592.36708  18593368.34108  18593369.65708
 -29020158.77709 -22613098.76509  16527629.85809  16527630.40609
 93 04 08 10 40 00.0000000  0  8 21 28 23 17 25 12 11 01
  -6415675.17408  -4999226.68008  16820407.22408  16820407.80708
 -20660995.10708 -16099475.98908  17645111.93908  17645112.34008
   3786033.62308   2950157.09908  18418512.42008  18418512.83708
   8398304.21208   6544130.15108  19370179.48608  19370180.53508
  -2647752.67608  -2063182.69807  20967030.17308  20967031.17407
  -7473078.23408  -5823174.58508  19884774.02308  19884775.91808
 -19009774.54508 -14812809.81208  18520296.36608  18520297.67108
 -29213093.09809 -22763437.16009  16490915.62409  16490916.18909
 93 04 08 10 42 00.0000000  0  8 21 28 23 17 25 12 11 01
  -6458191.44608  -5032356.23808  16812316.66808  16812317.25508
 -20549275.94108 -16012422.16708  17666371.39908  17666371.79508
   3920241.18608   3054734.39808  18444051.34608  18444051.73808
   8685143.53508   6767641.28508  19424763.18108  19424764.35408
  -3098018.24808  -2414038.84908  20881347.20308  20881348.49508
  -7615486.34208  -5934141.88208  19857674.71908  19857676.47908
 -19386309.14208 -15106213.38108  18448644.17108  18448645.51708
 -29398271.39809 -22907731.89909  16455677.31109  16455677.89309
 93 04 08 10 44 00.0000000  0  8 21 28 23 17 25 12 11 01
  -6498332.84208  -5063635.24708  16804678.01108  16804678.55208
 -20429411.81808 -15919021.61208  17689180.76608  17689181.15608
   4055447.81408   3160090.19408  18469780.34508  18469780.75308
   8975588.56308   6993962.03808  19480032.99008  19480034.24208
  -3550456.38808  -2766587.89208  20795250.98908  20795252.22408
  -7748693.04508  -6037939.24808  19832326.16908  19832328.08808
 -19755208.17108 -15393667.16108  18378445.04008  18378446.30608
 -29575326.92309 -23045697.19909  16421984.73209  16421985.31809
 93 04 08 10 46 00.0000000  0  8 21 28 23 17 25 12 11 01
  -6535783.06908  -5092817.23708  16797551.51108  16797552.07008
 -20301334.12208 -15819220.86808  17713553.30008  17713553.66708
   4191585.90708   3266171.79608  18495686.50908  18495687.01408
   9269786.23308   7223206.93708  19536017.08508  19536018.27908
  -4005089.22608  -3120847.07308  20708737.17708  20708738.26908
  -7872578.62508  -6134473.42608  19808751.43908  19808753.38108
 -20116264.05208 -15675009.39408  18309738.41908  18309739.69108
 -29744202.73609 -23177288.70209  16389848.69509  16389849.26709
 93 04 08 10 48 00.0000000  0  8 21 28 23 17 25 12 11 01
  -6570395.73308  -5119788.13608  16790964.88308  16790965.45508
 -20165482.43708 -15713362.47408  17739405.08108  17739405.51408
   4328841.09708   3373123.87608  18521805.31808  18521805.74708
   9567575.64208   7455250.59608  19592684.58408  19592685.76108
  -4461791.43608  -3476718.78008  20621829.56708  20621830.54608
  -7987021.85008  -6223649.93708  19786973.63008  19786975.56008
 -20469264.07808 -15950074.33308  18242564.70608  18242565.99508
 -29905199.19509 -23302740.45309  16359212.06409  16359212.61609
 93 04 08 10 50 00.0000000  0  8 21 28 23 17 25 12 11 01
  -6602355.74408  -5144692.04708  16784883.09808  16784883.65608
 -20022024.60708 -15601577.21408  17766704.16008  17766704.56308
   4467070.81108   3480835.30608  18548109.63608  18548110.02508
   9869088.97808   7690196.00608  19650060.70108  19650061.88908
  -4920327.36508  -3834019.38408  20534573.02608  20534573.93408
  -8091967.03808  -6305425.38708  19767003.26908  19767005.17208
 -20814056.44608 -16218743.69808  18176952.91008  18176954.19508
 -30058528.18909 -23422217.55309  16330034.49909  16330035.02709
 93 04 08 10 52 00.0000000  0  8 21 01 28 23 17 25 12 11
  -6631681.87108  -5167543.58308  16779302.57508  16779303.13408
 -30203784.85309 -23535404.54309  16302393.08509  16302393.59809
 -19871211.55708 -15484060.61208  17795403.08808  17795403.50008
   4606152.39808   3589210.54308  18574575.91508  18574576.39508
  10174099.43608   7927866.46608  19708102.26308  19708103.47408
  -5380215.58208  -4192373.71208  20447059.21708  20447059.97608
  -8187309.71408  -6379718.36008  19748860.14308  19748862.09508
 -21150437.52608 -16480858.81408  18112941.75008  18112942.98108
 93 04 08 10 54 00.0000000  0  8 21 01 28 23 17 25 12 11
  -6658220.63508  -5188223.15108  16774252.43308  16774252.96308
 -30341046.47809 -23642361.62109  16276273.04809  16276273.57009
 -19712863.54108 -15360672.61008  17825535.74108  17825536.15408
   4746395.96708   3698491.21608  18601263.47508  18601263.89108
  10482710.51408   8168342.58308  19766829.10208  19766830.30708
  -5841756.89808  -4552016.17708  20359230.68308  20359231.33808
  -8272895.27108  -6446408.38408  19732573.73108  19732575.65708
 -21478149.90808 -16736219.10908  18050580.09608  18050581.36608
 93 04 08 10 56 00.0000000  0  8 21 01 28 23 17 25 12 11
  -6681988.62608  -5206743.66508  16769729.56608  16769730.07208
 -30470290.73709 -23743071.38409  16251678.63209  16251679.19009
 -19547217.80608 -15231598.07308  17857057.11308  17857057.46508
   4887660.31208   3808567.28808  18628145.24408  18628145.64408
  10794482.07308   8411281.44408  19826157.28808  19826158.42208
  -6304532.56408  -4912620.48508  20271167.26208  20271167.93608
  -8348667.20408  -6505451.42908  19718154.70908  19718156.65708
 -21797030.72208 -16984697.66008  17989899.09808  17989900.36608
 93 04 08 10 58 00.0000000  0  8 21 01 28 23 17 25 12 11
  -6703153.04708  -5223235.43108  16765702.09708  16765702.59608
 -30591742.00909 -23837708.71109  16228567.20409  16228567.69909
 -19374572.74108 -15097069.51608  17889910.48808  17889910.84208
   5030250.90308   3919676.80908  18655279.31808  18655279.76508
  11109447.32308   8656708.89208  19886093.09808  19886094.18808
  -6768195.63008  -5273916.27508  20182935.05108  20182935.77708
  -8414569.16708  -6556803.57808  19705613.98008  19705615.89508
 -22106914.23908 -17226165.33808  17930930.26608  17930931.54308
 93 04 08 11 00 00.0000000  0  8 21 01 28 23 17 25 12 11
  -6721758.78808  -5237733.41908  16762161.49608  16762162.06408
 -30705260.58809 -23926164.72409  16206965.32209  16206965.83609
 -19195074.61708 -14957200.91408  17924067.84208  17924068.24508
   5173914.17408   4031622.16808  18682617.50408  18682618.04208
  11428005.57508   8904936.06308  19946712.76208  19946713.90508
  -7233090.93308  -5636172.24408  20094468.35408  20094468.98408
  -8470580.47408  -6600448.73708  19694955.44208  19694957.33108
 -22407667.30808 -17460518.38708  17873698.82408  17873700.12908
 93 04 08 11 02 00.0000000  0  8 21 01 28 23 17 25 12 11
  -6737274.42008  -5249823.52008  16759209.01508  16759209.53408
 -30811123.32209 -24008655.13809  16186820.29409  16186820.78009
 -19009070.35608 -14812262.58708  17959463.30908  17959463.78508
   5318925.89808   4144618.27308  18710212.33508  18710212.84808
  11749359.53608   9155341.71008  20007864.41908  20007865.71708
  -7698618.08008  -5998920.55408  20005881.33308  20005882.04508
  -8516622.08808  -6636325.30108  19686194.01208  19686195.91008
 -22699096.25808 -17687605.88408  17818241.74708  17818243.06608
 93 04 08 11 04 00.0000000  0  8 21 01 28 23 17 25 12 11
  -6749915.97508  -5259674.09408  16756803.40908  16756803.90908
 -30909012.49309 -24084932.38509  16168192.58309  16168193.04009
 -18816873.18208 -14662498.63108  17996037.23508  17996037.77508
   5464783.08008   4258273.17608  18737968.02908  18737968.60108
  12073686.04308   9408063.64108  20069581.78308  20069582.95908
  -8164596.99808  -6362020.91208  19917208.35208  19917209.03708
  -8552659.43608  -6664406.31908  19679336.24408  19679338.11008
 -22981048.45608 -17907308.89908  17764587.99108  17764589.37808
 93 04 08 11 06 00.0000000  0  8 21 01 28 23 17 25 12 11
  -6760052.20708  -5267572.46408  16754874.56708  16754875.05208
 -30999313.68609 -24155296.93509  16151008.83309  16151009.32609
 -18617983.81608 -14507519.99408  18033884.72008  18033885.25208
   5611738.68308   4372783.99608  18765932.82308  18765933.37208
  12401292.12908   9663341.10608  20131923.17508  20131924.34508
  -8630883.20408  -6725360.71308  19828477.09308  19828477.69908
  -8578666.24908  -6684671.36308  19674387.16308  19674389.20108
 -23253378.41608 -18119514.06908  17712765.31108  17712766.71208
 93 04 08 11 08 00.0000000  0  8 21 01 28 23 17 25 12 11
  -6767343.78008  -5273254.21408  16753487.01108  16753487.56608
 -31081817.26409 -24219585.42009  16135308.91709  16135309.38909
 -18412660.13308 -14347527.64608  18072956.57808  18072957.22708
   5760173.26208   4488447.26608  18794178.99608  18794179.56108
  12731567.22908   9920698.32108  20194772.44808  20194773.52708
  -9097538.46608  -7088988.09808  19739675.62108  19739676.10908
  -8594651.66908  -6697127.52708  19671345.25908  19671347.36308
 -23515972.54408 -18324132.88208  17662795.35808  17662796.67008
 93 04 08 11 10 00.0000000  0  8 21 01 28 23 17 25 12 11
  -6771920.11408  -5276820.20108  16752616.16308  16752616.70608
 -31156704.57709 -24277939.13009  16121058.26709  16121058.70709
 -18201753.72608 -14183185.09108  18113090.62008  18113091.29908
   5909766.90208   4605013.69008  18822645.77908  18822646.35008
  13064426.22908  10180068.95808  20258113.36108  20258114.50308
  -9564413.26008  -7452786.55208  19650832.15708  19650832.65108
  -8600596.35308  -6701759.75708  19670214.10908  19670216.15108
 -23768688.36708 -18521054.31208  17614705.15408  17614706.44708
 93 04 08 11 12 00.0000000  0  8 01 21 28 23 17 25 12 11
 -31224019.62509 -24330392.37509  16108248.63909  16108249.06709
  -6773724.12708  -5278225.94008  16752272.90108  16752273.43408
 -17985345.36408 -14014555.29308  18154272.05208  18154272.70108
   6060579.78308   4722530.18508  18851344.50708  18851345.06908
  13400077.40908  10441615.29808  20321985.47808  20321986.68908
 -10031258.03808  -7816561.61808  19561994.41608  19561994.99008
  -8596463.23008  -6698539.14608  19671000.71208  19671002.64008
 -24011363.70608 -18710151.99908  17568525.59908  17568526.88008
 93 04 08 11 14 00.0000000  0  8 21 28 23 17 25 12 11 01
  -6772400.82208  -5277194.81208  16752524.69208  16752525.25208
 -17763470.75008 -13841666.07608  18196493.34208  18196493.91308
   6212695.35208   4841061.75408  18880291.19908  18880291.75308
  13738474.55108  10705301.34708  20386380.47608  20386381.67208
 -10497880.87908  -8180163.75508  19473199.02508  19473199.46608
  -8582306.41308  -6687507.87108  19673694.69708  19673696.55808
 -24243925.73608 -18891369.18608  17524270.51308  17524271.80808
 -31283959.67309 -24377098.88509  16096842.41809  16096842.80909
 93 04 08 11 16 00.0000000  0  8 01 21 28 23 17 25 12 11
 -31336741.82609 -24418227.81809  16086798.32609  16086798.71309
  -6768278.59508  -5273982.69408  16753309.17808  16753309.72008
 -17536118.05508 -13664508.21808  18239757.34508  18239757.94808
   6366007.89908   4960526.02008  18909465.62808  18909466.24008
  14079274.84208  10970859.97908  20451232.63808  20451233.73008
 -10964172.30108  -8543507.65008  19384466.64808  19384467.06708
  -8558143.14308  -6668679.35508  19678292.67008  19678294.70008
 -24466264.38408 -19064620.10308  17481960.82808  17481962.19908
 93 04 08 11 18 00.0000000  0  8 01 21 28 23 17 25 12 11
 -31381998.49309 -24453492.73509  16078186.29509  16078186.66809
  -6761298.79108  -5268543.90208  16754637.41408  16754637.88608
 -17303681.49108 -13483388.90308  18283988.65408  18283989.23508
   6520420.40308   5080847.39908  18938849.34608  18938850.00308
  14422250.13208  11238113.43708  20516498.62208  20516499.87108
 -11429417.45408  -8906036.25708  19295933.36508  19295933.76808
  -8523972.16108  -6642052.61808  19684795.33308  19684797.16908
 -24678250.10508 -19229803.80208  17441621.32208  17441622.66808
 93 04 08 11 20 00.0000000  0  8 01 21 28 23 17 25 12 11
 -31419999.46109 -24483103.86909  16070954.89709  16070955.27309
  -6751561.22008  -5260956.18908  16756490.35708  16756490.83408
 -17066387.09808 -13298484.26708  18329144.19508  18329144.76408
   6676054.04708   5202120.29908  18968465.59608  18968466.17808
  14767683.07808  11507281.97007  20582232.32008  20582233.48907
 -11893905.33308  -9267974.77708  19207544.19708  19207544.51108
  -8479838.29108  -6607662.58408  19693193.76908  19693195.56408
 -24879798.56908 -19386854.58008  17403267.94008  17403269.28608
 93 04 08 11 22 00.0000000  0  8 01 21 11 28 23 17 25 12
 -31450900.03409 -24507182.21509  16065074.69009  16065075.05709
  -6739202.83708  -5251326.28608  16758842.09708  16758842.54108
 -25070885.69608 -19535753.66108  17366905.31108  17366906.64308
 -16824508.10108 -13110007.21008  18375172.41508  18375173.10208
   6833131.64508   5324518.37408  18998356.51008  18998357.09708
  15115087.07807  11777986.41507  20648341.05307  20648342.14807
 -12357972.58508  -9629585.54408  19119235.17808  19119235.41208
  -8425846.11208  -6565590.75808  19703467.99908  19703469.94008
 93 04 08 11 24 00.0000000  0  8 01 21 28 23 17 25 12 11
 -31475029.09709 -24525984.07109  16060483.06209  16060483.46809
  -6723884.53908  -5239389.94208  16761757.08208  16761757.54608
 -16578389.35508 -12918226.44808  18422007.24908  18422007.98108
   6991175.36208   5447669.26808  19028431.21908  19028431.81908
  15464449.99807  12050217.32607  20714822.59407  20714823.63007
 -12820934.11008  -9990334.70308  19031136.50308  19031136.77508
  -8362061.28008  -6515888.29408  19715605.82908  19715607.69408
 -25251447.81408 -19676451.43308  17332545.46508  17332546.83808
 93 04 08 11 26 00.0000000  0  8 21 11 28 23 17 25 12 01
  -6705379.91508  -5224970.75708  16765278.35408  16765278.91008
 -25421304.71908 -19808807.47608  17300222.77308  17300224.15108
 -16328134.24608 -12723222.55308  18469629.37408  18469629.98508
   7150543.57908   5571852.24008  19058758.01408  19058758.61708
  15815636.49807  12323869.21007  20781651.14607  20781652.20807
 -13282343.49208 -10349874.40608  18943333.10608  18943333.37208
  -8288431.42308  -6458514.39408  19729617.26008  19729619.05908
 -31492283.98809 -24539429.42309  16057199.56809  16057199.93909
 93 04 08 11 28 00.0000000  0  8 01 21 11 28 23 17 25 12
 -31502541.69409 -24547422.42909  16055247.60309  16055247.94909
  -6683860.28808  -5208202.22108  16769373.44108  16769374.00108
 -25580389.61508 -19932769.74908  17269949.94208  17269951.34208
 -16073674.26508 -12524942.12008  18518051.58508  18518052.21408
   7311527.63308   5697294.31008  19089392.31808  19089392.96408
  16168760.60907  12599030.88707  20848848.34107  20848849.58207
 -13742172.10008 -10708182.34208  18855830.53808  18855830.84208
  -8205018.42608  -6393517.25608  19745490.18108  19745492.06908
 93 04 08 11 30 00.0000000  0  8 01 21 11 28 23 17 25 12
 -31506119.06709 -24550209.96309  16054566.78809  16054567.13709
  -6659511.33708  -5189229.02308  16774006.88308  16774007.44308
 -25728657.54208 -20048303.21308  17241735.51708  17241736.85308
 -15815338.20008 -12323641.36808  18567211.19608  18567211.86808
   7473818.40408   5823754.58908  19120275.29208  19120275.99208
  16523668.27607  12875582.34607  20916384.98707  20916386.31007
 -14200594.16408 -11065394.27008  18768595.69208  18768595.90808
  -8111904.18308  -6320960.69708  19763209.22308  19763211.07208
 93 04 08 11 32 00.0000000  0  8 17 01 21 11 28 23 25 12
  16879977.27007  13153225.73607  20984188.15107  20984189.66307
 -31502769.47509 -24547599.86809  16055204.20609  16055204.52509
  -6632097.33908  -5167867.47608  16779223.57108  16779224.14208
 -25866059.43608 -20155369.64108  17215588.83508  17215590.15508
 -15553670.15608 -12119744.27408  18617005.02608  18617005.80408
   7637417.17308   5951234.11808  19151407.03108  19151407.75708
 -14657500.75908 -11421425.28308  18681649.17608  18681649.35908
  -8009165.69708  -6240904.74708  19782759.59708  19782761.45508
 93 04 08 11 34 00.0000000  0  8 17 01 21 11 28 23 25 12
  17237805.36307  13432052.84507  21052280.45907  21052281.86707
 -31492895.41109 -24539905.77209  16057083.18109  16057083.52809
  -6601914.09208  -5144348.04208  16784967.26608  16784967.78108
 -25992562.86408 -20253943.76008  17191516.02008  17191517.40308
 -15288527.58008 -11913139.74508  18667460.13708  18667460.82308
   7802624.84508   6079967.32208  19182845.12508  19182845.84208
 -15112204.47008 -11775739.78108  18595121.77908  18595122.03508
  -7896894.62708  -6153420.79808  19804124.10808  19804126.00108
 93 04 08 11 36 00.0000000  0  8 17 21 11 28 23 25 12 01
  17596945.72207  13711902.46907  21120622.76807  21120623.95407
  -6568706.07208  -5118471.65808  16791286.52708  16791286.98608
 -26108149.44508 -20344011.25108  17169520.62208  17169522.01308
 -15020019.81408 -11703912.98608  18718555.49708  18718556.23408
   7969171.83308   6209744.16308  19214537.98508  19214538.66408
 -15564578.43508 -12128238.90008  18509037.80608  18509038.12108
  -7775195.48308  -6058590.31008  19827282.72808  19827284.65308
 -31476899.58009 -24527441.48609  16060127.05009  16060127.37109
 93 04 08 11 38 00.0000000  0  8 17 21 11 28 23 25 12 01
  17957459.36707  13992822.24807  21189226.41107  21189227.54807
  -6531958.53208  -5089837.21808  16798279.37008  16798279.84708
 -26212787.13108 -20425547.14108  17149608.71808  17149610.15608
 -14748886.68708 -11492640.48008  18770150.38708  18770151.24408
   8137020.84608   6340535.56608  19246478.59808  19246479.32708
 -16014693.44608 -12478977.76008  18423383.72708  18423384.05408
  -7644157.33408  -5956482.69908  19852218.38608  19852220.43008
 -31454651.20109 -24510105.07009  16064360.76309  16064361.10709
 93 04 08 11 40 00.0000000  0  8 17 21 28 23 25 12 11 01
  18319030.34307  14274565.89507  21258031.02107  21258032.18207
  -6492434.96208  -5059039.63508  16805800.42708  16805800.96208
 -14475078.89808 -11279283.82808  18822254.46708  18822255.42108
   8306548.96708   6472635.35308  19278738.84008  19278739.51608
 -16462028.94608 -12827550.81608  18338258.59308  18338258.85508
  -7503867.37308  -5847165.88008  19878914.73508  19878916.72108
 -26306444.74508 -20498527.12808  17131786.29708  17131787.73308
 -31426134.22409 -24487884.03109  16069787.36809  16069787.71309
 93 04 08 11 42 00.0000000  0  8 17 21 28 23 25 12 11 01
  18681733.64307  14557191.83807  21327051.15007  21327052.34707
  -6449703.78908  -5025742.61708  16813931.95508  16813932.47708
 -14198472.71408 -11063746.59408  18874890.76308  18874891.69608
   8477553.54508   6605885.61908  19311279.84908  19311280.58208
 -16906728.78608 -13174070.08808  18253634.91208  18253635.15408
  -7354427.76108  -5730719.44408  19907352.17108  19907354.07408
 -26389108.18608 -20562940.23108  17116056.06108  17116057.43808
 -31391269.95209 -24460717.05909  16076421.79109  16076422.15509
 93 04 08 11 44 00.0000000  0  8 17 21 28 23 25 12 11 01
  19045643.11707  14840757.64807  21396300.72507  21396302.05907
  -6403735.79108  -4989923.39808  16822679.35608  16822679.90708
 -13919708.05608 -10846527.44408  18927938.07208  18927938.95208
   8650132.04408   6740362.32808  19344120.51708  19344121.25608
 -17348524.11908 -13518326.08608  18169563.96708  18169564.21308
  -7195905.67608  -5607195.81108  19937517.94308  19937519.90708
 -26460731.12408 -20618750.34408  17102426.66508  17102428.09508
 -31350292.78009 -24428786.77909  16084219.46009  16084219.83009
 93 04 08 11 46 00.0000000  0  7 01 21 25 28 23 12 11
 -31303723.31809 -24392498.87009  16093081.32909  16093081.70009
  -6354360.04308  -4951448.78608  16832075.26108  16832075.77108
 -17787148.34208 -13860111.10908  18086096.39208  18086096.64108
 -13638852.32708 -10627678.87408  18981383.15308  18981384.05408
   8824141.49808   6875954.04508  19377233.46908  19377234.21208
  -7028448.16608  -5476709.49707  19969384.19908  19969386.04507
 -26521349.95708 -20665985.82908  17090891.30608  17090892.72708
 93 04 08 11 48 00.0000000  0  8 01 21 28 23 15 25 12 11
 -31251637.62609 -24351912.60809  16102992.89109  16102993.26909
  -6302012.12108  -4910658.19908  16842036.68608  16842037.18108
 -13356132.49708 -10407377.74708  19035182.88208  19035183.65808
   8999624.35508   7012693.85108  19410626.81608  19410627.65608
         0.44218        -0.02418  18953258.88118  18953259.73918
 -18222384.77308 -14199256.27408  18003273.66608  18003273.88508
  -6852280.47508  -5339436.02107  20002907.97708  20002909.56507
 -26571082.02908 -20704738.11908  17081427.57408  17081429.05508
 93 04 08 11 50 00.0000000  0  8 01 21 28 23 15 25 12 11
 -31193848.10309 -24306881.80509  16113989.85909  16113990.24809
  -6246395.33308  -4867320.43208  16852620.18308  16852620.71708
 -13071656.38108 -10185708.08908  19089317.04008  19089317.82308
   9176849.62708   7150791.39008  19444351.77108  19444352.60308
   -466218.47108   -363287.45508  18864540.39508  18864541.19308
 -18654156.49708 -14535701.66508  17921110.16408  17921110.35608
  -6667475.41308  -5195432.11807  20038075.21208  20038076.92207
 -26609896.68508 -20734983.33308  17074041.46008  17074042.88508
 93 04 08 11 52 00.0000000  0  8 01 21 28 23 15 25 12 11
 -31130086.09809 -24257197.11509  16126123.37109  16126123.76809
  -6187516.28408  -4821440.67308  16863824.52908  16863825.06408
 -12785448.99708  -9962689.39308  19143780.56508  19143781.41508
   9355774.08308   7290212.95408  19478399.97208  19478400.76308
   -929445.92108   -724243.86008  18776391.11308  18776391.93008
 -19082414.21608 -14869408.87808  17839615.27408  17839615.44308
  -6474106.37708  -5044755.02407  20074872.14508  20074873.94707
 -26637765.77108 -20756699.53908  17068738.15808  17068739.57508
 93 04 08 11 54 00.0000000  0  8 01 21 28 23 15 25 12 11
 -31061374.25709 -24203655.40809  16139198.79709  16139199.12909
  -6125123.23508  -4772822.71108  16875697.52408  16875697.99608
 -12498281.76208  -9738922.74908  19198426.66008  19198427.50708
   9536176.05008   7430785.80808  19512729.31708  19512730.18608
  -1389542.13208  -1082760.33208  18688837.66308  18688838.42408
 -19506693.51108 -15200016.03908  17758877.59208  17758877.74708
  -6272348.70808  -4887541.31607  20113265.41908  20113267.16307
 -26654768.25108 -20769948.25608  17065502.72108  17065504.12808
 93 04 08 11 56 00.0000000  0  8 01 21 28 23 15 25 12 11
 -30987374.84509 -24145993.51509  16153280.38609  16153280.71809
  -6059301.69708  -4721533.20508  16888222.98008  16888223.43908
 -12210185.68008  -9514432.33708  19253249.42708  19253250.30008
   9718461.72908   7572826.49108  19547417.30108  19547418.13208
  -1846373.46708  -1438732.74108  18601905.48108  18601906.27508
 -19926950.33008 -15527488.81908  17678905.41308  17678905.53108
  -6062390.13708  -4723937.32107  20153219.20908  20153221.03107
 -26660998.10508 -20774802.72608  17064317.20908  17064318.69808
 93 04 08 11 58 00.0000000  0  8 01 21 28 23 15 25 12 11
 -30907929.29309 -24084087.88409  16168398.37909  16168398.72709
  -5990044.49108  -4667566.55508  16901402.21108  16901402.64808
 -11921029.77608  -9289116.08208  19308274.07908  19308275.07108
   9902404.40508   7716158.30708  19582420.53908  19582421.47208
  -2299729.44408  -1791997.09308  18515634.70008  18515635.43208
 -20343123.27208 -15851779.36308  17599710.27508  17599710.38808
  -5844346.70808  -4554033.44207  20194711.49008  20194713.39507
 -26656482.48608 -20771284.10508  17065176.54108  17065178.01308
 93 04 08 12 00 00.0000000  0  8 01 21 28 23 15 25 12 11
 -30823766.58509 -24018506.54209  16184413.99909  16184414.32409
  -5917535.92808  -4611066.38508  16915200.10908  16915200.62508
 -11631368.98608  -9063406.42508  19363394.65708  19363395.56108
  10087956.22708   7860744.00908  19617729.94008  19617730.99308
  -2749499.91508  -2142467.53608  18430046.14808  18430046.91908
 -20754786.57008 -16172555.89408  17521373.31108  17521373.39508
  -5618441.45307  -4378003.50907  20237699.99207  20237701.88907
 -26641358.87408 -20759499.51408  17068054.50808  17068055.97508
 93 04 08 12 02 00.0000000  0  8 01 21 28 23 15 25 12 11
 -30734781.51509 -23949167.52509  16201347.27309  16201347.64309
  -5841729.25908  -4551996.26908  16929625.68608  16929626.16208
 -11341374.34908  -8837436.61908  19418578.99508  19418579.89508
  10275300.51508   8006726.43108  19653380.62008  19653381.57208
  -3195522.68008  -2490017.68408  18345170.74008  18345171.55308
 -21162059.38208 -16489911.28108  17443871.86908  17443871.92008
  -5384849.03407  -4195983.52807  20282151.21207  20282153.05307
 -26615721.40808 -20739522.31808  17072933.16608  17072934.66408
 93 04 08 12 04 00.0000000  0  8 01 21 28 23 15 25 12 11
 -30640870.41708 -23875990.03609  16219217.98108  16219218.35509
  -5762425.84508  -4490201.42208  16944716.66808  16944717.17308
 -11051241.94608  -8611359.47608  19473789.34708  19473790.42708
  10464158.41408   8153888.30908  19689319.09808  19689320.13908
  -3637559.95308  -2834462.25008  18261053.85308  18261054.57708
 -21564853.01208 -16803776.39008  17367222.72808  17367222.77708
  -5143674.71708  -4008055.56407  20328045.37108  20328047.15907
 -26579598.56608 -20711374.68508  17079807.13108  17079808.64708
 93 04 08 12 06 00.0000000  0  8 01 21 28 23 15 25 12 11
 -30542504.13208 -23799340.98208  16237936.45508  16237936.80008
  -5679372.54108  -4425484.58108  16960521.19908  16960521.73908
 -10760870.45208  -8385096.03908  19529045.27808  19529046.22308
  10654908.03708   8302524.26508  19725617.52708  19725618.56808
  -4075454.29608  -3175678.56008  18177725.23308  18177726.02808
 -21962425.00308 -17113572.69108  17291567.22508  17291567.20908
  -4895108.94707  -3814367.98307  20375345.84007  20375347.73507
 -26533108.45208 -20675148.66108  17088653.94308  17088655.47308
 93 04 08 12 08 00.0000000  0  8 01 21 28 23 15 25 12 11
 -30439658.42508 -23719201.46608  16257507.34708  16257507.67208
  -5592879.78508  -4358087.65208  16976980.21108  16976980.74008
 -10470586.02908  -8158900.44008  19584284.56008  19584285.46608
  10847526.63408   8452616.56708  19762271.80008  19762272.78408
  -4509044.96208  -3513541.34708  18095215.67408  18095216.48308
 -22355006.05508 -17419479.95308  17216861.48008  17216861.50708
  -4639343.56707  -3615070.35907  20424016.50607  20424018.26007
 -26476375.46908 -20630941.17808  17099449.92408  17099451.40308
 93 04 08 12 10 00.0000000  0  8 01 21 28 23 15 25 12 11
 -30332520.80008 -23635717.59908  16277894.93908  16277895.31508
  -5503031.27708  -4288075.83908  16994077.78508  16994078.37408
 -10180789.42208  -7933084.95608  19639430.97708  19639431.94408
  11041877.00708   8604058.25908  19799255.56908  19799256.49108
  -4938174.11108  -3847927.63608  18013555.07308  18013555.81408
 -22742319.82608 -17721282.83408  17143158.05708  17143158.12308
  -4376575.62207  -3410316.22607  20474019.60707  20474021.46707
 -26409533.31308 -20578856.41808  17112169.57808  17112171.10008
 93 04 08 12 12 00.0000000  0  8 01 21 15 28 23 25 12 11
 -30221204.16008 -23548977.35908  16299077.77908  16299078.17608
  -5409512.43908  -4215204.03508  17011873.88108  17011874.41908
  -5362602.74808  -4178651.18808  17932788.94808  17932789.62208
  -9891772.91208  -7707877.35108  19694429.07808  19694430.15508
  11238219.23508   8757052.05208  19836618.41908  19836619.42708
 -23124100.44508 -18018774.17508  17070507.53008  17070507.54608
  -4106924.60207  -3200198.67407  20525332.46907  20525334.20907
 -26332643.54308 -20518942.36308  17126801.22108  17126802.79108
 93 04 08 12 14 00.0000000  0  8 21 15 25 28 23 12 11 01
  -5312318.54708  -4139468.54608  17030369.20308  17030369.74908
  -5782127.96808  -4505553.90708  17852955.97708  17852956.55908
 -23500336.19708 -18311944.84008  16998912.26408  16998912.21408
  -9603034.38008  -7482886.31008  19749374.16908  19749375.24708
  11436335.65808   8911428.30708  19874318.87208  19874319.96408
  -3830550.47407  -2984842.35407  20577924.76107  20577926.78407
 -26245812.34208 -20451281.74408  17143324.67008  17143326.26308
 -30105457.73408 -23458785.33508  16321103.60808  16321104.01508
 93 04 08 12 16 00.0000000  0  8 21 15 25 28 23 12 11 01
  -5211643.58108  -4061020.53308  17049527.03108  17049527.62608
  -6196658.01908  -4828564.28808  17774073.48408  17774074.01608
 -23871102.44408 -18600853.54508  16928357.75208  16928357.70308
  -9315545.76408  -7258869.25808  19804081.51508  19804082.66908
  11636047.76608   9067047.93008  19912322.97108  19912324.16208
  -3547725.77706  -2764459.59207  20631744.52206  20631746.86507
 -26149263.66908 -20376049.07008  17161697.29408  17161699.00608
 -29985556.28708 -23365355.63608  16343920.11808  16343920.50508
 93 04 08 12 18 00.0000000  0  8 21 15 25 28 23 12 11 01
  -5107163.25908  -3979607.32008  17069409.01108  17069409.63508
  -6605938.02708  -5147483.73208  17696190.07708  17696190.55808
 -24236104.28308 -18885270.50808  16858900.14908  16858900.07508
  -9029405.58408  -7035902.92508  19858532.22708  19858533.36108
  11837864.07308   9224307.19208  19950727.47408  19950728.71308
  -3258564.79706  -2539139.50307  20686770.31206  20686772.35407
 -26043067.24108 -20293298.64908  17181905.89708  17181907.51608
 -29862099.74908 -23269155.73108  16367413.12208  16367413.45908
 93 04 08 12 20 00.0000000  0  8 21 15 25 28 23 12 11 01
  -4998787.01508  -3895158.33908  17090032.40408  17090032.98508
  -7009750.82208  -5462143.01708  17619347.02008  17619347.49408
 -24594671.11208 -19164673.17608  16790667.17208  16790667.10108
  -8744341.29208  -6813774.98708  19912778.27608  19912779.31808
  12041565.92308   9383035.70108  19989490.69408  19989492.05608
  -2963217.80807  -2308999.12507  20742973.24107  20742975.19107
 -25927334.20308 -20203117.11408  17203929.23408  17203930.86508
 -29734727.83608 -23169904.88408  16391651.16808  16391651.50408
 93 04 08 12 22 00.0000000  0  8 21 15 25 28 23 12 11 01
  -4886608.46108  -3807746.51808  17111379.26008  17111379.87608
  -7407853.60108  -5772352.94108  17543590.56808  17543591.05108
 -24946836.19008 -19439087.46508  16723652.30508  16723652.27408
  -8460767.74208  -6592808.64708  19966740.43308  19966741.67408
  12247261.44908   9543317.69308  20028633.57708  20028635.01408
  -2661814.40007  -2074139.49907  20800328.46707  20800330.57607
 -25802159.31608 -20105578.31508  17227749.28408  17227750.98408
 -29603593.42308 -23067722.22108  16416605.22408  16416605.57308
 93 04 08 12 24 00.0000000  0  8 21 15 25 28 23 12 11 01
  -4770423.99408  -3717213.21308  17133488.50008  17133489.08208
  -7800088.01508  -6077990.11308  17468950.79808  17468951.22508
 -25292377.71008 -19708340.54508  16657897.89108  16657897.86908
  -8178532.97808  -6372885.53008  20020447.93908  20020449.15708
  12455068.39008   9705244.92308  20068177.96208  20068179.50708
  -2354566.46807  -1834725.75307  20858796.07107  20858798.10107
 -25667725.00308 -20000824.36208  17253331.31208  17253332.99408
 -29468979.44308 -22962828.20108  16442221.39708  16442221.74908
 93 04 08 12 26 00.0000000  0  8 21 15 25 11 28 23 12 01
  -4650464.42508  -3623738.31008  17156316.15308  17156316.75808
  -8186305.63808  -6378938.87008  17395456.01308  17395456.45808
 -25631487.72708 -19972582.06108  16593367.35108  16593367.32508
 -25524230.15108 -19889010.25308  17280637.51108  17280639.16108
  -7898109.76908  -6154374.01107  20073810.64608  20073811.89407
  12664865.83608   9868723.11708  20108101.29508  20108102.89408
  -2041698.00207  -1590932.33106  20918332.92507  20918335.35606
 -29330727.21308 -22855099.18308  16468529.90608  16468530.24708
 93 04 08 12 28 00.0000000  0  8 12 21 15 25 11 28 23 01
  -1723404.10507  -1342911.30706  20978902.63607  20978904.68006
  -4526722.88508  -3527316.43408  17179863.43308  17179864.12008
  -8566328.98908  -6675060.92508  17323139.94808  17323140.40708
 -25963998.24908 -20231681.10608  16530092.62508  16530092.60808
 -25371849.75308 -19770272.34008  17309634.56208  17309636.28208
  -7619517.27107  -5937289.03707  20126825.10007  20126826.42407
  12876607.99808  10033716.66108  20148394.78208  20148396.38508
 -29189111.43908 -22744749.22908  16495478.51008  16495478.83508
 93 04 08 12 30 00.0000000  0  8 12 21 15 25 11 28 23 01
  -1399962.49407  -1090879.10906  21040451.37607  21040453.77306
  -4398787.15008  -3427626.32708  17204208.80008  17204209.44708
  -8940062.19508  -6966281.57508  17252020.83708  17252021.36708
 -26289604.71708 -20485400.37408  16468131.69708  16468131.68908
 -25210846.09208 -19644815.00808  17340272.59208  17340274.32408
  -7343021.60807  -5721837.95607  20179440.52107  20179441.89207
  13090225.12908  10200171.15408  20189045.12408  20189046.82308
 -29044571.30108 -22632120.54508  16522983.57308  16522983.89708
 93 04 08 12 32 00.0000000  0  8 12 21 15 25 11 01 28 23
  -1071566.95006   -834986.71206  21102943.30406  21102945.64806
  -4267151.75408  -3325053.34508  17229258.20508  17229258.86708
  -9307327.94008  -7252462.63908  17182132.47508  17182132.96708
 -26608075.02808 -20733558.99908  16407528.81308  16407528.73208
 -25041402.40208 -19512781.02808  17372516.70508  17372518.42408
 -28897016.34408 -22517142.65208  16551062.32708  16551062.67008
  -7069306.03207  -5508553.17007  20231527.17207  20231528.41207
  13305867.62908  10368203.82708  20230080.91008  20230082.74808
 93 04 08 12 34 00.0000000  0  7 21 15 25 11 01 28 23
  -4131627.05708  -3219449.74908  17255047.75908  17255048.37208
  -9667941.33008  -7533460.05108  17113510.03408  17113510.48808
 -26919488.45808 -20976218.75008  16348268.76608  16348268.66308
 -24863698.52108 -19374310.55008  17406332.69208  17406334.42108
 -28746477.12408 -22399839.36808  16579708.97108  16579709.33708
  -6798026.03807  -5297166.24907  20283150.03207  20283151.32107
  13523590.65708  10537857.65608  20271512.72308  20271514.56708
 93 04 08 12 36 00.0000000  0  8 21 15 25 11 01 28 23 14
  -3992125.18908  -3110747.06908  17281594.17008  17281594.76608
 -10021733.46308  -7809142.19908  17046185.62008  17046186.07208
 -27223886.14908 -21213411.69108  16290343.75108  16290343.66408
 -24677932.67708 -19229558.00408  17441682.78008  17441684.55308
 -28593034.54808 -22280273.73708  16608908.12808  16608908.50808
  -6529129.97907  -5087636.93907  20334319.27007  20334320.62007
  13743225.02108  10709000.79908  20313308.07108  20313309.98608
         0.09217        -0.19417  20399096.79417  20399098.81617
 93 04 08 12 38 00.0000000  0  8 21 15 25 11 01 28 23 14
  -3848643.33308  -2998943.11908  17308897.88708  17308898.60508
 -10368504.75208  -8079353.56408  16980197.19208  16980197.63708
 -27520859.28108 -21444819.25408  16233831.59108  16233831.47008
 -24484276.53708 -19078657.16308  17478534.35608  17478536.13808
 -28436976.77808 -22158670.29608  16638604.96608  16638605.33608
  -6262957.37407  -4880229.77307  20384970.45107  20384971.80007
  13965054.43608  10881854.32008  20355521.14808  20355523.30608
   -393164.63107   -306362.01107  20324280.08007  20324281.69307
 93 04 08 12 40 00.0000000  0  8 21 15 25 11 01 28 23 14
  -3701119.54008  -2883989.59708  17336970.69808  17336971.58208
 -10708088.79608  -8343964.47908  16915576.46208  16915576.94008
 -27810127.05608 -21670222.64808  16178785.73708  16178785.55408
 -24282935.24408 -18921767.91108  17516848.31408  17516850.23908
 -28278005.73108 -22034796.77108  16668856.16608  16668856.51008
  -5999907.04607  -4675255.55007  20435027.28607  20435028.75007
  14188797.58508  11056199.03308  20398098.38608  20398100.91108
   -787435.90907   -613586.11807  20249252.43507  20249253.96907
 93 04 08 12 42 00.0000000  0  8 21 15 25 11 01 28 23 14
  -3549525.03808  -2765864.09608  17365818.29008  17365819.14308
 -11040306.20108  -8602835.14908  16852357.55408  16852358.04208
 -28091485.31908 -21889462.79408  16125245.06608  16125244.83008
 -24074105.35808 -18759043.44508  17556587.46908  17556589.38308
 -28116683.64808 -21909091.26908  16699554.74008  16699555.08508
  -5740089.16107  -4472800.17007  20484469.07607  20484470.57807
  14414398.26607  11231991.16807  20441029.15007  20441031.86707
  -1182860.15107   -921708.69607  20174005.54107  20174007.14207
 93 04 08 12 44 00.0000000  0  8 25 21 15 11 01 28 23 14
 -28365057.24108 -22102635.66708  16073185.98108  16073185.74008
  -3393925.99208  -2644618.20108  17395427.92708  17395428.71308
 -11364979.85908  -8855827.58308  16790574.18508  16790574.67208
 -23857983.94408 -18590637.23608  17597714.04808  17597715.99908
 -27952842.16508 -21781422.60908  16730732.75708  16730733.10708
  -5483382.38907  -4272769.02107  20533318.64607  20533320.13007
  14642478.74907  11409715.53407  20484432.03307  20484434.82307
  -1579729.78807  -1230957.56007  20098483.62007  20098485.17107
 93 04 08 12 46 00.0000000  0  8 25 21 15 11 01 28 23 14
 -28630843.49208 -22309741.78608  16022608.50108  16022608.28208
  -3234432.13508  -2520337.40308  17425778.74208  17425779.54708
 -11682006.51408  -9102861.32008  16730245.98008  16730246.46708
 -23634845.11208 -18416762.89408  17640176.05208  17640178.00108
 -27786492.46308 -21651799.49608  16762388.07108  16762388.38808
  -5229953.38707  -4075291.96607  20581544.81807  20581546.10907
  14872427.07107  11588895.38107  20528190.18307  20528193.15207
  -1977846.08307  -1541177.85307  20022724.34607  20022725.96407
 93 04 08 12 48 00.0000000  0  8 25 21 15 11 01 28 23 14
 -28889003.60708 -22510905.46008  15973482.20608  15973481.97508
  -3070751.08408  -2392793.85908  17456926.23808  17456927.14808
 -11991297.25708  -9343867.07208  16671389.89008  16671390.37408
 -23404975.16908 -18237643.54508  17683918.93808  17683920.87708
 -27618002.20108 -21520508.42408  16794450.75608  16794451.08508
  -4979880.53607  -3880430.09107  20629132.04807  20629133.45407
  15104143.74207  11769453.10607  20572285.20007  20572287.98407
  -2377000.63607  -1852207.15607  19946767.71807  19946769.15507
 93 04 08 12 50 00.0000000  0  8 25 21 15 11 01 14 28 23
 -29139050.51509 -22705747.16808  15925899.87009  15925899.61508
  -2902849.44508  -2261961.55908  17488876.96608  17488877.92708
 -12292631.70708  -9578673.12108  16614047.85708  16614048.31608
 -23168530.89808 -18053401.34608  17728912.80408  17728914.79808
 -27447524.93008 -21387669.05208  16826891.56408  16826891.93608
  -2777237.32307  -2164079.70307  19870605.14707  19870606.40407
  -4733889.70507  -3688749.01807  20675942.60107  20675943.99807
  15337996.05507  11951675.04307  20616786.20407  20616789.33207
 93 04 08 12 52 00.0000000  0  7 25 21 15 11 23 14 01
 -29380659.46409 -22894013.85008  15879923.17709  15879922.89508
  -2731086.11708  -2128120.15208  17521562.53108  17521563.50108
 -12585891.06908  -9807186.90008  16558242.44808  16558242.88808
 -22925767.92308 -17864235.47208  17775109.09108  17775111.15908
  15573689.54107  12135331.57807  20661637.86507  20661640.96007
  -3179097.41107  -2477217.23607  19794133.56707  19794134.85107
 -27275099.14408 -21253311.36308  16859703.10108  16859703.54708
 93 04 08 12 54 00.0000000  0  7 21 15 25 11 20 14 01
  -2555332.89708  -1991169.75408  17555007.42408  17555008.40708
 -12870959.40008 -10029318.05708  16503995.75608  16503996.17508
 -29614038.37309 -23075867.52308  15835512.59509  15835512.29508
 -22676945.09908 -17670347.63708  17822458.62008  17822460.68808
        -0.96617        -0.53317  20125210.68117  20125213.37817
  -3582169.14108  -2791298.90008  19717431.37408  19717432.63508
 -27100581.21308 -21117323.43708  16892912.80008  16892913.28208
 93 04 08 12 56 00.0000000  0  8 21 15 25 20 29 14 11 01
  -2375686.68808  -1851185.88008  17589193.10008  17589194.11808
 -13147712.14808 -10244969.54108  16451331.40108  16451331.84908
 -29839122.74009 -23251257.92208  15792680.53109  15792680.24308
   -172193.70307   -134176.88007  20092443.69407  20092446.41507
        -0.40318         0.15118  19823925.38518  19823926.27018
  -3985931.84208  -3105919.00408  19640597.80808  19640599.01908
 -22422311.30008 -17471931.77008  17870913.87108  17870916.00108
 -26924708.76908 -20980280.04408  16926380.27008  16926380.73908
 93 04 08 12 58 00.0000000  0  8 21 15 25 11 20 29 14 01
  -2191925.92008  -1707995.86208  17624161.74608  17624162.85208
 -13416008.27508 -10454031.46008  16400276.38508  16400276.81808
 -30055840.38609 -23420128.80308  15751440.49009  15751440.22308
 -22162095.51008 -17269166.29408  17920431.43408  17920433.48108
   -337980.42707   -263361.54407  20060895.74007  20060898.58607
   -359531.15008   -280153.52108  19755508.83208  19755509.55508
  -4390907.18408  -3421484.07108  19563533.29808  19563534.66808
 -26747238.99508 -20841991.99108  16960151.71008  16960152.18808
 93 04 08 13 00 00.0000000  0  8 25 21 15 20 29 14 11 01
 -30264197.33609 -23582484.86409  15711791.49409  15711791.23509
  -2003776.23008  -1561385.91808  17659965.58108  17659966.81908
 -13675736.87808 -10656417.39408  16350851.68208  16350852.10208
   -497254.49407   -387471.42807  20030586.95507  20030589.93307
   -716514.79508   -558322.43708  19687576.93808  19687577.71508
  -4797112.68608  -3738007.69208  19486234.82108  19486236.18808
 -21896553.98508 -17062250.91008  17970962.38508  17970964.47008
 -26568015.22008 -20702337.19808  16994256.93508  16994257.48408
 93 04 08 13 02 00.0000000  0  8 15 21 25 20 29 14 11 01
 -13926736.25008 -10852001.33208  16303088.10208  16303088.51108
  -1811781.44108  -1411779.81708  17696501.26008  17696502.43808
 -30463724.13809 -23737960.29809  15673822.80809  15673822.51009
   -649857.04207   -506382.73407  20001547.74107  20001550.83407
  -1071261.47708   -834748.27108  19620070.69608  19620071.50808
  -5204317.59608  -4055310.10608  19408746.20008  19408747.44108
 -21625889.55708 -16851343.65308  18022468.18608  18022470.28208
 -26387080.25608 -20561349.03508  17028687.78308  17028688.34908
 93 04 08 13 04 00.0000000  0  8 15 21 25 20 29 14 11 01
 -14168915.00908 -11040712.06508  16257002.98908  16257003.44908
  -1616045.89508  -1259258.86508  17733748.72508  17733749.98708
 -30654743.70109 -23886806.72509  15637473.01309  15637472.73709
   -795700.33407   -620027.07807  19973794.91907  19973797.86307
  -1423713.24808  -1109385.86408  19553001.21108  19553002.01108
  -5612216.86608  -4373153.57608  19331125.54908  19331126.60908
 -21350372.73608 -16636655.31508  18074897.27908  18074899.40408
 -26204904.80908 -20419394.28008  17063354.71008  17063355.32108
 93 04 08 13 06 00.0000000  0  8 15 25 21 20 29 14 11 01
 -14402126.01008 -11222434.93608  16212624.38508  16212624.91508
 -30837397.95909 -24029134.74409  15602715.06709  15602714.76409
  -1415931.17208  -1103325.57408  17771829.38308  17771830.75808
   -934640.74307   -728292.54207  19947355.63507  19947358.64107
  -1773801.32208  -1382181.60708  19486381.65508  19486382.48708
  -6021195.60408  -4691838.19608  19253299.50708  19253300.55808
 -21070213.81408 -16418349.75708  18128209.80308  18128211.97008
 -26021350.04308 -20276364.73008  17098284.16008  17098284.75508
 93 04 08 13 08 00.0000000  0  8 15 25 21 20 29 14 11 01
 -14626275.02108 -11397096.52108  16169970.25408  16169970.86308
 -31011146.12709 -24164522.95609  15569651.91509  15569651.62909
  -1211791.53308   -944256.01808  17810676.05208  17810677.55008
  -1066583.94807   -831105.63907  19922247.80307  19922251.01107
  -2121568.29908  -1653168.71008  19420203.65508  19420204.41508
  -6430665.13508  -5010905.24408  19175379.82708  19175380.89308
 -20785670.24208 -16196627.59208  18182356.71208  18182358.89708
 -25836521.88108 -20132342.94208  17133455.98708  17133456.58808
 93 04 08 13 14 00.0000000  0  7 25 15 01 29 14 21 20
        -0.95519        -0.53419  15480549.15519  15480548.91019
         0.25918        -0.28518  16052559.76818  16052560.31618
         0.45018        -0.09918  17240185.00618  17240185.77118
         0.07418         0.49318  19224317.26018  19224318.07418
        -0.87618        -0.04118  18940657.94118  18940659.11718
        -0.51618        -0.39118  17931748.26818  17931749.91518
        -0.93918        -0.78418  19855115.75218  19855118.85118
 93 04 08 13 16 00.0000000  0  8 25 15 01 29 14 21 20 11
   -138562.32509   -107970.50109  15454181.73709  15454181.56609
   -186961.09408   -145684.50308  16016982.26708  16016982.81408
    188941.94308    147226.84208  17276139.49708  17276140.27308
   -338333.17408   -263635.66908  19159934.45908  19159935.20908
   -412696.44608   -321580.95608  18862124.60008  18862125.61308
    220206.49208    171589.14908  17973652.44808  17973654.24208
   -103024.07907    -80278.75808  19835511.09607  19835514.51608
        -0.18118         0.23718  18406360.89318  18406363.10718
 93 04 08 13 18 00.0000000  0  8 25 15 01 29 14 21 20 11
   -268028.00509   -208852.91609  15429545.39709  15429545.23209
   -364391.28408   -283941.84808  15983218.50508  15983218.99508
    378779.37708    295151.90408  17312264.58708  17312265.42008
   -674382.15508   -525491.89508  19095986.43208  19095987.03608
   -825574.73708   -643304.25008  18783556.42408  18783557.41208
    444383.26308    346271.99308  18016312.10608  18016314.01708
   -198577.96407   -154736.54408  19817327.98607  19817331.43108
    302759.90608    235917.07808  18463974.25608  18463976.55708
 93 04 08 13 20 00.0000000  0  8 25 15 01 29 14 21 20 11
   -388455.99809   -302692.98109  15406628.73909  15406628.58309
   -532239.39608   -414732.64508  15951278.14908  15951278.61608
    569331.26908    443633.68408  17348525.57308  17348526.48508
  -1008148.71908   -785569.63308  19032472.76108  19032473.30808
  -1239221.82008   -965626.61108  18704841.95608  18704842.97208
    672373.68408    523926.48308  18059697.54408  18059699.48708
   -286608.51707   -223331.99708  19800576.50707  19800580.02508
    608420.72508    474094.22408  18522139.69408  18522141.97708
 93 04 08 13 22 00.0000000  0  8 25 15 01 29 14 21 20 11
   -500036.96009   -389639.26109  15385395.65009  15385395.51009
   -690402.78608   -537976.91408  15921180.67208  15921181.21008
    760713.90408    592762.78208  17384944.70808  17384945.69308
  -1339249.28508  -1043569.99208  18969466.44908  18969466.90708
  -1653190.05308  -1288199.23208  18626066.46208  18626067.47808
    904393.37308    704720.63708  18103849.78408  18103851.77208
   -367007.90008   -285981.11508  19785277.20408  19785280.67908
    916773.78108    714369.22808  18580817.39008  18580819.67708
 93 04 08 13 24 00.0000000  0  8 25 15 01 29 14 21 20 11
   -602832.98709   -469740.14909  15365834.27309  15365834.14309
   -838733.52808   -653559.38308  15892954.31508  15892954.89308
    952979.55308    742579.92308  17421531.81808  17421532.87208
  -1668329.45108  -1299996.02208  18906844.49008  18906844.97608
  -2067281.61408  -1610867.97308  18547267.45108  18547268.45508
   1140429.10708    888644.17008  18148766.17908  18148768.31008
   -439622.24008   -342563.99608  19771459.33308  19771462.99208
   1227662.69208    956620.21208  18639977.65108  18639980.03408
 93 04 08 13 26 00.0000000  0  8 25 15 01 29 14 21 20 11
   -696713.73209   -542894.06109  15347969.43109  15347969.31509
   -977241.79408   -761487.98208  15866597.07208  15866597.72408
   1145841.14708    892861.43208  17458232.34708  17458233.43908
  -1994958.56608  -1554512.15608  18844688.88908  18844689.50508
  -2481413.47908  -1933568.15308  18468460.73308  18468461.70908
   1380533.34308   1075737.93708  18194456.81308  18194459.09708
   -504454.70807   -393083.03608  19759122.32007  19759125.96308
   1540780.77008   1200608.20608  18699562.10308  18699564.56908
 93 04 08 13 28 00.0000000  0  8 25 15 01 29 14 21 20 11
   -781392.64309   -608877.71509  15331855.61409  15331855.56009
  -1105862.85608   -861712.26708  15842121.31608  15842122.02508
   1339408.98508   1043693.24508  17495067.26108  17495068.40508
  -2319326.22508  -1807266.13808  18782963.80908  18782964.21008
  -2895670.72508  -2256366.04708  18389630.21908  18389631.27108
   1624317.44508   1265699.12108  18240847.80908  18240850.09308
   -561432.30707   -437481.35608  19748280.10007  19748283.72908
   1855903.74608   1446158.45308  18759528.08308  18759530.57508
 93 04 08 13 30 00.0000000  0  8 25 15 01 29 14 21 20 11
   -856807.47009   -667642.60609  15317504.72309  15317504.69309
  -1224539.77708   -954187.86808  15819537.94708  15819538.69008
   1533813.82108   1195177.26608  17532061.39708  17532062.66608
  -2641391.06008  -2058225.72608  18721676.88008  18721677.34908
  -3310175.89908  -2579357.13308  18310752.59108  18310753.60208
   1872264.13608   1458903.87008  18288030.75708  18288033.16808
   -610487.36007   -475706.24507  19738945.21407  19738948.95807
   2172808.45008   1693097.05308  18819833.13808  18819835.59008
 93 04 08 13 32 00.0000000  0  8 25 15 29 14 01 21 20 11
   -923336.57509   -719483.55509  15304844.61409  15304844.56709
  -1333235.47108  -1038885.89408  15798853.92808  15798854.67108
  -2961104.94008  -2307353.42608  18660837.26208  18660837.89408
  -3724506.02508  -2902211.81308  18231908.23108  18231909.23208
   1728808.07808   1347120.57108  17569167.78508  17569169.14008
   2124079.17108   1655122.90608  18335949.83708  18335952.42008
   -651570.11907   -507718.97807  19731127.54607  19731131.44707
   2491259.78708   1941240.82508  18880432.50308  18880435.16808
 93 04 08 13 34 00.0000000  0  8 25 15 29 14 01 21 20 11
   -981103.33609   -764496.70109  15293852.18609  15293852.14709
  -1431965.31008  -1115818.33008  15780066.38908  15780067.06808
  -3278629.45908  -2554775.15808  18600414.42308  18600415.07408
  -4138474.30808  -3224784.54708  18153132.66408  18153133.68108
   1924224.70308   1499392.99708  17606354.55708  17606355.95808
   2379801.18908   1854386.31408  18384612.61008  18384615.26908
   -684684.13207   -533522.29807  19724826.42907  19724830.17407
   2810978.68008   2190372.30108  18941273.10608  18941275.79808
 93 04 08 13 40 00.0000000  0  8 29 14 22 25 15 01 21 20
        -0.52818        -0.45018  23527019.44518  23527020.12118
        -0.07118        -0.63818  23022382.25618  23022383.45818
        -0.11018        -0.54018  24344039.01918  24344041.54518
        -0.94919        -0.49319  20376327.37219  20376327.43619
         0.21518        -0.12418  20840402.44518  20840403.22018
        -0.08818        -0.10218  22823480.42818  22823482.01918
        -0.47018         0.41718  23640165.35618  23640168.37118
         0.14317         0.27317  24820367.98717  24820371.84417
 93 04 08 13 42 00.0000000  0  8 29 14 22 25 15 01 21 20
   -315302.34108   -245690.20408  23467019.48508  23467020.12208
   -419359.79908   -326774.51408  22942580.78408  22942582.06808
   -422615.63408   -329311.48208  24263618.06308  24263620.61008
    -29109.38409    -22682.48609  20370788.27409  20370788.34409
    -65486.47808    -51028.82108  20827940.83508  20827941.65508
    190134.39508    148156.34408  22859662.09408  22859663.70208
    263730.14808    205504.23908  23690352.00408  23690355.17008
     -7703.34407     -6002.61807  24818902.20807  24818906.19107
 93 04 08 13 44 00.0000000  0  8 29 14 22 25 15 01 21 20
   -629365.91808   -490415.08608  23407255.16908  23407255.80608
   -839116.12608   -653857.42608  22862703.93508  22862705.12008
   -847242.34808   -660189.59208  24182814.47908  24182817.08108
    -50490.38309    -39343.10309  20366719.69409  20366719.79709
   -122071.69208    -95121.30708  20817173.12208  20817173.95508
    379081.23608    295387.33908  22895617.64908  22895619.30508
    530168.14208    413117.68808  23741053.88908  23741057.21408
     -8415.57707     -6557.74707  24818766.63107  24818770.89007
 93 04 08 13 46 00.0000000  0  8 29 14 22 25 15 01 21 20
   -941786.73908   -733859.90908  23347803.67408  23347804.18608
  -1258761.10208   -980853.58808  22782848.32708  22782849.45708
  -1273117.73008   -992040.69308  24101773.20208  24101775.94608
    -63676.74109    -49618.29109  20364210.45009  20364210.60409
   -169195.22908   -131841.06708  20808205.90308  20808206.74708
    568044.05508    442630.77008  22931576.28108  22931578.08508
    799662.45408    623112.65608  23792337.43508  23792340.80008
     -1556.20107     -1212.97107  24820072.13407  24820076.01407
 93 04 08 13 48 00.0000000  0  8 29 14 22 25 15 01 21 20
  -1252845.60508   -976243.48208  23288611.25808  23288611.63208
  -1678114.48408  -1307622.55908  22703048.03808  22703049.18808
  -1700097.50408  -1324752.33108  24020521.70508  24020524.50808
    -68945.59209    -53723.97609  20363207.87909  20363208.05409
   -206925.70608   -161241.56308  20801026.09108  20801027.02808
    756696.79208    589632.57108  22967475.95108  22967477.83008
   1072246.19308    835514.96508  23844208.81908  23844212.37508
     12829.87107      9996.75707  24822810.04207  24822813.83807
 93 04 08 13 50 00.0000000  0  8 29 14 22 25 15 01 21 20
  -1562627.68608  -1217632.14908  23229661.64808  23229662.13008
  -2097009.11008  -1634034.04708  22623335.07308  22623336.34208
  -2128102.98108  -1658263.14408  23939075.08808  23939077.82508
    -66397.54809    -51738.57609  20363692.84209  20363693.04809
   -235406.94508   -183434.86208  20795606.37008  20795607.33108
    944643.54808    736084.27008  23003241.33408  23003243.27808
   1347451.13308   1049959.75608  23896578.98708  23896582.70308
     34622.78007     26977.98807  24826957.34007  24826961.29507
 93 04 08 13 52 00.0000000  0  8 29 14 22 25 15 01 21 20
  -1871036.64508  -1457950.81108  23170973.31408  23170973.88608
  -2515841.49808  -1960397.02308  22543634.00608  22543635.26408
  -2557276.78508  -1992684.30808  23857405.99408  23857408.74508
    -56485.44109    -44014.94909  20365579.12109  20365579.33709
   -255011.10208   -198710.93808  20791875.92508  20791876.85208
   1131801.33508    881921.20108  23038856.51108  23038858.62408
   1625117.74107   1266322.72408  23949417.69907  23949421.53308
     63475.70706     49460.58207  24832447.88106  24832452.01007
 93 04 08 13 54 00.0000000  0  8 14 29 22 25 15 01 21 20
  -2934758.00508  -2286825.53208  22463916.99008  22463918.22308
  -2178401.78608  -1697456.06608  23112483.47408  23112484.12608
  -2987481.57108  -2327908.83608  23775540.77508  23775543.55408
    -39161.01609    -30515.49509  20368875.89909  20368876.12209
   -265841.55208   -207150.34208  20789815.02408  20789815.96508
   1318060.35208   1027057.79208  23074300.70208  23074302.84108
   1905425.29907   1484743.58108  24002758.82807  24002762.90108
     99313.31606     77385.76907  24839267.51106  24839271.77407
 93 04 08 13 56 00.0000000  0  8 14 29 22 25 15 01 21 20
  -3352950.53508  -2612689.89208  22384337.60008  22384338.75108
  -2484201.74208  -1935741.70408  23054291.59608  23054292.27008
  -3418078.26408  -2663438.72508  23693600.86708  23693603.60008
    -13957.54909    -10876.50809  20373672.02809  20373672.29309
   -267509.34108   -208450.00108  20789497.68908  20789498.65208
   1503785.17608   1171778.14108  23109643.25308  23109645.33408
   2188449.27107   1705281.12308  24056617.04807  24056621.15608
    142555.10106    111080.48607  24847496.13306  24847500.82307
 93 04 08 13 58 00.0000000  0  8 29 14 22 25 15 01 21 20
  -2788537.31808  -2172886.30308  22996378.58608  22996379.10608
  -3770128.97108  -2937764.02908  22304951.24408  22304952.34908
  -3848752.45408  -2999028.99508  23611646.24308  23611648.93308
     18973.24109     14783.79209  20379938.58909  20379938.89709
   -259957.84808   -202565.80608  20790934.77308  20790935.75708
   1689054.49908   1316143.56708  23144898.91108  23144901.20308
   2473977.52107   1927770.07408  24110951.74707  24110956.04608
    193286.88606    150611.60507  24857150.62206  24857154.87107
 93 04 08 14 00 00.0000000  0  8 14 29 22 25 15 01 21 20
  -4186174.90408  -3261955.70308  22225780.42108  22225781.53608
  -3091284.18608  -2408792.95008  22938767.81508  22938768.35508
  -4279210.93708  -3334451.17508  23529732.76108  23529735.51108
     59701.40909     46519.94809  20387688.97909  20387689.28309
   -243160.07508   -189476.71708  20794131.33508  20794132.35708
   1874051.52608   1460296.79808  23180102.80608  23180105.26408
   2762279.75807   2152420.55508  24165814.14907  24165818.78208
    251566.79006    196024.34506  24868241.04106  24868244.84506
 93 04 08 14 02 00.0000000  0  7 29 14 22 01 21 25 15
  -3392102.12108  -2643196.52308  22881524.03208  22881524.63008
  -4600467.81808  -3584781.39308  22146943.07808  22146944.27408
  -4708796.02008  -3669192.74208  23447985.32808  23447988.15108
   2059085.79008   1604479.02708  23215313.96008  23215316.36008
   3053986.90207   2379724.21108  24221324.60907  24221329.39308
    108168.75509     84286.62308  20396912.08309  20396912.38108
   -216734.05708   -168885.11608  20799160.14608  20799161.16708
 93 04 08 14 04 00.0000000  0  7 14 29 22 25 15 01 21
  -5012413.49608  -3905778.07208  22068552.41008  22068553.62008
  -3690326.57608  -2875579.21008  22824773.74908  22824774.37608
  -5136688.98508  -4002615.73508  23366559.94508  23366562.73508
    165454.16609    128924.52008  20407813.18309  20407813.51908
   -180141.72808   -140371.72508  20806123.49208  20806124.62108
   2244841.45308   1749223.36808  23250662.31008  23250664.84708
   3349502.24208   2609995.26408  24277559.93908  24277564.73608
 93 04 08 14 06 00.0000000  0  8 14 29 22 25 15 01 21 20
  -5420992.76608  -4224151.57108  21990802.40708  21990803.65008
  -3985217.73708  -3105364.52408  22768657.87808  22768658.47608
  -5561928.67308  -4333971.22808  23285639.57508  23285642.24908
    231991.69609    180771.85408  20420474.91909  20420475.29208
   -132715.73408   -103416.52408  20815148.45708  20815149.60408
   2432251.90108   1895257.14308  23286325.61508  23286328.20108
   3649399.35108   2843680.67908  24334629.04608  24334633.91608
        -0.78816        -0.40016  24911065.39516  24911069.75216
 93 04 08 14 08 00.0000000  0  8 14 29 22 01 25 15 21 20
  -5825604.60508  -4539433.58408  21913807.32208  21913808.61608
  -4276490.08308  -3332329.99808  22713230.62408  22713231.22908
  -5984174.69208  -4662994.01008  23205288.83308  23205291.39708
   2621081.39308   2042396.63308  23322259.10008  23322261.78308
    307737.18709    239794.23108  20434888.89309  20434889.26508
    -74413.49408    -57986.33508  20826243.13008  20826244.31308
   3953793.26508   3080870.04408  24392553.68808  24392558.79408
     93338.35506     72731.27606  24928827.30606  24928831.74406
 93 04 08 14 10 00.0000000  0  8 14 29 22 01 25 15 21 20
  -6227201.06708  -4852365.93308  21837386.12408  21837387.40508
  -4564887.66108  -3557055.40308  22658350.43608  22658351.01008
  -6403680.63608  -4989881.67908  23125459.36608  23125461.97108
   2811162.99908   2190511.78408  23358430.61408  23358433.43708
    392209.54709    305616.75108  20450963.49609  20450963.88508
     -5793.28708     -4516.17108  20839301.19008  20839302.42708
   4262284.53908   3321252.11608  24451258.23608  24451263.46908
    195476.75806    152319.59006  24948263.56506  24948268.17106
 93 04 08 14 12 00.0000000  0  8 14 29 22 01 25 15 21 20
  -6625372.95308  -5162629.77508  21761616.64108  21761617.85608
  -4850360.33708  -3779501.66608  22604026.81408  22604027.42808
  -6820293.49508  -5314514.98308  23046180.51308  23046183.04608
   3002262.34808   2339419.95908  23394795.91608  23394798.82908
    485393.35909    378227.40608  20468695.89009  20468696.34408
     72981.59708     56866.73608  20854291.67508  20854292.91808
   4574536.51708   3564564.60608  24510678.39308  24510683.77408
    306291.25206    238668.51506  24969351.29506  24969355.22806
 93 04 08 14 14 00.0000000  0  7 14 29 22 01 21 25 15
  -7019972.08808  -5470109.65708  21686526.96208  21686528.17608
  -5132728.45108  -3999528.79808  22550293.99508  22550294.60808
  -7233695.96908  -5636646.67108  22967512.55908  22967515.06508
   3194397.52708   2489135.26608  23431358.34308  23431361.31508
   4890689.80108   3810917.05908  24570840.91808  24570846.47808
    586916.86709    457336.51108  20488015.25109  20488015.74708
    161910.28808    126161.70908  20871214.34508  20871215.59508
 93 04 08 14 16 00.0000000  0  7 14 29 22 01 21 25 15
  -7410776.25608  -5774632.41908  21612159.43108  21612160.68208
  -5412279.51808  -4217360.82908  22497097.18608  22497097.82508
  -7643667.66108  -5956105.02208  22889497.44008  22889499.95508
   3387646.18608   2639718.21308  23468132.63608  23468135.76808
   5210754.61708   4060317.44308  24631747.77208  24631753.54908
    696844.37709    542994.18908  20508933.84609  20508934.36008
    260885.85608    203285.40008  20890048.90008  20890050.15308
 93 04 08 14 18 00.0000000  0  7 14 29 22 01 21 25 15
  -7797700.08608  -6076131.54808  21538530.21108  21538531.50308
  -5688637.11008  -4432704.41308  22444508.09208  22444508.72608
  -8050018.53908  -6272741.99808  22812171.41208  22812173.92808
   3581951.03108   2791124.14208  23505107.87408  23505111.22008
   5534706.13608   4312746.46007  24693394.33608  24693400.24707
    815232.40909    635244.48508  20531462.42709  20531463.01308
    369763.71208    288125.15308  20910767.78308  20910769.03808
 93 04 08 14 20 00.0000000  0  7 14 29 22 01 21 25 15
  -8180809.33408  -6374658.26408  21465626.94008  21465628.24708
  -5962084.69608  -4645780.45908  22392472.72308  22392473.37608
  -8452634.64408  -6586468.78408  22735556.13008  22735558.62608
   3777272.61908   2943322.34508  23542276.76208  23542280.13508
   5862269.59308   4567989.96207  24755727.97608  24755734.32107
    941833.39708    733894.48508  20555553.93308  20555554.50608
    488319.09308    380505.82608  20933328.18208  20933329.53208
 93 04 08 14 22 00.0000000  0  7 14 29 22 01 21 25 15
  -8559567.90208  -6669794.83708  21393551.62208  21393552.93108
  -6232913.21808  -4856815.70108  22340935.80608  22340936.48108
  -8851289.31708  -6897108.71308  22659694.61108  22659697.04708
   3973994.47208   3096611.66308  23579712.13308  23579715.51908
   6193118.64207   4825793.63707  24818687.16907  24818693.42807
   1076285.08608    838661.90608  20581139.32608  20581139.91708
    616433.32108    480334.95508  20957707.59708  20957709.02908
 93 04 08 14 24 00.0000000  0  7 29 14 22 15 01 21 25
  -6500997.78508  -5065712.79608  22289921.19208  22289921.80908
  -8933957.73008  -6961527.19808  21322307.61808  21322308.96208
  -9245820.46308  -7204535.46808  22584617.63608  22584620.15208
    753919.89808    587467.21108  20983870.50108  20983872.00708
   4171656.11908   3250633.29308  23617326.10008  23617329.62908
   6527625.19607   5086447.29107  24882342.18607  24882348.89307
   1218462.21808    949449.14408  20608194.87908  20608195.53008
 93 04 08 14 26 00.0000000  0  7 29 14 22 15 01 21 25
  -6766236.72808  -5272392.50508  22239447.75208  22239448.39608
  -9304100.58308  -7249950.22208  21251871.77908  21251873.19308
  -9635962.48308  -7508542.12308  22510376.10908  22510378.47308
    900686.29408    701830.48208  21011799.38408  21011800.87608
   4370323.09908   3405438.27308  23655131.53908  23655135.13008
   6865644.30607   5349837.99007  24946665.88107  24946672.57407
   1368388.18808   1066274.43308  20636724.93308  20636725.61308
 93 04 08 14 28 00.0000000  0  7 29 14 22 15 01 21 25
  -7028645.76108  -5476867.09708  22189513.03608  22189513.71208
  -9669577.32308  -7534737.32308  21182323.89508  21182325.29908
 -10021547.05908  -7808997.55408  22437001.78208  22437004.17308
   1056542.65308    823276.83008  21041458.03108  21041459.49108
   4570177.28808   3561168.31808  23693162.88508  23693166.65508
   7206633.41407   5615542.97607  25011554.34307  25011561.42607
   1525789.11508   1188924.35508  20666677.43908  20666678.13608
 93 04 08 14 30 00.0000000  0  7 29 14 22 15 01 21 25
  -7288421.75408  -5679289.97308  22140079.38208  22140079.96908
 -10030539.50808  -7816006.58608  21113635.11508  21113636.53708
 -10402426.25008  -8105786.47808  22364522.85008  22364525.20408
   1221271.66608    951636.91308  21072805.04908  21072806.56808
   4770865.52608   3717548.26708  23731352.97108  23731356.88608
   7550543.67107   5883524.14607  25076999.00007  25077006.24207
   1690657.66608   1317393.20108  20698050.99808  20698051.71208
 93 04 08 14 32 00.0000000  0  7 29 14 22 15 01 21 25
  -7545672.73608  -5879745.31308  22091126.14508  22091126.70508
 -10386763.20708  -8093583.54108  21045847.98708  21045849.43708
 -10778363.37608  -8398724.44908  22292984.30108  22292986.71208
   1394742.17108   1086808.54408  21105815.50208  21105817.11208
   4972592.82308   3874737.86508  23769740.81508  23769744.73408
   7897620.07907   6153972.34407  25143046.24507  25143053.56007
   1862828.34208   1451552.00108  20730814.11208  20730814.88908
 93 04 08 14 34 00.0000000  0  6 15 29 22 01 14 25
   1576798.98308   1228670.79308  21140459.92008  21140461.57308
  -7800244.70408  -6078113.12708  22042682.76708  22042683.37508
 -11149141.91308  -8687642.74908  22222427.48508  22222429.84908
   5175618.34308   4032939.02408  23808375.69608  23808379.79708
 -10738166.37008  -8367404.25108  20978978.29508  20978979.75708
   2041678.95308   1590915.93008  20764848.40808  20764849.22408
 93 04 08 14 36 00.0000000  0  6 15 29 22 01 14 25
   1767259.68408   1377081.52008  21176703.54108  21176705.27008
  -8051958.08408  -6274253.47408  21994783.30308  21994783.97308
 -11514568.62408  -8972390.78608  22152889.01008  22152891.42208
   5379493.39208   4191802.13208  23847172.34508  23847176.46508
 -11084510.11008  -8637282.53408  20913071.30308  20913072.77508
   2227578.83908   1735772.78808  20800224.12408  20800225.02608
 93 04 08 14 38 00.0000000  0  6 29 22 15 01 14 25
  -8301137.51908  -6468419.32708  21947366.05508  21947366.83508
 -11874416.02608  -9252791.29708  22084412.28908  22084414.68208
   1965973.13508   1531922.95108  21214517.66308  21214519.42108
   5584465.59508   4351520.14008  23886177.59008  23886181.98408
 -11425038.60308  -8902629.45508  20848270.92408  20848272.41008
   2420642.06108   1886211.45108  20836963.00108  20836963.95508
 93 04 08 14 40 00.0000000  0  7 29 22 15 01 18 14 25
  -8548062.75408  -6660828.66208  21900377.77608  21900378.55808
 -12228500.92708  -9528701.55008  22017032.14708  22017034.50108
   2172745.11908   1693043.75708  21253865.27108  21253867.01508
   5790538.39408   4512095.74808  23925392.35608  23925396.93608
         0.29017        -0.03117  24757519.08817  24757521.62617
 -11760343.45908  -9163906.00708  20784464.59808  20784466.09808
   2620146.40708   2041669.16908  20874927.57808  20874928.59408
 93 04 08 14 42 00.0000000  0  7 29 22 15 01 18 14 25
  -8792311.66808  -6851152.54808  21853898.82808  21853899.64308
 -12576685.02308  -9800013.80108  21950774.85908  21950777.26608
   2387330.53708   1860252.93708  21294699.71208  21294701.49108
   5997779.33908   4673581.58908  23964829.48308  23964834.19808
   -356040.93007   -277434.99607  24689766.89407  24689769.62607
 -12090338.33308  -9421044.89608  20721668.75108  20721670.21408
   2826053.55208   2202116.08108  20914110.55908  20914111.65608
 93 04 08 14 44 00.0000000  0  7 29 22 15 01 18 14 25
  -9033736.93408  -7039276.19908  21807957.13508  21807957.96308
 -12918621.18708 -10066457.57008  21885706.55008  21885709.03408
   2609691.24708   2033520.77408  21337013.70208  21337015.59808
   6206171.94008   4835964.81408  24004485.77808  24004490.55808
   -710461.86907   -553607.31707  24622323.02907  24622325.58807
 -12414350.87308  -9673522.24208  20660011.22408  20660012.71308
   3038359.72108   2367549.24808  20954511.22408  20954512.38408
 93 04 08 14 46 00.0000000  0  7 29 22 25 15 01 18 14
  -9272485.23408  -7225313.89408  21762524.91808  21762525.74608
 -13254062.57808 -10327840.51108  21821874.17608  21821876.72208
   3257079.15708   2537979.78108  20996132.32408  20996133.54708
   2839689.67808   2212740.08308  21380781.19908  21380783.12208
   6415541.58808   4999109.37008  24044327.95008  24044332.92708
  -1063182.97707   -828455.08807  24555202.50907  24555205.14907
 -12732412.47908  -9921362.49708  20599486.10508  20599487.63408
 93 04 08 14 48 00.0000000  0  7 29 22 25 15 01 18 14
  -9508258.22608  -7409033.17208  21717658.82708  21717659.70308
 -13582760.69808 -10583968.95708  21759325.06608  21759327.57908
   3481998.95808   2713241.77608  21038933.24408  21038934.57508
   3077189.19108   2397804.39208  21425975.99108  21425978.00008
   6626403.41708   5163416.69008  24084454.04408  24084459.22008
  -1414249.63907  -1102013.70007  24488396.86107  24488399.47907
 -13044228.63508 -10164336.16508  20540149.52508  20540151.06408
 93 04 08 14 50 00.0000000  0  7 29 22 25 15 01 18 14
  -9741510.20808  -7590788.03408  21673272.58208  21673273.40208
 -13904479.12208 -10834658.64708  21698104.14108  21698106.62808
   3713202.00908   2893399.80608  21082929.81908  21082931.21008
   3322038.53608   2588595.84008  21472569.47208  21472571.58308
   6838732.55208   5328867.35808  24124859.52308  24124864.75908
  -1763492.66807  -1374151.26707  24421938.11707  24421940.89307
 -13349335.12308 -10402081.53608  20482089.73408  20482091.27108
 93 04 08 14 52 00.0000000  0  7 29 22 25 15 01 18 14
  -9972080.90608  -7770453.57308  21629396.49008  21629397.38108
 -14218949.80308 -11079700.71608  21638262.33408  21638264.83408
   3950540.50508   3078338.69008  21128094.05208  21128095.46108
   3574120.45708   2785023.04708  21520539.29808  21520541.43408
   7052583.57008   5495503.89308  24165554.48508  24165559.92508
  -2110723.58207  -1644720.91307  24355862.46807  24355865.14807
 -13647879.52308 -10634713.59108  20425278.72908  20425280.28108
 93 04 08 14 54 00.0000000  0  7 29 22 25 15 01 18 14
 -10199674.85008  -7947799.56708  21586086.82108  21586087.79308
 -14525938.56208 -11318912.68408  21579844.24408  21579846.75708
   4193591.15308   3267728.58008  21174345.27608  21174346.70008
   3833282.31208   2986967.07808  21569856.37308  21569858.56408
   7268217.99308   5663530.09808  24206588.85708  24206594.34008
  -2456177.31307  -1913905.69207  24290124.80607  24290127.46607
 -13939587.97209 -10862018.92908  20369768.53209  20369770.07708
 93 04 08 14 56 00.0000000  0  7 29 22 25 15 01 18 14
 -10424405.66908  -8122914.55608  21543322.02708  21543323.05408
 -14825281.50508 -11552166.86708  21522881.14908  21522883.63508
   4442628.25108   3461783.22508  21221735.64908  21221737.06508
   4099303.34608   3194255.90408  21620478.70508  21620480.99208
   7485158.77707   5832574.23808  24247871.74507  24247877.52408
  -2799842.67407  -2181696.92907  24224727.65207  24224730.22907
 -14224238.61509 -11083824.67708  20315601.30609  20315602.88108
 93 04 08 14 58 00.0000000  0  7 29 22 25 15 01 18 14
 -10646308.65108  -8295826.04808  21501095.37508  21501096.30708
 -15116721.66308 -11779263.04908  21467421.95008  21467424.38808
   4697055.47408   3660037.94608  21270151.76208  21270153.27408
   4372055.94308   3406790.07308  21672382.09308  21672384.46508
   7703536.19807   6002737.82408  24289427.99607  24289433.99208
  -3141724.12807  -2448098.13407  24159669.78807  24159672.59307
 -14501636.16509 -11299978.65708  20262814.38209  20262815.95108
 93 04 08 15 00 00.0000000  0  7 29 22 25 15 01 18 14
 -10865101.75108  -8466314.25608  21459460.56308  21459461.49708
 -15400063.67808 -12000048.99108  21413503.78308  21413506.12508
   4957132.45308   3862695.08908  21319642.93808  21319644.51408
   4651354.97308   3624425.35608  21725531.13508  21725533.62208
   7923672.92308   6174272.27008  24331319.24808  24331325.31808
  -3481698.85407  -2713013.59007  24094974.76207  24094977.69807
 -14771814.38909 -11510507.19008  20211401.15909  20211402.75708
 93 04 08 15 02 00.0000000  0  7 29 22 25 15 01 14 18
 -11081240.23108  -8634733.92808  21418330.79608  21418331.78508
 -15675099.01808 -12214362.19308  21361166.25208  21361168.63808
   5223082.05508   4069928.30608  21370251.57308  21370253.30508
   4937026.10308   3847025.91208  21779892.78208  21779895.35608
   8145587.41208   6347192.01207  24373548.57508  24373554.77907
 -15034423.50609 -11715137.72108  20161428.32609  20161429.94608
  -3819671.97607  -2976369.38307  24030660.73407  24030663.66707
 93 04 08 15 04 00.0000000  0  7 29 22 25 15 01 14 18
 -11294726.62308  -8801087.03508  21377705.76908  21377706.80708
 -15941605.17508 -12422029.25608  21310451.76308  21310454.14308
   5494269.55208   4281242.98808  21421857.06308  21421858.81008
   5228914.51608   4074471.09808  21835437.61108  21835440.20908
   8369187.38408   6521425.09208  24416098.82408  24416105.15608
 -15289185.23409 -11913653.38908  20112948.85609  20112950.46408
  -4155482.51607  -3238040.02107  23966758.19407  23966760.96207
 93 04 08 15 06 00.0000000  0  7 29 22 25 15 01 14 18
 -11504675.06408  -8964683.28008  21337753.96308  21337754.97708
 -16199427.35208 -12622929.56808  21261389.84308  21261392.15508
   5770586.76408   4496554.84808  21474438.71608  21474440.48708
   5526799.67908   4306589.05708  21892123.48908  21892126.24708
   8594911.67908   6697313.46708  24459053.31808  24459059.81908
 -15536065.44809 -12106027.60908  20065969.17209  20065970.73608
  -4489851.53707  -3498587.38607  23903129.91707  23903132.86307
 93 04 08 15 08 00.0000000  0  7 29 22 25 15 01 14 18
 -11711487.85608  -9125836.14808  21298398.84008  21298399.84608
 -16448365.15408 -12816906.99508  21214018.45908  21214020.80008
   6052165.69008   4715966.72408  21528021.66308  21528023.42208
   5830510.16308   4543246.21308  21949917.92908  21949920.80008
   8822279.22908   6874482.29307  24502320.37608  24502327.03907
 -15774734.02609 -12292003.15108  20020552.05909  20020553.64608
  -4822044.62607  -3757439.18807  23839915.74507  23839918.54307
 93 04 08 15 10 00.0000000  0  7 29 22 25 15 14 01 18
 -11915547.76808  -9284843.91108  21259567.52708  21259568.54008
 -16688276.11008 -13003850.54208  21168364.88208  21168367.21708
   6338321.39208   4938944.93608  21582475.50508  21582477.37608
   6139818.25808   4784265.12208  22008777.58808  22008780.54908
 -16005011.30909 -12471440.02508  19976731.78409  19976733.41908
   9051764.15008   7053300.95707  24545990.49408  24545997.20707
  -5151943.48107  -4014503.27207  23777138.05107  23777140.99707
 93 04 08 15 12 00.0000000  0  7 29 22 25 15 01 14 18
 -12116714.40108  -9441597.16808  21221286.85408  21221287.86008
 -16919008.49308 -13183641.96708  21124457.91908  21124460.27008
   6629280.77008   5165666.27408  21637843.40108  21637845.38908
   6454512.32608   5029480.89308  22068662.12608  22068665.22408
   9283107.39908   7233567.65807  24590014.25408  24590021.20407
 -16226795.50709 -12644258.91008  19934527.67009  19934529.33408
  -5480114.41707  -4270220.90707  23714689.28107  23714692.11507
 93 04 08 15 14 00.0000000  0  7 29 22 25 15 01 14 18
 -12314859.17808  -9595995.72208  21183581.08908  21183582.18608
 -17140437.65308 -13356184.10308  21082321.24208  21082323.68208
   6925319.77408   5396345.75808  21694177.90608  21694179.94208
   6774354.70408   5278708.32208  22129526.46908  22129529.64908
   9516035.41108   7415069.19807  24634339.63908  24634346.81707
 -16440384.23509 -12810691.72208  19893883.13209  19893884.79708
  -5806454.25407  -4524511.68507  23652588.76707  23652591.83907
 93 04 08 15 16 00.0000000  0  7 29 22 25 15 14 01 18
 -12509963.24308  -9748024.89308  21146454.11708  21146455.20508
 -17352364.82608 -13521322.06608  21041992.79908  21041995.21208
   7225664.78208   5630380.56908  21751331.87408  21751334.04308
   7099188.98708   5531825.49608  22191340.82908  22191344.00108
 -16645349.92109 -12970405.27308  19854879.48909  19854881.15608
   9751063.38208   7598207.08507  24679064.57808  24679072.02007
  -6130669.33207  -4777146.78708  23590892.68807  23590895.79708
 93 04 08 15 18 00.0000000  0  7 29 25 15 18 01 14 22
 -12702173.16508  -9897798.86608  21109877.80408  21109878.87608
   7530154.14008   5867644.72708  21809274.41608  21809276.69908
   7428765.18108   5788637.65208  22254057.36408  22254060.73008
  -6453070.01708  -5028368.02208  23529541.87208  23529544.85708
   9987869.24407   7782730.34907  24724127.82307  24724135.42807
 -16841047.36109 -13122896.82108  19817639.57309  19817641.19908
 -17554686.51808 -13678975.23508  21003492.22208  21003494.58208
 93 04 08 15 20 00.0000000  0  7 29 25 15 01 14 18 22
 -12891174.16108 -10045072.39208  21073912.14208  21073913.22208
   7839009.02608   6108310.57708  21868047.82608  21868050.12108
   7762850.00608   6048963.03908  22317631.88308  22317635.42108
  10226774.75007   7968889.70907  24769590.59007  24769598.42807
 -17028240.76909 -13268761.83708  19782017.85009  19782019.50008
  -6773580.40908  -5278116.32008  23468550.82308  23468553.70008
 -17747291.54708 -13829056.98608  20966840.70708  20966843.00208
 93 04 08 15 22 00.0000000  0  7 29 14 22 25 15 01 18
 -13077362.61408 -10190154.33608  21038481.70508  21038482.79408
 -17206531.32209 -13407689.58208  19748090.30409  19748092.00308
 -17930147.40408 -13971542.02508  20932044.36908  20932046.62308
   8151822.03108   6352060.67108  21927574.45708  21927576.76908
   8101137.12308   6312562.92308  22382006.14608  22382009.77908
  10467593.10607   8156539.62007  24815417.50607  24815425.28707
  -7092327.61508  -5526490.71808  23407895.13408  23407898.01508
 93 04 08 15 24 00.0000000  0  7 29 25 15 14 01 18 22
 -13260959.58308 -10333216.95008  21003544.39408  21003545.49308
   8468360.90408   6598714.00608  21987810.08208  21987812.45108
   8443391.12008   6579253.86508  22447135.33308  22447139.05108
 -17375670.54509 -13539486.43608  19715904.27309  19715905.98808
  10710298.00907   8345659.51107  24861603.31207  24861611.37907
  -7409341.44608  -5773514.45508  23347569.28808  23347572.26208
 -18103150.81808 -14106349.86408  20899122.90708  20899125.17208
 93 04 08 15 26 00.0000000  0  8 25 15 14 01 29 22 18 19
   8788825.37608   6848426.23308  22048792.69608  22048795.13708
   8789469.40208   6848924.74808  22512992.23208  22512996.08508
 -17535822.61209 -13664280.32808  19685428.36809  19685430.14808
  10955044.54607   8536370.29707  24908177.69107  24908185.81907
 -13441524.55308 -10473916.96708  20969184.10008  20969185.19908
 -18266118.36208 -14233337.56308  20868111.16108  20868113.50408
  -7724496.76108  -6019090.02808  23287597.18908  23287600.29008
        -0.87317        -0.43217  24428075.57317  24428081.04317
 93 04 08 15 28 00.0000000  0  8 25 14 15 01 29 22 18 19
   9112698.04908   7100794.17708  22110423.93908  22110426.42508
 -17686354.38309 -13781577.89109  19656783.19109  19656785.00009
   9139098.86708   7121362.75808  22579524.89308  22579528.86408
  11201288.04407   8728247.53106  24955036.97307  24955045.23906
 -13619076.82708 -10612269.43908  20935396.97908  20935398.13308
 -18418999.51108 -14352465.74608  20839018.86208  20839021.16908
  -8038003.21608  -6263380.78808  23227939.03508  23227942.09308
   -406387.53507   -316665.42607  24350742.87007  24350748.28907
 93 04 08 15 30 00.0000000  0  8 25 14 15 01 29 22 18 19
   9439795.11608   7355674.62108  22172668.71708  22172671.24708
 -17827551.84809 -13891601.96709  19629914.31009  19629916.11909
   9492055.06808   7396393.00908  22646690.67608  22646694.77708
  11449366.97007   8921554.99406  25002245.24907  25002253.89506
 -13793423.73508 -10748124.23408  20902219.90708  20902221.09908
 -18561703.02408 -14463663.31008  20811863.34708  20811865.67708
  -8349496.75708  -6506103.08508  23168663.94908  23168666.81308
   -809075.94108   -630448.58307  24274113.89908  24274119.14007
 93 04 08 15 32 00.0000000  0  7 25 15 18 14 19 29 22
   9770365.74308   7613261.71008  22235574.60208  22235577.19308
   9848134.78808   7673857.16908  22714450.78708  22714455.05608
  -8659511.27708  -6747672.88008  23109670.10708  23109673.07208
 -17959463.47009 -13994390.33409  19604812.48909  19604814.31909
  -1207946.47308   -941256.75507  24198211.36008  24198216.50507
 -13965186.56408 -10881965.46408  20869534.63408  20869535.80208
 -18694124.52808 -14566848.91608  20786664.41608  20786666.72808
 93 04 08 15 34 00.0000000  0  7 25 15 18 14 19 29 22
  10104085.20208   7873302.40008  22299079.55408  22299082.34308
  10207089.80708   7953561.78908  22782758.15908  22782762.62008
  -8967744.03208  -6987854.27508  23051015.34608  23051018.30208
 -18081585.66309 -14089550.59109  19581573.43809  19581575.32109
  -1602868.29408  -1248988.01007  24123060.30508  24123065.34207
 -14134042.86008 -11013541.88108  20837402.45308  20837403.68208
 -18816211.45608 -14661981.59708  20763432.04708  20763434.38608
 93 04 08 15 36 00.0000000  0  7 25 15 18 14 19 29 22
  10440696.87808   8135596.72608  22363135.03308  22363137.98808
  10568688.72208   8235326.53908  22851568.61708  22851573.20308
  -9274131.46108  -7226597.75008  22992711.72708  22992714.77708
 -18194045.51809 -14177181.73709  19560173.15809  19560175.02409
  -1993575.55908  -1553435.24907  24048711.07408  24048716.19807
 -14299544.25508 -11142504.08508  20805908.64108  20805909.86808
 -18927899.77908 -14749011.48608  20742178.50708  20742180.83008
 93 04 08 15 38 00.0000000  0  7 25 15 14 18 19 29 22
  10779895.54408   8399906.87008  22427682.74208  22427685.85008
  10932657.00708   8518937.50608  22920830.06208  22920834.74308
 -18296883.04409 -14257314.97309  19540603.93309  19540605.81009
  -9578865.28208  -7464052.72008  22934722.92908  22934725.96308
  -2380561.80708  -1854983.01507  23975070.04108  23975075.15307
 -14462439.92808 -11269435.85408  20774910.70008  20774911.96208
 -19029177.32008 -14827929.10108  20722906.06808  20722908.41508
 93 04 08 15 40 00.0000000  0  7 25 15 18 14 19 29 22
  11121637.58208   8666198.84208  22492714.48908  22492717.76708
  11298765.28708   8804215.96508  22990498.78308  22990503.53908
  -9882057.01708  -7700306.09408  22877027.36208  22877030.46708
 -18390064.62209 -14329924.10209  19522872.09809  19522874.00309
  -2763733.61408  -2153558.51807  23902154.84108  23902160.08307
 -14622712.05308 -11394323.30708  20744412.00208  20744413.28108
 -19119996.57408 -14898697.41108  20705623.78808  20705626.10908
 93 04 08 15 42 00.0000000  0  7 25 15 14 18 19 29 22
  11465918.43908   8934469.11308  22558229.32608  22558232.71508
  11666799.19308   9090994.86508  23060533.82508  23060538.87308
 -18473291.96009 -14394776.68409  19507034.59209  19507036.55109
 -10183772.43708  -7935409.08908  22819613.11508  22819616.15608
  -3142717.49508  -2448870.75307  23830036.82508  23830042.11707
 -14779900.62908 -11516808.01208  20714500.06408  20714501.38908
 -19200301.10708 -14961272.45808  20690342.42308  20690344.74308
 93 04 08 15 44 00.0000000  0  7 25 15 14 18 19 29 22
  11812642.63808   9204643.26908  22624209.20908  22624212.75608
  12036501.68808   9379073.95708  23130886.33408  23130891.69108
 -18546763.71409 -14452027.52309  19493053.47209  19493055.44909
 -10484079.45008  -8169414.60408  22762466.68808  22762469.73108
  -3517604.79608  -2740990.86608  23758698.30008  23758703.48408
 -14934142.41808 -11636996.51408  20685148.94308  20685150.23108
 -19270085.98308 -15015650.33608  20677062.85808  20677065.17808
 93 04 08 15 46 00.0000000  0  7 25 15 14 18 19 29 22
  12161101.18508   9476168.85208  22690519.03908  22690522.73608
  12407546.90408   9668199.28508  23201494.46308  23201500.04208
 -18610529.13309 -14501714.98709  19480919.48009  19480921.44409
 -10782603.77708  -8402031.01108  22705659.35808  22705662.38908
  -3888570.76408  -3030055.43108  23688106.07508  23688111.28408
 -15085683.16108 -11755080.30708  20656311.80308  20656313.12208
 -19329422.38108 -15061886.55508  20665771.57808  20665773.89208
 93 04 08 15 48 00.0000000  0  7 25 15 14 18 29 22 19
  12511682.30108   9749348.38408  22757232.79508  22757236.69108
  12779726.64808   9958208.64208  23272318.52808  23272324.36208
 -18664202.54009 -14543538.54609  19470705.82109  19470707.84509
 -11079588.88108  -8633448.01608  22649144.93908  22649148.08008
 -15234510.63108 -11871049.85108  20627990.93108  20627992.30408
 -19378275.29608 -15099953.83708  20656475.23608  20656477.55908
  -4255561.26108  -3316022.23808  23618270.09008  23618275.56308
 93 04 08 15 50 00.0000000  0  7 25 15 14 18 19 29 22
  12864082.56908  10023945.41708  22824292.87008  22824296.82408
  13152800.04708  10248914.31908  23343312.68308  23343318.76108
 -18708099.73109 -14577744.27209  19462352.55709  19462354.63009
 -11375252.12008  -8863835.01308  22592882.25308  22592885.28008
  -4618343.12308  -3598709.56508  23549235.19908  23549240.69608
 -15380415.81408 -11984742.29508  20600226.21908  20600227.60108
 -19416648.31708 -15129854.97408  20649173.16008  20649175.54108
 93 04 08 15 52 00.0000000  0  7 25 15 18 14 19 29 22
  13217788.77608  10299560.06708  22891601.46808  22891605.42108
  13526527.13508  10540129.31108  23414431.35608  23414437.59908
 -11669576.26008  -9093178.53808  22536874.34708  22536877.30708
 -18742195.42709 -14604312.47909  19455864.47609  19455866.58909
  -4977286.10208  -3878405.48208  23480930.65708  23480936.03108
 -15523602.60608 -12096316.53408  20572978.83508  20572980.15608
 -19444554.42208 -15151600.06908  20643862.88208  20643865.24608
 93 04 08 15 54 00.0000000  0  7 25 15 18 14 19 29 22
  13573162.16508  10576473.82308  22959227.29308  22959231.37608
  13900653.31708  10831655.23808  23485625.95908  23485632.38408
 -11962593.64708  -9321503.81308  22481115.00308  22481118.04508
 -18766421.45309 -14623190.03509  19451254.54809  19451256.68309
  -5332027.38308  -4154827.26608  23413425.72008  23413431.02008
 -15663991.46708 -12205710.56408  20546263.76708  20546265.16308
 -19462029.71508 -15165217.26608  20640537.54908  20640539.92708
 93 04 08 15 56 00.0000000  0  7 25 15 18 14 19 29 22
  13930128.01408  10854628.43208  23027156.00608  23027160.27508
  14275001.01408  11123353.73208  23556862.74408  23556869.42008
 -12254214.33208  -9548740.75508  22425621.45908  22425624.55308
 -18780547.54109 -14634197.52709  19448566.56709  19448568.72509
  -5682740.90808  -4428110.46508  23346687.07808  23346692.36208
 -15801636.04108 -12312966.18808  20520070.96408  20520072.36808
 -19469043.03008 -15170682.29208  20639203.08308  20639205.44608
 93 04 08 15 58 00.0000000  0  7 18 25 15 14 19 29 22
 -12544610.23208  -9775023.32408  22370361.06108  22370364.10308
  14288150.89508  11133606.70108  23095285.90008  23095290.36308
  14649391.92708  11415085.86008  23628107.77008  23628114.76308
 -18784289.85309 -14637113.76809  19447854.54009  19447856.76309
  -6029216.20308  -4698091.10708  23280755.00308  23280760.17108
 -15936407.15908 -12417982.73708  20494424.96108  20494426.37208
 -19465572.59508 -15167978.18008  20639863.57808  20639865.98608
 93 04 08 16 00 00.0000000  0  7 18 25 15 14 19 29 22
 -12833280.99808  -9999961.63608  22315428.86008  22315431.95508
  14647120.20908  11413322.46008  23163595.99308  23163600.55108
  15023681.69508  11706739.15708  23699333.62808  23699340.86908
 -18778147.92909 -14632328.00509  19449023.44609  19449025.68009
  -6371788.97408  -4965030.79208  23215565.47508  23215570.67908
 -16068227.90108 -12520700.29408  20469340.38408  20469341.86308
 -19451571.43208 -15157068.32208  20642528.03808  20642530.47208
 93 04 08 16 02 00.0000000  0  7 18 25 15 14 19 29 22
 -13120601.42608 -10223847.73808  22260753.62708  22260756.68808
  15007368.96808  11694035.19908  23232149.51708  23232154.28908
  15397562.82908  11998073.98508  23770481.63708  23770489.18708
 -18762240.80909 -14619933.00009  19452050.56909  19452052.87609
  -6710155.42008  -5228692.78808  23151176.29008  23151181.51708
 -16197281.80408 -12621261.87708  20444782.35308  20444783.89908
 -19427166.78708 -15138051.85908  20647172.17808  20647174.67308
 93 04 08 16 04 00.0000000  0  7 18 25 15 19 14 29 22
 -13406660.82608 -10446751.23108  22206318.39808  22206321.47908
  15368316.42008  11975292.35008  23300835.96908  23300840.85908
  15770793.23007  12288901.72308  23841505.79007  23841513.63708
  -7044063.26808  -5488880.54108  23087635.56508  23087640.90508
 -18736316.83809 -14599732.66609  19456983.87909  19456986.24009
 -16323347.84008 -12719495.26608  20420792.85308  20420794.40808
 -19392427.25508 -15110982.24208  20653782.98808  20653785.50208
 93 04 08 16 06 00.0000000  0  7 18 25 15 19 14 29 22
 -13691250.81508 -10668509.71108  22152162.65708  22152165.91108
  15729775.47608  12256948.12708  23369619.91208  23369624.84208
  16143159.32207  12579055.92308  23912365.61207  23912373.69108
  -7373873.87808  -5745875.65608  23024874.59808  23024879.87108
 -18700475.19009 -14571804.26909  19463804.42209  19463806.82409
 -16446595.55708 -12815532.54708  20397339.67908  20397341.20908
 -19347403.88308 -15075899.23808  20662350.79808  20662353.29708
 93 04 08 16 08 00.0000000  0  7 18 25 15 19 14 29 22
 -13974459.28008 -10889191.65808  22098269.89708  22098273.21508
  16091751.33108  12539006.58808  23438502.14608  23438507.16508
  16514454.83307  12868375.88507  23983021.68607  23983030.11007
  -7699763.50208  -5999815.49808  22962859.73908  22962865.08708
 -18654341.40709 -14535856.03508  19472583.53609  19472585.98408
 -16566870.50508 -12909253.37808  20374452.19408  20374453.72808
 -19292147.83508 -15032842.73108  20672865.75408  20672868.33508
 93 04 08 16 10 00.0000000  0  7 18 25 15 19 14 29 22
 -14256455.70808 -11108929.14908  22044607.81008  22044611.11108
  16454306.43108  12821516.37708  23507494.73808  23507499.89708
  16884483.82307  13156708.92608  24053436.89307  24053445.74408
  -8021686.54808  -6250664.51008  22901599.67008  22901605.12008
 -18598330.90609 -14492211.66309  19483242.13409  19483244.61209
 -16684288.40808 -13000747.93008  20352108.41108  20352109.97408
 -19226710.65308 -14981852.86208  20685318.20808  20685320.80008
 93 04 08 16 12 00.0000000  0  7 18 25 15 19 14 29 22
 -14537061.42008 -11327583.27608  21991210.36208  21991213.65308
  16817434.04808  13104471.93407  23576596.11508  23576601.56407
  17253016.76707  13443875.81808  24123567.55207  24123576.74408
  -8339063.25308  -6497971.23408  22841204.89008  22841210.33708
 -18532817.71609 -14441162.92208  19495709.08209  19495711.65008
 -16798735.30308 -13089927.73408  20330330.00608  20330331.66608
 -19151188.26208 -14923004.71808  20699689.81808  20699692.53208
 93 04 08 16 14 00.0000000  0  7 18 19 25 15 14 29 22
 -14816400.32108 -11545249.96708  21938053.88208  21938057.16108
  -8652266.55808  -6742025.59608  22781604.18708  22781609.39608
  17180541.76407  13387412.27507  23645693.59507  23645699.35607
  17619844.72807  13729714.47308  24193373.61107  24193382.97208
 -18457243.57209 -14382274.16008  19510090.42909  19510092.99708
 -16910307.64408 -13176867.31808  20309098.40108  20309100.09308
 -19065664.26508 -14856362.80808  20715964.58008  20715967.30208
 93 04 08 16 16 00.0000000  0  7 18 19 25 15 14 29 22
 -15094478.11208 -11761933.99508  21885137.42008  21885140.72608
  -8961723.92908  -6983161.05608  22722716.39408  22722721.42708
  17543802.71307  13670471.97807  23714820.46207  23714826.38207
  17984717.11507  14014029.31107  24262807.56007  24262816.99407
 -18371638.84109 -14315569.37008  19526380.65709  19526383.26808
 -17019017.62408 -13261576.48308  20288411.80408  20288413.51808
 -18970270.97308 -14782030.55708  20734117.42308  20734120.23008
 93 04 08 16 18 00.0000000  0  7 18 19 25 15 14 29 22
 -15371154.05708 -11977525.66008  21832487.85408  21832491.19608
  -9267300.74708  -7221272.72408  22664566.94108  22664571.87708
  17907013.33407  13953492.47407  23783937.73207  23783943.94807
  18347378.71007  14296621.41107  24331820.77707  24331830.58307
 -18276600.64809 -14241513.83108  19544465.97009  19544468.64508
 -17124996.47608 -13344157.49208  20268244.71308  20268246.43008
 -18865154.93008 -14700122.11808  20754120.48908  20754123.28608
 93 04 08 16 20 00.0000000  0  7 18 19 25 15 14 29 22
 -15646559.10708 -12192127.02308  21780080.10108  21780083.41908
  -9568629.86908  -7456074.53908  22607225.92708  22607230.89808
  18269595.80607  14236023.44307  23852935.52207  23852941.96107
  18707634.61607  14577338.88907  24400376.24107  24400386.53507
 -18172036.79309 -14160035.71008  19564363.96909  19564366.71908
 -17227744.88408 -13424221.27408  20248692.37208  20248694.20908
 -18750415.13708 -14610714.66208  20775954.83208  20775957.73908
 93 04 08 16 22 00.0000000  0  7 18 19 25 15 29 14 22
 -15920882.56108 -12405885.56708  21727878.17308  21727881.39208
  -9866122.16208  -7687886.56708  22550614.82408  22550619.79208
  18631997.67607  14518413.64907  23921898.97007  23921905.56907
  19065243.22407  14855993.53907  24468427.82707  24468438.57307
 -17327654.74308 -13502073.18908  20229680.20708  20229682.00908
 -18057746.52209 -14070978.55408  19586112.81909  19586115.62608
 -18626201.92908 -14513925.30108  20799591.93308  20799594.85408
 93 04 08 16 24 00.0000000  0  7 18 19 25 15 29 14 22
 -16194065.81508 -12618755.64708  21675893.16508  21675896.37208
 -10159645.85608  -7916606.14708  22494758.96308  22494763.93408
  18993920.09907  14800430.24507  23990771.22007  23990777.92307
  19420028.99907  15132448.55307  24535942.52107  24535953.55807
 -17424463.52108 -13577508.68508  20211258.28808  20211260.05908
 -17934381.12009 -13974849.87208  19609588.67109  19609591.48708
 -18492612.01408 -14409829.44008  20825013.45008  20825016.37708
 93 04 08 16 26 00.0000000  0  7 18 19 29 14 22 25 15
 -16465931.90908 -12830599.36308  21624158.79308  21624162.03908
 -10449139.86808  -8142185.78908  22439670.05808  22439675.05908
 -17518353.10108 -13650669.48308  20193391.65908  20193393.46508
 -17801542.58909 -13871339.54108  19634867.20109  19634870.06908
 -18349707.30808 -14298475.31008  20852207.50208  20852210.47608
  19355348.17807  15082061.62007  24059549.43707  24059556.26107
  19771858.21607  15406599.67307  24602894.56207  24602905.99907
 93 04 08 16 28 00.0000000  0  8 18 19 29 14 22 25 15 28
 -16736339.24808 -13041306.36808  21572701.97508  21572705.17408
 -10734941.37408  -8364888.12808  22385283.68908  22385288.68608
 -17609335.69208 -13721565.07808  20176078.41108  20176080.24708
 -17659213.85809 -13760434.23708  19661951.57609  19661954.46808
 -18197680.73608 -14180013.21508  20881137.29908  20881140.32708
  19716002.49507  15363090.05707  24128180.38607  24128187.44507
  20120474.52307  15678247.13707  24669235.28507  24669247.03907
        -0.27217         0.46017  24757075.49017  24757087.62017
 93 04 08 16 30 00.0000000  0  8 18 19 29 14 22 25 15 28
 -17005324.69408 -13250905.44408  21521515.81108  21521519.01508
 -11016790.01208  -8584510.35308  22331649.71608  22331654.60908
 -17697395.69508 -13790183.37008  20159321.19108  20159323.13608
 -17507896.37209 -13642524.76108  19690746.53409  19690749.48008
 -18036645.52208 -14054531.43108  20911781.48708  20911784.55408
  20075516.55807  15643229.93807  24196594.31607  24196601.68707
  20465709.78507  15947259.84907  24734932.69007  24734944.93407
   -262251.81308   -204350.46808  24707170.05008  24707181.86808
 93 04 08 16 32 00.0000000  0  8 18 19 29 14 22 25 15 28
 -17273317.83608 -13459731.30308  21470518.43308  21470521.63808
 -11294578.65108  -8800968.93608  22278788.15208  22278793.07008
 -17782289.27008 -13856334.33308  20143166.58908  20143168.52708
 -17347525.81609 -13517560.94608  19721264.27109  19721267.28208
 -17866671.33608 -13922084.22108  20944126.69308  20944129.75308
  20434595.36607  15923030.65007  24264925.23407  24264933.02407
  20807446.81207  16213546.57707  24799964.50307  24799977.15907
   -525061.35708   -409136.29108  24657158.54608  24657170.25508
 93 04 08 16 34 00.0000000  0  8 22 18 19 29 14 25 15 28
 -17687985.64708 -13782848.84808  20978129.60408  20978132.75308
 -17539934.16308 -13667484.30708  21419783.00508  21419786.22208
 -11568692.80208  -9014564.28608  22226625.96408  22226630.81508
 -17863791.47808 -13919842.67308  20127657.34808  20127659.31608
 -17177942.23209 -13385418.15008  19753535.15309  19753538.23608
  20792575.34707  16201975.17107  24333047.23907  24333055.20607
  21145422.01607  16476901.84007  24864280.58207  24864293.80207
   -788367.67308   -614309.18008  24607052.23708  24607063.67908
 93 04 08 16 36 00.0000000  0  8 22 18 19 29 14 25 15 28
 -17500750.86908 -13636951.87608  21013759.35208  21013762.62808
 -17805095.19608 -13874103.31208  21369324.54208  21369327.78008
 -11839180.76608  -9225334.05608  22175153.78108  22175158.58808
 -17942219.04208 -13980955.19508  20112733.22008  20112735.18708
 -16999970.70009 -13246739.30008  19787402.20809  19787405.31408
  21149373.84407  16479999.04407  24400944.38507  24400952.76607
  21479443.74607  16737176.22507  24927844.49207  24927858.28207
  -1052264.07708   -819941.89108  24556833.73008  24556845.11008
 93 04 08 16 38 00.0000000  0  8 22 18 19 29 14 25 15 28
 -17305093.99408 -13484492.23708  21050991.82108  21050995.15408
 -18068910.56608 -14079673.75408  21319122.19108  21319125.48308
 -12105807.66808  -9433095.22308  22124416.34208  22124421.15908
 -18017653.30408 -14039735.26308  20098378.63808  20098380.63208
 -16813134.03709 -13101152.57108  19822956.25209  19822959.41908
  21504864.70907  16757003.99707  24468592.89307  24468601.21307
  21809364.65107  16994254.87507  24990628.34807  24990642.45307
  -1316711.20808  -1026003.77608  24506510.62008  24506521.71708
 93 04 08 16 40 00.0000000  0  7 22 18 19 25 28 29 14
 -17101225.91208 -13325634.26408  21089786.81708  21089790.24908
 -18331304.74908 -14284136.80608  21269190.29208  21269193.57608
 -12368691.10508  -9637939.41908  22074391.23708  22074396.06408
  21859201.88407  17033109.96807  24536021.95307  24536030.24207
  -1581221.39808  -1232114.98208  24456175.54208  24456186.38508
 -18089790.19908 -14095945.96708  20084651.60708  20084653.61208
 -16617613.15809 -12948798.93408  19860162.86509  19860166.13408
 93 04 08 16 42 00.0000000  0  7 22 18 19 25 28 29 14
 -16889305.11208 -13160501.45308  21130114.23008  21130117.75808
 -18592330.48508 -14487533.53408  21219518.85108  21219522.15408
 -12627963.84608  -9839970.09808  22025053.17808  22025058.04308
  22212232.19407  17308197.59607  24603201.95407  24603210.64807
  -1845906.65108  -1438362.78908  24405807.34208  24405818.01908
 -18159013.27908 -14149886.17708  20071479.00708  20071481.03308
 -16413777.00108 -12789965.87308  19898951.80808  19898955.20408
 93 04 08 16 44 00.0000000  0  6 22 18 19 28 29 14
 -16669521.69708 -12989241.95108  21171937.88008  21171941.44408
 -18851903.49208 -14689798.26508  21170123.81708  21170127.12808
 -12883755.24708 -10039288.05608  21976377.73408  21976382.60608
  -2111061.97308  -1644976.94608  24355349.51208  24355360.29308
 -18225039.83008 -14201335.58708  20058914.62708  20058916.75808
 -16201619.47508 -12624648.64008  19939324.31508  19939327.78308
 93 04 08 16 46 00.0000000  0  6 22 18 19 28 29 14
 -16442072.98308 -12812009.51708  21215220.22108  21215223.80208
 -19110302.22608 -14891147.98308  21120952.24408  21120955.52408
 -13136203.24708 -10236000.76308  21928338.50408  21928343.26708
  -2376282.76808  -1851642.04808  24304879.40908  24304889.98108
 -18287277.03608 -14249832.26908  20047071.44208  20047073.59808
 -15981436.04809 -12453077.46508  19981224.11509  19981227.60608
 93 04 08 16 48 00.0000000  0  6 22 18 19 28 29 14
 -16207178.61108 -12628975.30108  21259919.42008  21259923.08808
 -19367115.43208 -15091262.23708  21072082.29508  21072085.57308
 -13385301.83308 -10430103.52608  21880936.56408  21880941.36608
  -2641353.26408  -2058190.06608  24254437.97408  24254448.36408
 -18346542.49708 -14296013.30008  20035793.74308  20035795.92308
 -15753396.95308 -12275384.99208  20024618.73108  20024622.32108
 93 04 08 16 50 00.0000000  0  6 22 18 19 28 29 14
 -15964990.09708 -12440257.36708  21306006.64008  21306010.46708
 -19622585.21908 -15290329.68108  21023468.05508  21023471.44008
 -13630841.93308 -10621433.42108  21834211.88808  21834216.59008
  -2905885.76808  -2264318.89008  24204098.81408  24204109.04008
 -18402612.02508 -14339704.00208  20025124.19608  20025126.42108
 -15517387.55608 -12091481.91308  20069530.14708  20069533.77708
 93 04 08 16 52 00.0000000  0  6 22 19 28 29 14 18
 -15715665.02108 -12245978.51208  21353451.93608  21353455.89808
 -13873023.54208 -10810146.34508  21788126.34608  21788131.08708
  -3169824.95708  -2469985.39708  24153872.60408  24153882.67408
 -18455069.37108 -14380580.03708  20015142.04108  20015144.30208
 -15273808.36408 -11901680.31608  20115882.03708  20115885.76308
 -19876761.76808 -15488389.42108  20975099.92708  20975103.32708
 93 04 08 16 54 00.0000000  0  6 22 19 28 29 14 18
 -15459340.22208 -12046245.34608  21402229.31308  21402233.31308
 -14111829.68808 -10996229.06308  21742682.98208  21742687.69908
  -3433090.30508  -2675126.82908  24103774.34108  24103784.51108
 -18504407.00408 -14419025.12408  20005753.52508  20005755.87908
 -15022637.99308 -11705963.51208  20163678.35308  20163682.23008
 -20129117.04608 -15685029.96908  20927078.37808  20927081.79908
 93 04 08 16 56 00.0000000  0  6 22 19 28 29 14 18
 -15196153.08208 -11841164.89808  21452312.51408  21452316.60308
 -14347438.73408 -11179820.54908  21697848.11008  21697852.81308
  -3695780.47208  -2879820.10308  24053785.83108  24053795.89308
 -18550133.24408 -14454656.13708  19997052.25808  19997054.66908
 -14764154.67308 -11504548.31708  20212866.40608  20212870.36008
 -20379470.11708 -15880110.34308  20879437.81308  20879441.23408
 93 04 08 16 58 00.0000000  0  6 22 19 28 29 14 18
 -14926229.45308 -11630835.23108  21503677.62508  21503681.84308
 -14579469.64908 -11360623.88308  21653694.10508  21653698.82608
  -3957513.03608  -3083767.20508  24003979.50508  24003989.49908
 -18592006.25808 -14487284.64108  19989084.22208  19989086.66808
 -14498402.23808 -11297468.94008  20263437.80208  20263441.82608
 -20628228.68208 -16073948.22908  20832100.60808  20832104.06008
 93 04 08 17 00 00.0000000  0  7 22 19 28 27 29 14 18
 -14649745.27508 -11415393.47608  21556291.14708  21556295.50908
 -14808024.73308 -11538718.79208  21610201.52408  21610206.25908
  -4218107.18208  -3286827.23208  23954389.80008  23954399.79508
        -0.87017        -0.62317  24799393.64417  24799402.43217
 -18630493.53008 -14517274.91708  19981760.49308  19981762.99608
 -14225303.10308 -11084664.88508  20315407.16408  20315411.32008
 -20875126.61908 -16266336.29008  20785117.60108  20785121.15008
 93 04 08 17 02 00.0000000  0  7 22 19 28 27 29 14 18
 -14366838.92608 -11194947.42108  21610126.69608  21610131.24108
 -15033575.63008 -11714472.74508  21567280.60508  21567285.34708
  -4476968.09808  -3488536.64308  23905129.97708  23905139.76908
   -329305.15507   -256601.26807  24736728.92307  24736737.62507
 -18664947.43808 -14544122.29608  19975204.23208  19975206.80208
 -13945303.96308 -10866484.13708  20368689.53308  20368693.82008
 -21119976.29008 -16457128.28208  20738524.27908  20738527.83608
 93 04 08 17 04 00.0000000  0  7 22 19 28 27 29 14 18
 -14077690.11408 -10969637.14108  21665150.28308  21665154.92208
 -15255816.80008 -11887647.72008  21524989.54908  21524994.34508
  -4734077.55508  -3688881.24008  23856203.31908  23856212.95508
   -657400.22507   -512259.62707  24674294.45107  24674303.15507
 -18695657.62208 -14568052.49208  19969360.45008  19969363.06108
 -13658373.47108 -10642902.35708  20423290.89608  20423295.25008
 -21362806.81408 -16646346.93208  20692315.21608  20692318.72808
 93 04 08 17 06 00.0000000  0  7 22 19 28 27 29 14 18
 -13782401.01208 -10739542.23108  21721342.32308  21721347.06708
 -15474655.91708 -12058171.71908  21483345.87708  21483350.65208
  -4989494.58808  -3887907.03608  23807598.67708  23807608.34308
   -984210.45307   -766916.91007  24612104.41807  24612113.24607
 -18722174.90508 -14588715.48808  19964314.54908  19964317.15608
 -13364831.34608 -10414168.69808  20479150.43108  20479154.90808
 -21603233.48208 -16833692.46408  20646563.66208  20646567.18208
 93 04 08 17 08 00.0000000  0  7 22 19 28 27 29 14 18
 -13481139.79108 -10504793.73408  21778670.81408  21778675.68508
 -15690147.40408 -12226087.15808  21442339.13708  21442343.91408
  -5243136.76408  -4085549.83208  23759331.75408  23759341.29508
  -1310153.34707  -1020898.45307  24550079.61407  24550088.43207
 -18744416.66808 -14606046.91708  19960082.24408  19960084.87008
 -13064405.70608 -10180071.26208  20536319.87808  20536324.47308
 -21841080.85208 -17019028.16508  20601302.84708  20601306.45708
 93 04 08 17 10 00.0000000  0  7 22 19 28 27 29 14 18
 -13174096.23508 -10265539.53008  21837099.63008  21837104.63708
 -15902270.24108 -12391377.62508  21401973.51108  21401978.29508
  -5494228.52908  -4281205.31908  23711550.26108  23711559.69208
  -1634561.37307  -1273683.94707  24488347.00207  24488355.55407
 -18762735.62508 -14620321.61708  19956596.39608  19956599.08108
 -12757597.59108  -9941000.51308  20594703.92808  20594708.65308
 -22076802.09808 -17202707.15508  20556446.59308  20556450.27108
 93 04 08 17 12 00.0000000  0  7 22 19 28 27 29 14 18
 -12861420.91008 -10021896.95108  21896600.20808  21896605.29508
 -16111257.36008 -12554224.71608  21362204.54708  21362209.29208
  -5743048.35608  -4475090.50308  23664201.25308  23664210.56208
  -1957858.49907  -1525603.76307  24426825.60507  24426834.04207
 -18776885.17108 -14631347.43008  19953903.96408  19953906.72708
 -12444673.76108  -9697164.34508  20654251.82108  20654256.68708
 -22310195.95508 -17384572.56708  20512033.36108  20512037.01008
 93 04 08 17 14 00.0000000  0  7 22 19 28 27 29 14 18
 -12543252.20308  -9773973.81808  21957146.10008  21957151.38408
 -16316877.17208 -12714447.97108  21323076.46108  21323081.19308
  -5989434.01308  -4667078.98208  23617315.54608  23617324.66908
  -2280415.32107  -1776946.74207  24365445.07607  24365453.58407
 -18786474.39808 -14638819.75208  19952079.35508  19952082.16308
 -12125400.91408  -9448380.85308  20715007.81008  20715012.79308
 -22540866.83708 -17564316.17608  20468138.20708  20468141.86408
 93 04 08 17 16 00.0000000  0  7 19 22 28 27 29 14 18
 -16519245.31208 -12872137.46708  21284567.13008  21284571.84908
 -12219811.85008  -9521942.91508  22018695.15908  22018700.60308
  -6232823.08708  -4856732.55708  23570999.84508  23571008.97808
  -2601701.49007  -2027299.66407  24304306.47407  24304314.88807
 -18791794.03308 -14642965.12708  19951067.26208  19951070.08808
 -11800156.57708  -9194944.27008  20776900.23008  20776905.37308
 -22768735.48008 -17741876.21708  20424776.25508  20424779.99208
 93 04 08 17 18 00.0000000  0  7 19 22 28 27 29 14 18
 -16718452.21108 -13027363.66308  21246659.39408  21246664.19008
 -11891265.40608  -9265933.27208  22081215.88208  22081221.49708
  -6473289.21308  -5044108.58808  23525240.48608  23525249.61408
  -2921486.23607  -2276482.68007  24243453.56607  24243462.15707
 -18792631.39108 -14643617.81208  19950908.05408  19950910.92108
 -11468998.25208  -8936899.38108  20839917.89508  20839923.18808
 -22993865.58708 -17917302.35408  20381935.50808  20381939.22008
 93 04 08 17 20 00.0000000  0  7 19 22 28 27 29 14 18
 -16914408.18708 -13180056.64408  21209370.23808  21209374.98508
 -11557818.48108  -9006105.09108  22144669.15508  22144674.91808
  -6710849.17008  -5229220.07108  23480034.25008  23480043.34808
  -3240187.26807  -2524821.24207  24182806.65707  24182815.53607
 -18789061.82008 -14640836.52608  19951587.44508  19951590.37108
 -11132213.26908  -8674470.08008  20904006.39608  20904011.81808
 -23216192.03408 -18090543.82608  20339628.33508  20339632.02408
 93 04 08 17 22 00.0000000  0  7 14 22 27 28 19 29 18
 -10790110.78408  -8407897.31808  20969106.81508  20969112.34008
 -11219620.98008  -8742575.21208  22209026.51008  22209032.33708
  -3557673.83907  -2772213.45408  24122391.08907  24122399.95708
  -6945113.78008  -5411763.75108  23435454.98508  23435464.11708
 -17107307.18908 -13330367.56108  21172662.74508  21172667.47908
 -18780695.53408 -14634317.54608  19953179.67408  19953182.63608
 -23435448.01408 -18261392.71408  20297905.37208  20297909.02508
 93 04 08 17 24 00.0000000  0  7 14 22 27 28 19 29 18
 -10442909.33708  -8137351.38208  21035177.56208  21035183.21208
 -10876802.00008  -8475444.21608  22274263.30308  22274269.29508
  -3874120.25208  -3018795.11308  24062173.44708  24062182.20108
  -7175931.08008  -5591621.21108  23391531.85208  23391540.92108
 -17296926.84708 -13478123.16108  21136579.40708  21136584.05408
 -18767414.24708 -14623968.72008  19955707.19508  19955710.22208
 -23651326.53708 -18429609.82608  20256825.10308  20256828.80308
 93 04 08 17 26 00.0000000  0  7 14 22 27 28 19 29 18
 -10090431.88608  -7862694.30608  21102252.30808  21102258.07408
 -10529609.30708  -8204905.16608  22340332.47108  22340338.56808
  -4189200.24208  -3264312.01408  24002215.67108  24002224.50708
  -7403058.70308  -5768603.59108  23348310.85708  23348319.82508
 -17483600.93908 -13623583.53208  21101056.53108  21101061.27308
 -18749774.14408 -14610223.42908  19959064.17508  19959067.30008
 -23863808.46908 -18595180.23408  20216391.23108  20216394.98108
 93 04 08 17 28 00.0000000  0  7 14 22 27 28 19 29 18
  -9732948.75508  -7584136.74008  21170279.56908  21170285.49508
 -10178230.87508  -7931104.52008  22407198.15208  22407204.35908
  -4503288.79208  -3509056.34008  23942446.54608  23942455.41308
  -7626148.59708  -5942439.72408  23305858.11708  23305866.94708
 -17667347.54108 -13766762.76108  21066090.68108  21066095.42508
 -18726995.83308 -14592474.34008  19963398.93308  19963402.11108
 -24073316.72208 -18758433.50308  20176523.14808  20176526.91808
 93 04 08 17 30 00.0000000  0  7 14 22 27 28 19 29 18
  -9370774.57008  -7301923.83008  21239199.72208  21239205.79008
  -9822851.16308  -7654185.99908  22474825.20108  22474831.66308
  -4816086.37208  -3752794.69608  23882923.22008  23882932.01008
  -7845468.17208  -6113337.98408  23264122.86408  23264131.75308
 -17847978.33908 -13907514.11008  21031717.89508  21031722.69808
 -18699608.05208 -14571133.47508  19968610.88308  19968614.09508
 -24279469.22108 -18919071.89508  20137293.72508  20137297.53808
 93 04 08 17 32 00.0000000  0  7 14 22 27 28 29 18 19
  -9004163.04408  -7016253.27508  21308964.12608  21308970.42508
  -9463616.78308  -7374263.83508  22543185.73408  22543192.37408
  -5127632.13308  -3995557.51508  23823638.03208  23823646.68308
  -8060883.26408  -6281193.78008  23223130.69008  23223139.48108
 -18667179.58808 -14545864.79808  19974782.00308  19974785.26308
 -24481953.79309 -19076852.16508  20098762.25609  20098766.06108
 -18025848.14108 -14046114.03708  20997870.43808  20997875.27408
 93 04 08 17 34 00.0000000  0  7 14 22 27 28 29 18 19
  -8633054.06908  -6727078.26008  21379584.37608  21379590.92708
  -9100731.26508  -7091496.63508  22612241.10608  22612247.99108
  -5438392.58108  -4237708.52408  23764502.22308  23764510.95108
  -8271807.38708  -6445550.06408  23182993.09808  23183001.76408
 -18629503.80308 -14516507.29208  19981951.64008  19981954.97908
 -24680598.41509 -19231640.28008  20060961.53309  20060965.32108
 -18200678.52308 -14182345.56808  20964601.40708  20964606.25708
 93 04 08 17 36 00.0000000  0  7 14 22 27 28 29 18 19
  -8258060.89208  -6434876.61608  21450943.79108  21450950.53208
  -8734422.99308  -6806062.39108  22681947.82408  22681954.89508
  -5747981.91708  -4478946.88008  23705589.26308  23705597.95508
  -8478290.25408  -6606445.60308  23143700.53508  23143709.11408
 -18587217.32408 -14483557.02908  19989998.66808  19990002.09308
 -24875798.08509 -19383744.02208  20023816.34709  20023820.13908
 -18372441.45008 -14316186.91408  20931916.11108  20931920.97208
 93 04 08 17 38 00.0000000  0  7 14 22 27 28 29 18 19
  -7879184.46008  -6139649.07308  21523042.30708  21523049.23208
  -8364817.46108  -6518058.90008  22752282.01008  22752289.30608
  -6056459.76208  -4719319.26508  23646887.83708  23646896.64008
  -8680091.59808  -6763693.23208  23105298.76908  23105307.41208
 -18539599.26508 -14446452.31308  19999060.31208  19999063.75208
 -25067203.24609 -19532891.01008  19987393.18909  19987396.98708
 -18541590.58108 -14447991.55708  20899728.20508  20899733.07508
 93 04 08 17 40 00.0000000  0  7 14 22 27 28 29 18 19
  -7496253.22208  -5841261.97308  21595912.39208  21595919.45808
  -7991978.65608  -6227535.95408  22823231.51308  22823239.03108
  -6363768.27108  -4958780.48608  23588409.07808  23588417.92908
  -8876901.67108  -6917051.56708  23067846.92708  23067855.56408
 -18486768.87708 -14405286.05508  20009113.82408  20009117.30708
 -25254363.28609 -19678730.10308  19951777.92709  19951781.77808
 -18707948.23308 -14577620.98408  20868071.44608  20868076.39908
 93 04 08 17 42 00.0000000  0  7 14 22 27 28 29 18 19
  -7109782.71008  -5540117.03908  21669456.00908  21669463.27908
  -7616105.18908  -5934648.32808  22894758.43608  22894766.13908
  -6669902.62608  -5197326.73708  23530153.67508  23530162.38008
  -9068889.95508  -7066652.67708  23031312.76408  23031321.36808
 -18428844.86908 -14360150.74508  20020136.62508  20020140.20008
 -25437351.51109 -19821318.42808  19916956.45409  19916960.35708
 -18871321.84008 -14704925.16608  20836982.51008  20836987.49608
 93 04 08 17 44 00.0000000  0  7 14 22 27 28 29 18 19
  -6719805.48708  -5236239.61808  21743666.82208  21743674.39708
  -7237421.62908  -5639571.01108  22966820.06208  22966827.99808
  -6974891.13508  -5434979.98408  23472116.16908  23472124.83008
  -9255648.21508  -7212178.44508  22995773.77208  22995782.32608
 -18365309.05908 -14310642.59208  20032227.28208  20032230.93708
 -25616181.03109 -19960666.18708  19882926.42909  19882930.34508
 -19031771.70308 -14829951.07108  20806450.04108  20806454.99908
 93 04 08 17 46 00.0000000  0  7 14 22 27 28 29 18 19
  -6326606.04408  -4929851.40308  21818490.88108  21818498.78208
  -6856113.34408  -5342448.46808  23039381.23708  23039389.36608
  -7278660.46508  -5671683.13308  23414310.62908  23414319.31908
  -9437042.46808  -7353524.47608  22961255.51308  22961263.95608
 -18296391.72308 -14256941.04408  20045341.98308  20045345.69908
 -25790744.12909 -20096689.48508  19849708.21909  19849712.18408
 -19189695.81108 -14953008.90708  20776398.12908  20776403.08208
 93 04 08 17 48 00.0000000  0  7 14 22 27 28 29 18 19
  -5930613.03408  -4621286.41308  21893846.59008  21893854.72408
  -6472361.01608  -5043421.50508  23112407.43208  23112415.85808
  -7581397.54808  -5907581.90708  23356701.37608  23356710.06708
  -9613005.06408  -7490638.06308  22927770.83608  22927779.26908
 -18222051.63208 -14199014.02108  20059488.66208  20059492.49008
 -25960617.14509 -20229058.17508  19817382.61209  19817386.57808
 -19345054.24908 -15074067.50908  20746834.42208  20746839.36808
 93 04 08 17 50 00.0000000  0  7 14 22 27 28 29 18 19
  -5531826.37708  -4310544.59008  21969733.93908  21969742.34308
  -6086307.34908  -4742601.26808  23185871.56708  23185880.24008
  -7882851.33408  -6142480.68508  23299336.43408  23299345.07108
  -9783604.46908  -7623572.56108  22895306.73808  22895315.19208
 -18142365.20508 -14136921.04008  20074652.76008  20074656.69308
 -26125926.71409 -20357870.93408  19785925.34209  19785929.34508
 -19497683.66808 -15192999.61808  20717790.08608  20717795.05508
 93 04 08 17 52 00.0000000  0  7 14 22 27 28 29 18 19
  -5130264.97608  -3997640.66308  22046149.35508  22046158.03308
  -5698111.40508  -4440111.68308  23259743.40508  23259752.22608
  -8183444.95208  -6376709.12508  23242135.14608  23242143.67508
  -9948146.85808  -7751787.34008  22863995.29008  22864003.77608
 -18057130.26308 -14070504.54808  20090872.65408  20090876.70908
 -26286894.90309 -20483300.78608  19755294.10409  19755298.16808
 -19647394.41408 -15309657.41908  20689301.10908  20689306.17408
 93 04 08 17 54 00.0000000  0  7 14 22 27 28 29 18 19
  -4725991.65508  -3682623.61008  22123080.88808  22123089.83708
  -5307918.15008  -4136065.76908  23333995.30008  23334004.23508
  -8482825.02008  -6609991.95608  23185164.92708  23185173.16608
 -10106559.97808  -7875226.09008  22833850.27608  22833858.69108
 -17966363.14208 -13999777.25408  20108145.35608  20108149.46708
 -26442729.51309 -20604730.43108  19725639.86309  19725643.92608
 -19794617.67009 -15424376.95208  20661285.56709  20661290.61208
 93 04 08 17 56 00.0000000  0  7 14 22 27 28 29 18 19
  -4319745.49708  -3366069.30508  22200387.81808  22200396.97508
  -4915939.55508  -3830628.68208  23408586.94408  23408596.06008
  -8781057.20608  -6842380.37108  23128413.04008  23128421.18508
 -10259031.62508  -7994035.13708  22804835.68408  22804844.06008
 -17869915.44008 -13924623.52908  20126498.99908  20126503.14308
 -26593683.60109 -20722357.06908  19696914.33209  19696918.40408
 -19939443.89809 -15537228.66208  20633726.17609  20633731.22208
 93 04 08 17 58 00.0000000  0  7 14 22 27 28 29 18 19
  -3911409.86408  -3047886.87608  22278092.46408  22278101.86608
  -4522359.59408  -3523943.78008  23483483.33908  23483492.67308
  -9078383.62108  -7074062.99808  23071833.48908  23071841.45808
 -10405565.91908  -8108217.69508  22776951.34308  22776959.61308
 -17767795.24508 -13845049.67408  20145932.07408  20145936.28708
 -26739681.13209 -20836121.44408  19669131.96509  19669136.02808
 -20081607.03209 -15648005.18808  20606673.49609  20606678.58308
 93 04 08 18 00 00.0000000  0  7 14 22 27 28 29 18 19
  -3501186.03608  -2728233.17108  22356156.34708  22356166.10508
  -4127411.18808  -3216192.56708  23558640.19308  23558649.65008
  -9374593.92008  -7304875.89508  23015466.24508  23015474.23008
 -10546009.28408  -8217654.10208  22750225.85908  22750234.07408
 -17660276.92308 -13761269.49108  20166392.34108  20166396.70508
 -26880537.09609 -20945879.42108  19642328.08009  19642332.17608
 -20221501.37409 -15757013.77008  20580052.50309  20580057.59108
 93 04 08 18 02 00.0000000  0  7 14 22 27 28 29 18 19
  -3089517.30008  -2407453.58708  22434495.23408  22434505.34808
  -3731188.35407  -2907448.21308  23634039.39707  23634049.07908
  -9669807.96308  -7534912.48108  22959288.53308  22959296.56908
 -10679891.45308  -8321977.86508  22724748.95208  22724757.26608
 -17547150.83708 -13673119.62008  20187919.72708  20187924.21208
 -27016294.11309 -21051664.18608  19616494.39909  19616498.53808
 -20358958.59509 -15864123.28608  20553895.29109  20553900.35408
 93 04 08 18 04 00.0000000  0  7 29 14 22 27 28 18 19
 -17427975.42208 -13580255.97408  20210598.27708  20210602.82708
  -2676581.34708  -2085686.59708  22513075.25908  22513085.72508
  -3333863.82207  -2597845.37307  23709648.32707  23709657.99507
  -9964260.06508  -7764355.31508  22903255.90208  22903263.73008
 -10807301.37908  -8421258.27408  22700503.48708  22700511.94108
 -27146905.32709 -21153439.21708  19591639.95409  19591644.11508
 -20493948.35009 -15969310.12108  20528207.55109  20528212.64208
 93 04 08 18 06 00.0000000  0  8 29 14 22 27 11 28 18 19
 -17303332.38108 -13483131.84208  20234317.32008  20234321.95808
  -2262175.28508  -1762774.11508  22591935.17008  22591945.90408
  -2935546.59607  -2287468.95507  23785446.14407  23785455.94207
 -10257761.72008  -7993057.54008  22847404.15908  22847411.98308
        -0.40618        -0.26717  24615287.30718  24615307.77317
 -10927953.90708  -8515273.10908  22677544.01408  22677552.52208
 -27271911.55209 -21250846.71208  19567852.09109  19567856.26008
 -20626384.75009 -16072507.29508  20503005.67009  20503010.84808
 93 04 08 18 08 00.0000000  0  8 29 14 22 27 11 28 18 19
 -17173029.74008 -13381597.65308  20259113.37108  20259118.09108
  -1846643.91208  -1438984.81608  22671009.24708  22671020.18608
  -2536421.72907  -1976463.16607  23861397.62207  23861407.53507
 -10550272.96608  -8220988.04808  22791740.83608  22791748.71708
   -344988.95408   -268821.01007  24549637.04908  24549657.09907
 -11041547.29308  -8603787.28708  22655927.76208  22655936.27308
 -27391068.08709 -21343695.99609  19545177.39809  19545181.57709
 -20756518.74709 -16173910.43008  20478241.94509  20478247.15108
 93 04 08 18 10 00.0000000  0  8 29 14 22 27 11 28 18 19
 -17036841.85408 -13275477.57608  20285029.37808  20285034.15608
  -1429964.77008  -1114301.19808  22750301.68408  22750313.04908
  -2136587.97607  -1664904.92807  23937483.85007  23937494.00807
 -10841742.51708  -8448106.92508  22736275.86108  22736283.63408
   -691058.63808   -538484.14807  24483781.04808  24483800.73707
 -11148343.18708  -8687004.76008  22635605.14108  22635613.59308
 -27504738.38509 -21432270.28209  19523546.70209  19523550.86909
 -20884501.51309 -16273637.30008  20453887.78309  20453892.93708
 93 04 08 18 12 00.0000000  0  8 29 14 22 27 11 28 18 19
 -16894920.31908 -13164889.70308  20312036.38808  20312041.19308
  -1012863.64608   -789288.80508  22829674.50808  22829686.20808
  -1736198.61807  -1352913.75307  24013675.82307  24013685.92907
 -11132064.27608  -8674331.45108  22681029.22208  22681036.96508
  -1038006.45908   -808831.50108  24417757.93908  24417777.24208
 -11248235.60608  -8764842.93808  22616596.06408  22616604.58208
 -27612834.78809 -21516501.27809  19502976.65509  19502980.82409
 -21010208.17509 -16371590.54208  20429966.59309  20429971.76908
 93 04 08 18 14 00.0000000  0  8 14 29 22 27 11 28 18 19
   -595260.39408   -463885.18008  22909142.80908  22909154.92908
 -16747087.05908 -13049695.27208  20340168.37208  20340173.25008
  -1335429.67407  -1040626.67507  24089939.99907  24089950.07007
 -11421147.65708  -8899591.00408  22626018.30608  22626026.03808
  -1385654.40208  -1079724.46508  24351601.56208  24351620.56808
 -11340983.17908  -8837113.73308  22598946.87708  22598955.37108
 -27714671.87209 -21595854.89709  19483597.75609  19483601.92809
 -21133521.28809 -16467678.68208  20406500.87809  20406506.05308
 93 04 08 18 16 00.0000000  0  8 14 29 22 27 11 28 18 19
   -177210.00708   -138133.19208  22988696.25308  22988708.87508
 -16593391.53208 -12929932.85808  20369415.91408  20369420.87208
   -934403.02707   -728138.77007  24166253.07207  24166263.37007
 -11709591.13708  -9124351.88708  22571129.21208  22571136.74908
  -1733766.48808  -1350978.95408  24285356.68708  24285375.27808
 -11426221.10108  -8903532.87408  22582726.60108  22582735.05208
 -27810689.77309 -21670674.09408  19465326.20309  19465330.35508
 -21254409.51309 -16561877.32108  20383496.60009  20383501.75108
 93 04 08 18 18 00.0000000  0  8 14 29 22 27 11 28 18 19
    240771.70408    187565.25408  23068236.70508  23068249.77108
 -16433837.60008 -12805605.44808  20399778.26608  20399783.32408
   -533269.81007   -415567.83507  24242586.55507  24242596.85907
 -11997117.33508  -9348398.00408  22516414.66408  22516422.09208
  -2082139.08208  -1622436.28708  24219062.20008  24219080.38008
 -11504307.90108  -8964379.68008  22567867.24308  22567875.63908
 -27900619.33709 -21740749.12109  19448213.23909  19448217.38309
 -21373210.72809 -16654449.70108  20360889.51709  20360894.64208
 93 04 08 18 20 00.0000000  0  7 14 29 27 11 28 18 19
    658990.19408    513448.16708  23147822.30108  23147835.64508
 -16268447.63708 -12676730.48708  20431251.17908  20431256.33908
 -12283567.19408  -9571605.44208  22461904.76508  22461912.20108
  -2430499.06208  -1893883.75608  24152770.13708  24152787.78508
 -11575089.30308  -9019533.93208  22554397.78908  22554406.18708
 -27984379.79109 -21806017.03009  19432274.15009  19432278.28909
 -21489755.85509 -16745264.10208  20338711.70909  20338716.87708
 93 04 08 18 22 00.0000000  0  8 14 29 02 27 11 28 18 19
   1077343.11508    839435.77208  23227433.54308  23227447.23208
 -16097087.03208 -12543203.08608  20463860.32208  20463865.52108
        -0.00917        -0.80117  24287937.79317  24287951.91317
 -12569048.70408  -9794058.35108  22407579.37608  22407586.77408
  -2778599.92308  -2165129.59208  24086527.66008  24086544.78608
 -11638237.47908  -9068740.26108  22542380.97708  22542389.41508
 -28061742.62709 -21866299.77208  19417552.51009  19417556.63808
 -21604071.19709 -16834340.99108  20316958.16609  20316963.41408
 93 04 08 18 24 00.0000000  0  8 14 29 02 27 11 28 18 19
   1494950.01108   1164842.04008  23306902.81308  23306916.82308
 -15920104.78708 -12405295.16808  20497539.13408  20497544.44808
   -412399.53607   -321350.32907  24209460.02107  24209474.09607
 -12853383.81808 -10015617.97908  22353472.02508  22353479.40808
  -3126205.74008  -2435989.93908  24020379.47008  24020396.21108
 -11693537.14508  -9111830.91008  22531857.86708  22531866.23008
 -28132578.25009 -21921496.40208  19404072.96809  19404077.10408
 -21716226.42609 -16921734.66108  20295615.78409  20295620.96108
 93 04 08 18 26 00.0000000  0  8 14 02 29 27 11 28 18 19
   1912475.30308   1490184.68508  23386356.55408  23386370.96508
   -823324.12207   -641550.56907  24131263.11207  24131276.93607
 -15737111.61308 -12262703.43108  20532361.85308  20532367.20008
 -13136732.61908 -10236409.07508  22299552.44808  22299559.76108
  -3473036.91408  -2706246.85808  23954378.87308  23954395.31808
 -11741013.60708  -9148825.57108  22522823.45808  22522831.81008
 -28196812.56709 -21971549.17108  19391849.66109  19391853.79408
 -21826021.74409 -17007289.40508  20274722.46609  20274727.59908
 93 04 08 18 28 00.0000000  0  8 14 02 29 27 11 28 18 19
   2329875.42608   1815429.76108  23465786.50608  23465801.32408
  -1232425.86008   -960330.41508  24053413.31008  24053426.79608
 -15547857.18608 -12115232.83308  20568376.12608  20568381.47208
 -13418864.97708 -10456252.28808  22245864.33508  22245871.58908
  -3818790.15308  -2975663.91608  23888583.42508  23888599.59708
 -11780597.13608  -9179669.88608  22515290.90908  22515299.22108
 -28254387.04609 -22016412.47708  19380893.64409  19380897.79808
 -21933234.96609 -17090832.16408  20254320.44209  20254325.57808
 93 04 08 18 30 00.0000000  0  8 27 14 29 02 11 28 18 19
 -13699933.80608 -10675266.74408  22192378.52308  22192385.70608
   2746271.75008   2139892.57508  23545025.49008  23545040.76908
 -15352593.64708 -11963079.86908  20605533.92208  20605539.37108
  -1639769.38108  -1277740.18408  23975897.88408  23975911.32208
  -4163253.46708  -3244075.89908  23823033.43808  23823049.48708
 -11812191.20408  -9204288.69408  22509278.84108  22509287.19708
 -28305064.31709 -22055901.35509  19371250.17709  19371254.34609
 -22038223.40009 -17172641.34208  20234341.78209  20234346.96008
 93 04 08 18 32 00.0000000  0  8 27 28 14 29 02 11 18 19
 -13979862.42808 -10893392.68808  22139109.69608  22139116.81308
 -11835849.39708  -9222723.69708  22504776.89008  22504785.30908
   3162015.12108   2463846.45908  23624140.44508  23624156.13708
 -15151384.76808 -11806294.22508  20643823.01508  20643828.61508
  -2045293.53408  -1593732.26608  23898728.61008  23898741.84808
  -4506135.82808  -3511255.94508  23757784.26908  23757800.08308
 -28348615.32109 -22089837.31908  19362962.75609  19362966.98008
 -22140950.64809 -17252688.57708  20214793.51209  20214798.63808
 93 04 08 18 34 00.0000000  0  8 27 28 14 29 02 11 18 19
 -14258415.61008 -11110446.85008  22086102.62708  22086109.63708
 -11851285.54008  -9234751.91108  22501839.58408  22501848.02908
   3576493.51708   2786814.47908  23703014.67608  23703030.92708
 -14944287.83708 -11644920.48908  20683232.60508  20683238.35508
  -2448831.02508  -1908176.24008  23821937.39908  23821950.35608
  -4847314.20008  -3777108.13008  23692859.43508  23692874.98108
 -28385164.51009 -22118317.34408  19356007.75309  19356012.00408
 -22241161.45709 -17330774.91908  20195724.03109  20195729.17908
 93 04 08 18 36 00.0000000  0  8 27 28 14 29 02 11 18 19
 -14536204.86908 -11326905.81008  22033240.87808  22033247.86608
 -11858442.08108  -9240328.46908  22500477.66008  22500486.13908
   3989586.67608   3108702.83908  23781625.47308  23781642.39608
 -14731485.23008 -11479100.78208  20723727.95008  20723733.81908
  -2850852.67108  -2221439.08108  23745434.64708  23745447.37408
  -5186787.37108  -4041631.52708  23628258.88808  23628274.25208
 -28414991.35709 -22141559.19408  19350332.10009  19350336.37608
 -22339415.38309 -17407336.43708  20177026.90809  20177032.14608
 93 04 08 18 38 00.0000000  0  8 27 28 14 29 02 11 18 19
 -14812597.31908 -11542276.39608  21980645.01808  21980651.96708
 -11857613.66708  -9239683.03408  22500635.33508  22500643.91608
   4401629.17908   3429772.14908  23860036.54508  23860054.24208
 -14512292.44508 -11308301.74208  20765439.38608  20765445.41108
  -3250232.76908  -2532643.61508  23669434.55408  23669447.17108
  -5523784.83208  -4304225.73208  23564129.35208  23564144.40508
 -28437341.74909 -22158975.24308  19346078.99409  19346083.30108
 -22435195.40009 -17481970.24308  20158800.56009  20158805.81608
 93 04 08 18 40 00.0000000  0  8 27 28 14 02 29 11 18 19
 -15086310.47708 -11755559.21908  21928559.03108  21928565.89608
 -11847156.47908  -9231534.69008  22502625.50208  22502634.11008
   4813937.80208   3751048.51108  23938498.64108  23938517.10308
  -3645939.88808  -2840986.08208  23594133.38008  23594145.82108
 -14285785.54208 -11131803.38908  20808542.59008  20808548.76908
  -5856886.63308  -4563784.34908  23500741.31708  23500756.04008
 -28450932.24609 -22169565.38908  19343492.93209  19343497.26508
 -22527283.24709 -17553727.05608  20141276.88109  20141282.12008
 93 04 08 18 42 00.0000000  0  8 27 28 14 02 29 11 18 19
 -15357793.93108 -11967104.59508  21876897.29508  21876904.26508
 -11827052.01108  -9215869.01908  22506451.25008  22506459.79608
   5225251.12108   4071549.00708  24016771.51108  24016790.85908
  -4038293.89608  -3146715.64508  23519470.28608  23519482.50608
 -14052291.29308 -10949860.36708  20852975.45408  20852981.80108
  -6186320.10708  -4820484.67308  23438051.36908  23438065.82708
 -28456177.22809 -22173652.53008  19342494.94509  19342499.30908
 -22616127.71209 -17622956.57208  20124370.40009  20124375.62108
 93 04 08 18 44 00.0000000  0  8 27 28 14 02 29 11 18 19
 -15627885.04108 -12177565.03108  21825500.55908  21825507.37608
 -11798581.30108  -9193684.16008  22511869.18408  22511877.78208
   5635274.65408   4391044.28308  24094799.03408  24094819.36808
  -4427612.55808  -3450079.92908  23445384.75808  23445396.73808
 -13812791.04808 -10763237.39308  20898551.27408  20898557.76908
  -6512602.35408  -5074729.58108  23375961.07008  23375975.27508
 -28453688.31309 -22171713.25808  19342968.69409  19342973.09508
 -22702246.37109 -17690062.09208  20107982.59909  20107987.81908
 93 04 08 18 46 00.0000000  0  8 27 28 14 02 11 29 18 19
 -15896873.17708 -12387166.02708  21774313.77408  21774320.49808
 -11761716.51608  -9164958.45508  22518884.48308  22518893.06508
   6043321.48507   4708999.07707  24172450.58407  24172471.81207
  -4814484.69808  -3751537.82308  23371764.73008  23371776.39908
  -6835869.70808  -5326625.31508  23314444.66808  23314458.72608
 -13567772.43108 -10572314.42208  20945177.22008  20945183.86308
 -28443786.24909 -22163997.51608  19344853.09709  19344857.52508
 -22786099.55209 -17755402.31108  20092025.95309  20092031.24608
 93 04 08 18 48 00.0000000  0  8 29 14 02 27 11 28 18 19
 -13316938.44708 -10376860.01608  20992909.88408  20992916.66908
   6448925.78907   5025050.47307  24249637.49707  24249659.59307
  -5199087.19608  -4051227.24808  23298576.73008  23298588.18108
 -16164943.22508 -12596051.66208  21723301.61508  21723308.37708
  -7155980.77108  -5576061.59108  23253528.92008  23253542.69208
 -11716482.88008  -9129711.57908  22527492.18808  22527500.79908
 -28426826.03709 -22150781.92508  19348080.64709  19348085.13308
 -22867920.99809 -17819159.36508  20076455.91709  20076461.23708
 93 04 08 18 50 00.0000000  0  8 29 14 02 27 11 28 18 19
 -13060752.01008 -10177234.86408  21041661.01908  21041667.92308
   6852197.97807   5339284.70207  24326380.57107  24326403.49307
  -5580859.67108  -4348711.60508  23225927.35208  23225938.60908
 -16431950.71908 -12804109.30908  21672491.65908  21672498.39008
  -7472682.25308  -5822841.04608  23193261.91308  23193275.52208
 -11663217.92708  -9088206.57008  22537628.49308  22537637.14908
 -28402324.02709 -22131689.61508  19352743.37209  19352747.91108
 -22947515.09409 -17881180.81508  20061309.78109  20061315.05608
 93 04 08 18 52 00.0000000  0  8 29 14 02 27 11 28 18 19
 -12799114.65008  -9973362.24808  21091449.44708  21091456.56408
   7253007.73407   5651600.24007  24402654.95707  24402678.88607
  -5960029.13408  -4644167.77308  23153773.40508  23153784.57008
 -16697717.26408 -13011199.95208  21621917.87808  21621924.45808
  -7785768.18508  -6066803.19908  23133683.05908  23133696.33908
 -11601804.23908  -9040351.91608  22549315.08708  22549323.73408
 -28370692.37409 -22107041.73708  19358762.78709  19358767.36308
 -23025250.80809 -17941754.17808  20046517.21609  20046522.51008
 93 04 08 18 54 00.0000000  0  8 29 02 14 27 11 28 18 19
 -12531907.93008  -9765149.89408  21142297.67908  21142304.99908
  -6336478.63608  -4937504.54108  23082137.07108  23082148.12108
   7651266.54307   5961928.20007  24478443.74107  24478468.58007
 -16962328.74508 -13217390.54408  21571563.82408  21571570.41008
  -8095014.70608  -6307773.60108  23074834.72308  23074847.78908
 -11532104.21808  -8986040.39508  22562578.73408  22562587.37508
 -28331415.09209 -22076436.23708  19366237.13609  19366241.75008
 -23101001.86109 -18000781.05208  20032102.33009  20032107.66508
 93 04 08 18 56 00.0000000  0  8 29 02 14 27 11 28 18 19
 -12259215.81508  -9552663.24508  21194189.76908  21194197.25608
  -6709872.90208  -5228460.60208  23011082.15708  23011092.98808
   8046320.77507   6269759.55907  24553622.57207  24553648.01407
 -17226218.56808 -13423018.85608  21521347.16608  21521353.81308
  -8400172.95608  -6545558.31108  23016764.39008  23016777.08508
 -11454518.02308  -8925583.83608  22577342.89708  22577351.68008
 -28284480.82409 -22039864.28108  19375168.56709  19375173.22708
 -23174396.66509 -18057971.88308  20018135.79509  20018141.12808
 93 04 08 18 58 00.0000000  0  8 29 02 14 27 11 28 18 19
 -11981278.25408  -9336089.27508  21247080.10608  21247087.72608
  -7080681.83408  -5517402.08408  22940519.16508  22940529.76008
   8438765.85907   6575557.93607  24628304.57307  24628330.71207
 -17488939.63008 -13627736.48708  21471352.93808  21471359.57308
  -8701029.47508  -6779991.04508  22959512.53908  22959525.01508
 -11368829.06308  -8858813.43708  22593649.08508  22593657.94208
 -28229950.26409 -21997373.15408  19385545.60209  19385550.26608
 -23245705.38709 -18113537.17508  20004566.24909  20004571.57008
 93 04 08 19 00 00.0000000  0  8 29 02 27 14 11 28 18 19
 -11698238.53108  -9115539.61508  21300941.39408  21300949.17908
  -7448133.43108  -5803727.43608  22870594.94408  22870605.46708
 -17750381.61708 -13831457.42408  21421602.05208  21421608.63608
   8827980.81107   6878839.41507  24702371.90107  24702398.69607
  -8997323.88408  -7010868.96408  22903128.96408  22903141.24108
 -11274679.96508  -8785450.72808  22611565.30808  22611574.27308
 -28167794.51909 -21948940.34108  19397373.55609  19397378.28908
 -23314920.07009 -18167470.73908  19991395.15509  19991400.48008
 93 04 08 19 02 00.0000000  0  8 29 02 27 14 11 28 18 19
 -11409805.11408  -8890787.08908  21355829.01608  21355836.99908
  -7812564.29108  -6087698.97808  22801245.67708  22801256.09008
 -18010869.16408 -14034434.59808  21372032.88508  21372039.41708
   9213907.35307   7179558.61307  24775813.40707  24775840.91207
  -9288849.57108  -7238031.00708  22847652.92908  22847664.98408
 -11172317.61708  -8705688.05208  22631044.28308  22631053.35708
 -28098107.01009 -21894638.62408  19410634.78809  19410639.63008
 -23381679.56609 -18219491.20908  19978691.29309  19978696.68808
 93 04 08 19 04 00.0000000  0  7 29 02 27 11 28 18 19
 -11115978.46308  -8661832.08008  21411743.00508  21411751.18708
  -8173757.33508  -6369147.58108  22732512.50608  22732522.87408
 -18270232.20908 -14236535.51708  21322677.56508  21322684.16508
  -9575383.96908  -7461303.74108  22793126.65008  22793138.54308
 -11061959.57408  -8619694.98208  22652044.93908  22652054.03508
 -28020857.84009 -21834444.68608  19425335.01209  19425339.93108
 -23446052.43909 -18269651.99508  19966441.58709  19966447.01708
 93 04 08 19 06 00.0000000  0  7 29 02 27 11 28 18 19
 -10817203.76208  -8429021.47408  21468598.63708  21468606.96508
  -8531370.84408  -6647806.95108  22664460.54808  22664470.78808
 -18528095.03308 -14437467.45808  21273607.81408  21273614.33508
  -9856628.46708  -7680454.49508  22739606.96508  22739618.69708
 -10943507.23508  -8527394.72208  22674585.85408  22674594.83308
 -27935804.85209 -21768169.87308  19441520.25809  19441525.20708
 -23508500.92909 -18318313.26908  19954558.10309  19954563.58608
 93 04 08 19 08 00.0000000  0  7 29 02 27 11 28 18 19
 -10513435.21108  -8192319.57008  21526404.54908  21526413.09608
  -8885786.35608  -6923974.37708  22597017.15008  22597027.26608
 -18784672.42608 -14637397.76408  21224782.68508  21224789.15308
 -10132302.18908  -7895264.42908  22687147.42308  22687159.02708
 -10816717.13608  -8428597.51008  22698713.37308  22698722.56808
 -27842714.28109 -21695632.00208  19459234.97709  19459240.00308
 -23568479.27709 -18365049.73408  19943144.72209  19943150.26008
 93 04 08 19 10 00.0000000  0  8 29 16 02 27 11 28 18 19
 -10204472.56508  -7951570.34408  21585198.85208  21585207.61708
        -0.66818        -0.30517  23605434.77618  23605445.43817
  -9236635.09508  -7197362.47408  22530252.49608  22530262.43508
 -19040075.08808 -14836412.71308  21176181.07808  21176187.50408
 -10402240.36608  -8105605.18708  22635779.31608  22635790.79308
 -10682040.82008  -8323655.18308  22724341.62708  22724350.87008
 -27742025.91709 -21617173.76608  19478395.50809  19478400.59608
 -23626166.42809 -18410000.81208  19932167.30309  19932172.81408
